<?xml version="1.0" encoding="UTF-8" standalone="no" ?>
<gpx xmlns="http://www.topografix.com/GPX/1/1" xmlns:xsi="http://www.w3.org/2001/XMLSchema-instance" xsi:schemaLocation="http://www.topografix.com/GPX/1/1 http://www.topografix.com/GPX/1/1/gpx.xsd" version="1.1" creator="VisuGPX - https://www.visugpx.com">
  <metadata>
    <name>Rando Île du Girard (Gevry-Molay) </name>
    <desc><![CDATA[Sortie du Mercredi matin - RSGD.albertd]]></desc>
  </metadata>
  <trk>
    <name><![CDATA[Gevry 23 avr. 2014 09:03:38]]></name>
    <cmt><![CDATA[23 avr. 2014 09:03:38]]></cmt>
    <trkseg>
      <trkpt lat="47.034" lon="5.44411">
        <ele>196</ele>
        <time>2014-04-23T07:03:39Z</time>
      </trkpt>
      <trkpt lat="47.03397" lon="5.44409">
        <ele>197</ele>
        <time>2014-04-23T07:06:14Z</time>
      </trkpt>
      <trkpt lat="47.03394" lon="5.44404">
        <ele>197</ele>
        <time>2014-04-23T07:06:19Z</time>
      </trkpt>
      <trkpt lat="47.03391" lon="5.44397">
        <ele>197</ele>
        <time>2014-04-23T07:06:28Z</time>
      </trkpt>
      <trkpt lat="47.03388" lon="5.44392">
        <ele>197</ele>
        <time>2014-04-23T07:06:34Z</time>
      </trkpt>
      <trkpt lat="47.03385" lon="5.44386">
        <ele>197</ele>
        <time>2014-04-23T07:06:38Z</time>
      </trkpt>
      <trkpt lat="47.03383" lon="5.4438">
        <ele>196</ele>
        <time>2014-04-23T07:06:43Z</time>
      </trkpt>
      <trkpt lat="47.03379" lon="5.44374">
        <ele>196</ele>
        <time>2014-04-23T07:06:49Z</time>
      </trkpt>
      <trkpt lat="47.03376" lon="5.44369">
        <ele>196</ele>
        <time>2014-04-23T07:06:55Z</time>
      </trkpt>
      <trkpt lat="47.03373" lon="5.44363">
        <ele>195</ele>
        <time>2014-04-23T07:06:59Z</time>
      </trkpt>
      <trkpt lat="47.03369" lon="5.44358">
        <ele>195</ele>
        <time>2014-04-23T07:07:05Z</time>
      </trkpt>
      <trkpt lat="47.03366" lon="5.44353">
        <ele>195</ele>
        <time>2014-04-23T07:07:08Z</time>
      </trkpt>
      <trkpt lat="47.03361" lon="5.44349">
        <ele>194</ele>
        <time>2014-04-23T07:07:12Z</time>
      </trkpt>
      <trkpt lat="47.03357" lon="5.44346">
        <ele>194</ele>
        <time>2014-04-23T07:07:17Z</time>
      </trkpt>
      <trkpt lat="47.03353" lon="5.44341">
        <ele>194</ele>
        <time>2014-04-23T07:07:22Z</time>
      </trkpt>
      <trkpt lat="47.03349" lon="5.44336">
        <ele>194</ele>
        <time>2014-04-23T07:07:26Z</time>
      </trkpt>
      <trkpt lat="47.03345" lon="5.44331">
        <ele>194</ele>
        <time>2014-04-23T07:07:30Z</time>
      </trkpt>
      <trkpt lat="47.0334" lon="5.44326">
        <ele>194</ele>
        <time>2014-04-23T07:07:34Z</time>
      </trkpt>
      <trkpt lat="47.03336" lon="5.44321">
        <ele>194</ele>
        <time>2014-04-23T07:07:37Z</time>
      </trkpt>
      <trkpt lat="47.03331" lon="5.44318">
        <ele>194</ele>
        <time>2014-04-23T07:07:41Z</time>
      </trkpt>
      <trkpt lat="47.03327" lon="5.44315">
        <ele>194</ele>
        <time>2014-04-23T07:07:45Z</time>
      </trkpt>
      <trkpt lat="47.03323" lon="5.44312">
        <ele>194</ele>
        <time>2014-04-23T07:07:51Z</time>
      </trkpt>
      <trkpt lat="47.03317" lon="5.44311">
        <ele>194</ele>
        <time>2014-04-23T07:07:56Z</time>
      </trkpt>
      <trkpt lat="47.03313" lon="5.44307">
        <ele>194</ele>
        <time>2014-04-23T07:08:01Z</time>
      </trkpt>
      <trkpt lat="47.03309" lon="5.44303">
        <ele>194</ele>
        <time>2014-04-23T07:08:05Z</time>
      </trkpt>
      <trkpt lat="47.03305" lon="5.44299">
        <ele>194</ele>
        <time>2014-04-23T07:08:11Z</time>
      </trkpt>
      <trkpt lat="47.03302" lon="5.44295">
        <ele>195</ele>
        <time>2014-04-23T07:08:15Z</time>
      </trkpt>
      <trkpt lat="47.03297" lon="5.4429">
        <ele>194</ele>
        <time>2014-04-23T07:08:18Z</time>
      </trkpt>
      <trkpt lat="47.03293" lon="5.44285">
        <ele>194</ele>
        <time>2014-04-23T07:08:22Z</time>
      </trkpt>
      <trkpt lat="47.03289" lon="5.4428">
        <ele>195</ele>
        <time>2014-04-23T07:08:26Z</time>
      </trkpt>
      <trkpt lat="47.03284" lon="5.44275">
        <ele>195</ele>
        <time>2014-04-23T07:08:31Z</time>
      </trkpt>
      <trkpt lat="47.0328" lon="5.4427">
        <ele>195</ele>
        <time>2014-04-23T07:08:34Z</time>
      </trkpt>
      <trkpt lat="47.03277" lon="5.44265">
        <ele>195</ele>
        <time>2014-04-23T07:08:38Z</time>
      </trkpt>
      <trkpt lat="47.03273" lon="5.4426">
        <ele>195</ele>
        <time>2014-04-23T07:08:41Z</time>
      </trkpt>
      <trkpt lat="47.03268" lon="5.44254">
        <ele>195</ele>
        <time>2014-04-23T07:08:46Z</time>
      </trkpt>
      <trkpt lat="47.03264" lon="5.44249">
        <ele>195</ele>
        <time>2014-04-23T07:08:49Z</time>
      </trkpt>
      <trkpt lat="47.0326" lon="5.44246">
        <ele>195</ele>
        <time>2014-04-23T07:08:53Z</time>
      </trkpt>
      <trkpt lat="47.03256" lon="5.4424">
        <ele>195</ele>
        <time>2014-04-23T07:08:57Z</time>
      </trkpt>
      <trkpt lat="47.03252" lon="5.44235">
        <ele>195</ele>
        <time>2014-04-23T07:09:01Z</time>
      </trkpt>
      <trkpt lat="47.03248" lon="5.4423">
        <ele>194</ele>
        <time>2014-04-23T07:09:05Z</time>
      </trkpt>
      <trkpt lat="47.03243" lon="5.44226">
        <ele>194</ele>
        <time>2014-04-23T07:09:09Z</time>
      </trkpt>
      <trkpt lat="47.03239" lon="5.44222">
        <ele>193</ele>
        <time>2014-04-23T07:09:12Z</time>
      </trkpt>
      <trkpt lat="47.03235" lon="5.44217">
        <ele>193</ele>
        <time>2014-04-23T07:09:17Z</time>
      </trkpt>
      <trkpt lat="47.0323" lon="5.44211">
        <ele>193</ele>
        <time>2014-04-23T07:09:21Z</time>
      </trkpt>
      <trkpt lat="47.03226" lon="5.44207">
        <ele>193</ele>
        <time>2014-04-23T07:09:25Z</time>
      </trkpt>
      <trkpt lat="47.03222" lon="5.44203">
        <ele>194</ele>
        <time>2014-04-23T07:09:29Z</time>
      </trkpt>
      <trkpt lat="47.03218" lon="5.44199">
        <ele>194</ele>
        <time>2014-04-23T07:09:33Z</time>
      </trkpt>
      <trkpt lat="47.03212" lon="5.44195">
        <ele>195</ele>
        <time>2014-04-23T07:09:36Z</time>
      </trkpt>
      <trkpt lat="47.03208" lon="5.4419">
        <ele>195</ele>
        <time>2014-04-23T07:09:41Z</time>
      </trkpt>
      <trkpt lat="47.03204" lon="5.44188">
        <ele>195</ele>
        <time>2014-04-23T07:09:45Z</time>
      </trkpt>
      <trkpt lat="47.03199" lon="5.44185">
        <ele>195</ele>
        <time>2014-04-23T07:09:51Z</time>
      </trkpt>
      <trkpt lat="47.03194" lon="5.44183">
        <ele>195</ele>
        <time>2014-04-23T07:09:54Z</time>
      </trkpt>
      <trkpt lat="47.03189" lon="5.44179">
        <ele>195</ele>
        <time>2014-04-23T07:10:00Z</time>
      </trkpt>
      <trkpt lat="47.03186" lon="5.44174">
        <ele>196</ele>
        <time>2014-04-23T07:10:04Z</time>
      </trkpt>
      <trkpt lat="47.03182" lon="5.4417">
        <ele>196</ele>
        <time>2014-04-23T07:10:07Z</time>
      </trkpt>
      <trkpt lat="47.03177" lon="5.44165">
        <ele>196</ele>
        <time>2014-04-23T07:10:11Z</time>
      </trkpt>
      <trkpt lat="47.03172" lon="5.44161">
        <ele>195</ele>
        <time>2014-04-23T07:10:15Z</time>
      </trkpt>
      <trkpt lat="47.03168" lon="5.44159">
        <ele>195</ele>
        <time>2014-04-23T07:10:19Z</time>
      </trkpt>
      <trkpt lat="47.03163" lon="5.44156">
        <ele>195</ele>
        <time>2014-04-23T07:10:23Z</time>
      </trkpt>
      <trkpt lat="47.03158" lon="5.44153">
        <ele>195</ele>
        <time>2014-04-23T07:10:26Z</time>
      </trkpt>
      <trkpt lat="47.03152" lon="5.44152">
        <ele>196</ele>
        <time>2014-04-23T07:10:31Z</time>
      </trkpt>
      <trkpt lat="47.03148" lon="5.44151">
        <ele>196</ele>
        <time>2014-04-23T07:10:35Z</time>
      </trkpt>
      <trkpt lat="47.03142" lon="5.4415">
        <ele>197</ele>
        <time>2014-04-23T07:10:38Z</time>
      </trkpt>
      <trkpt lat="47.03138" lon="5.4415">
        <ele>197</ele>
        <time>2014-04-23T07:10:43Z</time>
      </trkpt>
      <trkpt lat="47.03133" lon="5.44151">
        <ele>196</ele>
        <time>2014-04-23T07:10:48Z</time>
      </trkpt>
      <trkpt lat="47.03128" lon="5.4415">
        <ele>196</ele>
        <time>2014-04-23T07:10:52Z</time>
      </trkpt>
      <trkpt lat="47.03124" lon="5.4415">
        <ele>196</ele>
        <time>2014-04-23T07:10:56Z</time>
      </trkpt>
      <trkpt lat="47.03119" lon="5.44152">
        <ele>196</ele>
        <time>2014-04-23T07:11:00Z</time>
      </trkpt>
      <trkpt lat="47.03114" lon="5.44152">
        <ele>196</ele>
        <time>2014-04-23T07:11:03Z</time>
      </trkpt>
      <trkpt lat="47.03109" lon="5.44152">
        <ele>196</ele>
        <time>2014-04-23T07:11:08Z</time>
      </trkpt>
      <trkpt lat="47.03104" lon="5.44153">
        <ele>196</ele>
        <time>2014-04-23T07:11:11Z</time>
      </trkpt>
      <trkpt lat="47.03098" lon="5.44154">
        <ele>196</ele>
        <time>2014-04-23T07:11:16Z</time>
      </trkpt>
      <trkpt lat="47.03092" lon="5.44153">
        <ele>196</ele>
        <time>2014-04-23T07:11:18Z</time>
      </trkpt>
      <trkpt lat="47.03088" lon="5.44154">
        <ele>196</ele>
        <time>2014-04-23T07:11:23Z</time>
      </trkpt>
      <trkpt lat="47.03083" lon="5.44156">
        <ele>196</ele>
        <time>2014-04-23T07:11:27Z</time>
      </trkpt>
      <trkpt lat="47.03079" lon="5.44159">
        <ele>196</ele>
        <time>2014-04-23T07:11:31Z</time>
      </trkpt>
      <trkpt lat="47.03071" lon="5.44166">
        <ele>196</ele>
        <time>2014-04-23T07:11:38Z</time>
      </trkpt>
      <trkpt lat="47.03063" lon="5.44174">
        <ele>196</ele>
        <time>2014-04-23T07:11:45Z</time>
      </trkpt>
      <trkpt lat="47.03057" lon="5.44176">
        <ele>197</ele>
        <time>2014-04-23T07:11:48Z</time>
      </trkpt>
      <trkpt lat="47.03052" lon="5.44178">
        <ele>198</ele>
        <time>2014-04-23T07:11:51Z</time>
      </trkpt>
      <trkpt lat="47.03048" lon="5.44184">
        <ele>198</ele>
        <time>2014-04-23T07:11:55Z</time>
      </trkpt>
      <trkpt lat="47.03045" lon="5.44191">
        <ele>197</ele>
        <time>2014-04-23T07:11:58Z</time>
      </trkpt>
      <trkpt lat="47.0304" lon="5.44194">
        <ele>197</ele>
        <time>2014-04-23T07:12:03Z</time>
      </trkpt>
      <trkpt lat="47.03036" lon="5.44198">
        <ele>197</ele>
        <time>2014-04-23T07:12:07Z</time>
      </trkpt>
      <trkpt lat="47.03032" lon="5.44202">
        <ele>197</ele>
        <time>2014-04-23T07:12:11Z</time>
      </trkpt>
      <trkpt lat="47.03027" lon="5.44206">
        <ele>197</ele>
        <time>2014-04-23T07:12:15Z</time>
      </trkpt>
      <trkpt lat="47.03023" lon="5.4421">
        <ele>197</ele>
        <time>2014-04-23T07:12:19Z</time>
      </trkpt>
      <trkpt lat="47.03018" lon="5.44212">
        <ele>198</ele>
        <time>2014-04-23T07:12:22Z</time>
      </trkpt>
      <trkpt lat="47.03013" lon="5.44214">
        <ele>198</ele>
        <time>2014-04-23T07:12:26Z</time>
      </trkpt>
      <trkpt lat="47.03008" lon="5.44218">
        <ele>197</ele>
        <time>2014-04-23T07:12:31Z</time>
      </trkpt>
      <trkpt lat="47.03004" lon="5.44221">
        <ele>197</ele>
        <time>2014-04-23T07:12:35Z</time>
      </trkpt>
      <trkpt lat="47.02999" lon="5.44225">
        <ele>198</ele>
        <time>2014-04-23T07:12:39Z</time>
      </trkpt>
      <trkpt lat="47.02994" lon="5.44228">
        <ele>198</ele>
        <time>2014-04-23T07:12:44Z</time>
      </trkpt>
      <trkpt lat="47.02989" lon="5.44233">
        <ele>198</ele>
        <time>2014-04-23T07:12:47Z</time>
      </trkpt>
      <trkpt lat="47.02985" lon="5.44236">
        <ele>198</ele>
        <time>2014-04-23T07:12:51Z</time>
      </trkpt>
      <trkpt lat="47.0298" lon="5.44239">
        <ele>199</ele>
        <time>2014-04-23T07:12:55Z</time>
      </trkpt>
      <trkpt lat="47.02975" lon="5.44242">
        <ele>199</ele>
        <time>2014-04-23T07:12:59Z</time>
      </trkpt>
      <trkpt lat="47.0297" lon="5.44246">
        <ele>199</ele>
        <time>2014-04-23T07:13:04Z</time>
      </trkpt>
      <trkpt lat="47.02966" lon="5.44248">
        <ele>198</ele>
        <time>2014-04-23T07:13:07Z</time>
      </trkpt>
      <trkpt lat="47.02961" lon="5.44251">
        <ele>198</ele>
        <time>2014-04-23T07:13:12Z</time>
      </trkpt>
      <trkpt lat="47.02956" lon="5.44253">
        <ele>198</ele>
        <time>2014-04-23T07:13:14Z</time>
      </trkpt>
      <trkpt lat="47.02952" lon="5.44255">
        <ele>197</ele>
        <time>2014-04-23T07:13:21Z</time>
      </trkpt>
      <trkpt lat="47.02947" lon="5.44258">
        <ele>197</ele>
        <time>2014-04-23T07:13:25Z</time>
      </trkpt>
      <trkpt lat="47.02942" lon="5.44261">
        <ele>197</ele>
        <time>2014-04-23T07:13:28Z</time>
      </trkpt>
      <trkpt lat="47.02938" lon="5.44265">
        <ele>197</ele>
        <time>2014-04-23T07:13:32Z</time>
      </trkpt>
      <trkpt lat="47.02933" lon="5.44267">
        <ele>196</ele>
        <time>2014-04-23T07:13:37Z</time>
      </trkpt>
      <trkpt lat="47.02928" lon="5.4427">
        <ele>196</ele>
        <time>2014-04-23T07:13:41Z</time>
      </trkpt>
      <trkpt lat="47.02923" lon="5.44272">
        <ele>196</ele>
        <time>2014-04-23T07:13:46Z</time>
      </trkpt>
      <trkpt lat="47.02917" lon="5.44274">
        <ele>196</ele>
        <time>2014-04-23T07:13:50Z</time>
      </trkpt>
      <trkpt lat="47.02911" lon="5.44276">
        <ele>196</ele>
        <time>2014-04-23T07:13:53Z</time>
      </trkpt>
      <trkpt lat="47.02906" lon="5.44278">
        <ele>196</ele>
        <time>2014-04-23T07:13:58Z</time>
      </trkpt>
      <trkpt lat="47.029" lon="5.4428">
        <ele>196</ele>
        <time>2014-04-23T07:14:01Z</time>
      </trkpt>
      <trkpt lat="47.02896" lon="5.44283">
        <ele>197</ele>
        <time>2014-04-23T07:14:05Z</time>
      </trkpt>
      <trkpt lat="47.02891" lon="5.44286">
        <ele>197</ele>
        <time>2014-04-23T07:14:09Z</time>
      </trkpt>
      <trkpt lat="47.02886" lon="5.44289">
        <ele>197</ele>
        <time>2014-04-23T07:14:12Z</time>
      </trkpt>
      <trkpt lat="47.02882" lon="5.44292">
        <ele>198</ele>
        <time>2014-04-23T07:14:16Z</time>
      </trkpt>
      <trkpt lat="47.02877" lon="5.44294">
        <ele>198</ele>
        <time>2014-04-23T07:14:21Z</time>
      </trkpt>
      <trkpt lat="47.02871" lon="5.44296">
        <ele>198</ele>
        <time>2014-04-23T07:14:25Z</time>
      </trkpt>
      <trkpt lat="47.02866" lon="5.44298">
        <ele>199</ele>
        <time>2014-04-23T07:14:28Z</time>
      </trkpt>
      <trkpt lat="47.02861" lon="5.44301">
        <ele>199</ele>
        <time>2014-04-23T07:14:32Z</time>
      </trkpt>
      <trkpt lat="47.02855" lon="5.44303">
        <ele>198</ele>
        <time>2014-04-23T07:14:37Z</time>
      </trkpt>
      <trkpt lat="47.0285" lon="5.44305">
        <ele>198</ele>
        <time>2014-04-23T07:14:41Z</time>
      </trkpt>
      <trkpt lat="47.02845" lon="5.44307">
        <ele>198</ele>
        <time>2014-04-23T07:14:46Z</time>
      </trkpt>
      <trkpt lat="47.0284" lon="5.44309">
        <ele>198</ele>
        <time>2014-04-23T07:14:48Z</time>
      </trkpt>
      <trkpt lat="47.02836" lon="5.44313">
        <ele>198</ele>
        <time>2014-04-23T07:14:51Z</time>
      </trkpt>
      <trkpt lat="47.0283" lon="5.44316">
        <ele>198</ele>
        <time>2014-04-23T07:14:54Z</time>
      </trkpt>
      <trkpt lat="47.02826" lon="5.44319">
        <ele>198</ele>
        <time>2014-04-23T07:14:57Z</time>
      </trkpt>
      <trkpt lat="47.02822" lon="5.44322">
        <ele>198</ele>
        <time>2014-04-23T07:15:01Z</time>
      </trkpt>
      <trkpt lat="47.02817" lon="5.44324">
        <ele>197</ele>
        <time>2014-04-23T07:15:06Z</time>
      </trkpt>
      <trkpt lat="47.02813" lon="5.44326">
        <ele>197</ele>
        <time>2014-04-23T07:15:11Z</time>
      </trkpt>
      <trkpt lat="47.02808" lon="5.44328">
        <ele>197</ele>
        <time>2014-04-23T07:15:14Z</time>
      </trkpt>
      <trkpt lat="47.02803" lon="5.4433">
        <ele>197</ele>
        <time>2014-04-23T07:15:17Z</time>
      </trkpt>
      <trkpt lat="47.02798" lon="5.44331">
        <ele>197</ele>
        <time>2014-04-23T07:15:22Z</time>
      </trkpt>
      <trkpt lat="47.02793" lon="5.44334">
        <ele>197</ele>
        <time>2014-04-23T07:15:26Z</time>
      </trkpt>
      <trkpt lat="47.02788" lon="5.44337">
        <ele>197</ele>
        <time>2014-04-23T07:15:30Z</time>
      </trkpt>
      <trkpt lat="47.02783" lon="5.44339">
        <ele>197</ele>
        <time>2014-04-23T07:15:34Z</time>
      </trkpt>
      <trkpt lat="47.02779" lon="5.4434">
        <ele>197</ele>
        <time>2014-04-23T07:15:37Z</time>
      </trkpt>
      <trkpt lat="47.02775" lon="5.44342">
        <ele>196</ele>
        <time>2014-04-23T07:15:41Z</time>
      </trkpt>
      <trkpt lat="47.02769" lon="5.44343">
        <ele>196</ele>
        <time>2014-04-23T07:15:44Z</time>
      </trkpt>
      <trkpt lat="47.02764" lon="5.44343">
        <ele>197</ele>
        <time>2014-04-23T07:15:47Z</time>
      </trkpt>
      <trkpt lat="47.02759" lon="5.44342">
        <ele>197</ele>
        <time>2014-04-23T07:15:51Z</time>
      </trkpt>
      <trkpt lat="47.02753" lon="5.44342">
        <ele>197</ele>
        <time>2014-04-23T07:15:55Z</time>
      </trkpt>
      <trkpt lat="47.02748" lon="5.44342">
        <ele>197</ele>
        <time>2014-04-23T07:15:59Z</time>
      </trkpt>
      <trkpt lat="47.02743" lon="5.44342">
        <ele>197</ele>
        <time>2014-04-23T07:16:03Z</time>
      </trkpt>
      <trkpt lat="47.02734" lon="5.4434">
        <ele>197</ele>
        <time>2014-04-23T07:16:11Z</time>
      </trkpt>
      <trkpt lat="47.02724" lon="5.44336">
        <ele>197</ele>
        <time>2014-04-23T07:16:18Z</time>
      </trkpt>
      <trkpt lat="47.02717" lon="5.44332">
        <ele>198</ele>
        <time>2014-04-23T07:16:22Z</time>
      </trkpt>
      <trkpt lat="47.02711" lon="5.4433">
        <ele>198</ele>
        <time>2014-04-23T07:16:24Z</time>
      </trkpt>
      <trkpt lat="47.02706" lon="5.44328">
        <ele>199</ele>
        <time>2014-04-23T07:16:28Z</time>
      </trkpt>
      <trkpt lat="47.02701" lon="5.44328">
        <ele>198</ele>
        <time>2014-04-23T07:16:32Z</time>
      </trkpt>
      <trkpt lat="47.02696" lon="5.44326">
        <ele>197</ele>
        <time>2014-04-23T07:16:37Z</time>
      </trkpt>
      <trkpt lat="47.02691" lon="5.44325">
        <ele>198</ele>
        <time>2014-04-23T07:16:39Z</time>
      </trkpt>
      <trkpt lat="47.02686" lon="5.44325">
        <ele>197</ele>
        <time>2014-04-23T07:16:44Z</time>
      </trkpt>
      <trkpt lat="47.02681" lon="5.44325">
        <ele>197</ele>
        <time>2014-04-23T07:16:47Z</time>
      </trkpt>
      <trkpt lat="47.02677" lon="5.44328">
        <ele>197</ele>
        <time>2014-04-23T07:16:52Z</time>
      </trkpt>
      <trkpt lat="47.02672" lon="5.44328">
        <ele>197</ele>
        <time>2014-04-23T07:16:57Z</time>
      </trkpt>
      <trkpt lat="47.02667" lon="5.44328">
        <ele>196</ele>
        <time>2014-04-23T07:17:00Z</time>
      </trkpt>
      <trkpt lat="47.02661" lon="5.44324">
        <ele>196</ele>
        <time>2014-04-23T07:17:05Z</time>
      </trkpt>
      <trkpt lat="47.02657" lon="5.4432">
        <ele>196</ele>
        <time>2014-04-23T07:17:07Z</time>
      </trkpt>
      <trkpt lat="47.02651" lon="5.44319">
        <ele>196</ele>
        <time>2014-04-23T07:17:11Z</time>
      </trkpt>
      <trkpt lat="47.02647" lon="5.44317">
        <ele>196</ele>
        <time>2014-04-23T07:17:14Z</time>
      </trkpt>
      <trkpt lat="47.02643" lon="5.44315">
        <ele>196</ele>
        <time>2014-04-23T07:17:18Z</time>
      </trkpt>
      <trkpt lat="47.02637" lon="5.44309">
        <ele>197</ele>
        <time>2014-04-23T07:17:21Z</time>
      </trkpt>
      <trkpt lat="47.02633" lon="5.44307">
        <ele>196</ele>
        <time>2014-04-23T07:17:25Z</time>
      </trkpt>
      <trkpt lat="47.02627" lon="5.44305">
        <ele>196</ele>
        <time>2014-04-23T07:17:30Z</time>
      </trkpt>
      <trkpt lat="47.02622" lon="5.44302">
        <ele>197</ele>
        <time>2014-04-23T07:17:32Z</time>
      </trkpt>
      <trkpt lat="47.02616" lon="5.443">
        <ele>197</ele>
        <time>2014-04-23T07:17:36Z</time>
      </trkpt>
      <trkpt lat="47.0261" lon="5.44299">
        <ele>196</ele>
        <time>2014-04-23T07:17:40Z</time>
      </trkpt>
      <trkpt lat="47.02606" lon="5.44299">
        <ele>197</ele>
        <time>2014-04-23T07:17:43Z</time>
      </trkpt>
      <trkpt lat="47.026" lon="5.44298">
        <ele>197</ele>
        <time>2014-04-23T07:17:48Z</time>
      </trkpt>
      <trkpt lat="47.02595" lon="5.44298">
        <ele>198</ele>
        <time>2014-04-23T07:17:51Z</time>
      </trkpt>
      <trkpt lat="47.02589" lon="5.44297">
        <ele>198</ele>
        <time>2014-04-23T07:17:56Z</time>
      </trkpt>
      <trkpt lat="47.02582" lon="5.44295">
        <ele>198</ele>
        <time>2014-04-23T07:18:00Z</time>
      </trkpt>
      <trkpt lat="47.02578" lon="5.44297">
        <ele>198</ele>
        <time>2014-04-23T07:18:04Z</time>
      </trkpt>
      <trkpt lat="47.02573" lon="5.44297">
        <ele>198</ele>
        <time>2014-04-23T07:18:09Z</time>
      </trkpt>
      <trkpt lat="47.02568" lon="5.44294">
        <ele>197</ele>
        <time>2014-04-23T07:18:13Z</time>
      </trkpt>
      <trkpt lat="47.02562" lon="5.44293">
        <ele>197</ele>
        <time>2014-04-23T07:18:16Z</time>
      </trkpt>
      <trkpt lat="47.02553" lon="5.44288">
        <ele>197</ele>
        <time>2014-04-23T07:18:23Z</time>
      </trkpt>
      <trkpt lat="47.02547" lon="5.44286">
        <ele>196</ele>
        <time>2014-04-23T07:18:28Z</time>
      </trkpt>
      <trkpt lat="47.02542" lon="5.44286">
        <ele>196</ele>
        <time>2014-04-23T07:18:32Z</time>
      </trkpt>
      <trkpt lat="47.02533" lon="5.44283">
        <ele>196</ele>
        <time>2014-04-23T07:18:39Z</time>
      </trkpt>
      <trkpt lat="47.02528" lon="5.4428">
        <ele>195</ele>
        <time>2014-04-23T07:18:42Z</time>
      </trkpt>
      <trkpt lat="47.02524" lon="5.44277">
        <ele>195</ele>
        <time>2014-04-23T07:18:46Z</time>
      </trkpt>
      <trkpt lat="47.02519" lon="5.44273">
        <ele>195</ele>
        <time>2014-04-23T07:18:49Z</time>
      </trkpt>
      <trkpt lat="47.02515" lon="5.44269">
        <ele>195</ele>
        <time>2014-04-23T07:18:53Z</time>
      </trkpt>
      <trkpt lat="47.02511" lon="5.44265">
        <ele>195</ele>
        <time>2014-04-23T07:18:56Z</time>
      </trkpt>
      <trkpt lat="47.02507" lon="5.44263">
        <ele>195</ele>
        <time>2014-04-23T07:18:59Z</time>
      </trkpt>
      <trkpt lat="47.02501" lon="5.44261">
        <ele>194</ele>
        <time>2014-04-23T07:19:03Z</time>
      </trkpt>
      <trkpt lat="47.02497" lon="5.44258">
        <ele>194</ele>
        <time>2014-04-23T07:19:06Z</time>
      </trkpt>
      <trkpt lat="47.02492" lon="5.44256">
        <ele>194</ele>
        <time>2014-04-23T07:19:10Z</time>
      </trkpt>
      <trkpt lat="47.02487" lon="5.44254">
        <ele>194</ele>
        <time>2014-04-23T07:19:15Z</time>
      </trkpt>
      <trkpt lat="47.02482" lon="5.44251">
        <ele>193</ele>
        <time>2014-04-23T07:19:20Z</time>
      </trkpt>
      <trkpt lat="47.02478" lon="5.44247">
        <ele>192</ele>
        <time>2014-04-23T07:19:24Z</time>
      </trkpt>
      <trkpt lat="47.02474" lon="5.44242">
        <ele>192</ele>
        <time>2014-04-23T07:19:28Z</time>
      </trkpt>
      <trkpt lat="47.0247" lon="5.44238">
        <ele>192</ele>
        <time>2014-04-23T07:19:32Z</time>
      </trkpt>
      <trkpt lat="47.02465" lon="5.44233">
        <ele>192</ele>
        <time>2014-04-23T07:19:37Z</time>
      </trkpt>
      <trkpt lat="47.02461" lon="5.44228">
        <ele>193</ele>
        <time>2014-04-23T07:19:41Z</time>
      </trkpt>
      <trkpt lat="47.02457" lon="5.44223">
        <ele>194</ele>
        <time>2014-04-23T07:19:44Z</time>
      </trkpt>
      <trkpt lat="47.02452" lon="5.44218">
        <ele>194</ele>
        <time>2014-04-23T07:19:49Z</time>
      </trkpt>
      <trkpt lat="47.02448" lon="5.44213">
        <ele>195</ele>
        <time>2014-04-23T07:19:53Z</time>
      </trkpt>
      <trkpt lat="47.02443" lon="5.44209">
        <ele>195</ele>
        <time>2014-04-23T07:19:57Z</time>
      </trkpt>
      <trkpt lat="47.02439" lon="5.44207">
        <ele>195</ele>
        <time>2014-04-23T07:20:01Z</time>
      </trkpt>
      <trkpt lat="47.02433" lon="5.44205">
        <ele>195</ele>
        <time>2014-04-23T07:20:05Z</time>
      </trkpt>
      <trkpt lat="47.02428" lon="5.44202">
        <ele>195</ele>
        <time>2014-04-23T07:20:08Z</time>
      </trkpt>
      <trkpt lat="47.02423" lon="5.44199">
        <ele>195</ele>
        <time>2014-04-23T07:20:12Z</time>
      </trkpt>
      <trkpt lat="47.02417" lon="5.44198">
        <ele>195</ele>
        <time>2014-04-23T07:20:16Z</time>
      </trkpt>
      <trkpt lat="47.02412" lon="5.44197">
        <ele>195</ele>
        <time>2014-04-23T07:20:19Z</time>
      </trkpt>
      <trkpt lat="47.02407" lon="5.442">
        <ele>196</ele>
        <time>2014-04-23T07:20:23Z</time>
      </trkpt>
      <trkpt lat="47.02403" lon="5.44205">
        <ele>196</ele>
        <time>2014-04-23T07:20:27Z</time>
      </trkpt>
      <trkpt lat="47.02398" lon="5.44208">
        <ele>196</ele>
        <time>2014-04-23T07:20:32Z</time>
      </trkpt>
      <trkpt lat="47.02393" lon="5.44211">
        <ele>196</ele>
        <time>2014-04-23T07:20:35Z</time>
      </trkpt>
      <trkpt lat="47.02388" lon="5.44212">
        <ele>196</ele>
        <time>2014-04-23T07:20:39Z</time>
      </trkpt>
      <trkpt lat="47.02382" lon="5.44213">
        <ele>196</ele>
        <time>2014-04-23T07:20:44Z</time>
      </trkpt>
      <trkpt lat="47.02373" lon="5.44213">
        <ele>196</ele>
        <time>2014-04-23T07:20:50Z</time>
      </trkpt>
      <trkpt lat="47.02363" lon="5.44217">
        <ele>196</ele>
        <time>2014-04-23T07:20:57Z</time>
      </trkpt>
      <trkpt lat="47.02358" lon="5.44221">
        <ele>196</ele>
        <time>2014-04-23T07:21:01Z</time>
      </trkpt>
      <trkpt lat="47.02354" lon="5.44225">
        <ele>196</ele>
        <time>2014-04-23T07:21:06Z</time>
      </trkpt>
      <trkpt lat="47.02348" lon="5.44226">
        <ele>197</ele>
        <time>2014-04-23T07:21:10Z</time>
      </trkpt>
      <trkpt lat="47.02344" lon="5.44227">
        <ele>197</ele>
        <time>2014-04-23T07:21:13Z</time>
      </trkpt>
      <trkpt lat="47.02339" lon="5.44227">
        <ele>197</ele>
        <time>2014-04-23T07:21:15Z</time>
      </trkpt>
      <trkpt lat="47.02334" lon="5.44228">
        <ele>197</ele>
        <time>2014-04-23T07:21:19Z</time>
      </trkpt>
      <trkpt lat="47.02327" lon="5.44227">
        <ele>199</ele>
        <time>2014-04-23T07:21:24Z</time>
      </trkpt>
      <trkpt lat="47.02322" lon="5.44228">
        <ele>199</ele>
        <time>2014-04-23T07:21:27Z</time>
      </trkpt>
      <trkpt lat="47.02317" lon="5.44229">
        <ele>199</ele>
        <time>2014-04-23T07:21:30Z</time>
      </trkpt>
      <trkpt lat="47.02313" lon="5.44229">
        <ele>199</ele>
        <time>2014-04-23T07:21:33Z</time>
      </trkpt>
      <trkpt lat="47.02308" lon="5.4423">
        <ele>199</ele>
        <time>2014-04-23T07:21:37Z</time>
      </trkpt>
      <trkpt lat="47.02303" lon="5.4423">
        <ele>198</ele>
        <time>2014-04-23T07:21:40Z</time>
      </trkpt>
      <trkpt lat="47.02297" lon="5.4423">
        <ele>198</ele>
        <time>2014-04-23T07:21:43Z</time>
      </trkpt>
      <trkpt lat="47.02291" lon="5.44231">
        <ele>198</ele>
        <time>2014-04-23T07:21:48Z</time>
      </trkpt>
      <trkpt lat="47.02286" lon="5.44233">
        <ele>198</ele>
        <time>2014-04-23T07:21:52Z</time>
      </trkpt>
      <trkpt lat="47.02281" lon="5.44235">
        <ele>198</ele>
        <time>2014-04-23T07:21:56Z</time>
      </trkpt>
      <trkpt lat="47.02276" lon="5.44236">
        <ele>198</ele>
        <time>2014-04-23T07:22:00Z</time>
      </trkpt>
      <trkpt lat="47.02271" lon="5.44237">
        <ele>199</ele>
        <time>2014-04-23T07:22:04Z</time>
      </trkpt>
      <trkpt lat="47.02265" lon="5.44237">
        <ele>200</ele>
        <time>2014-04-23T07:22:06Z</time>
      </trkpt>
      <trkpt lat="47.0226" lon="5.44237">
        <ele>200</ele>
        <time>2014-04-23T07:22:10Z</time>
      </trkpt>
      <trkpt lat="47.02255" lon="5.44237">
        <ele>200</ele>
        <time>2014-04-23T07:22:12Z</time>
      </trkpt>
      <trkpt lat="47.0225" lon="5.44238">
        <ele>200</ele>
        <time>2014-04-23T07:22:16Z</time>
      </trkpt>
      <trkpt lat="47.02249" lon="5.44244">
        <ele>200</ele>
        <time>2014-04-23T07:22:18Z</time>
      </trkpt>
      <trkpt lat="47.0224" lon="5.44249">
        <ele>198</ele>
        <time>2014-04-23T07:22:24Z</time>
      </trkpt>
      <trkpt lat="47.0223" lon="5.44247">
        <ele>197</ele>
        <time>2014-04-23T07:22:31Z</time>
      </trkpt>
      <trkpt lat="47.02224" lon="5.4425">
        <ele>197</ele>
        <time>2014-04-23T07:22:37Z</time>
      </trkpt>
      <trkpt lat="47.02223" lon="5.44258">
        <ele>196</ele>
        <time>2014-04-23T07:22:42Z</time>
      </trkpt>
      <trkpt lat="47.02219" lon="5.44262">
        <ele>196</ele>
        <time>2014-04-23T07:22:45Z</time>
      </trkpt>
      <trkpt lat="47.02214" lon="5.44264">
        <ele>196</ele>
        <time>2014-04-23T07:22:50Z</time>
      </trkpt>
      <trkpt lat="47.02209" lon="5.44265">
        <ele>195</ele>
        <time>2014-04-23T07:22:55Z</time>
      </trkpt>
      <trkpt lat="47.02205" lon="5.44263">
        <ele>195</ele>
        <time>2014-04-23T07:22:58Z</time>
      </trkpt>
      <trkpt lat="47.02199" lon="5.44263">
        <ele>196</ele>
        <time>2014-04-23T07:23:02Z</time>
      </trkpt>
      <trkpt lat="47.02195" lon="5.44265">
        <ele>196</ele>
        <time>2014-04-23T07:23:06Z</time>
      </trkpt>
      <trkpt lat="47.0219" lon="5.44265">
        <ele>195</ele>
        <time>2014-04-23T07:23:09Z</time>
      </trkpt>
      <trkpt lat="47.02185" lon="5.44267">
        <ele>195</ele>
        <time>2014-04-23T07:23:13Z</time>
      </trkpt>
      <trkpt lat="47.0218" lon="5.44269">
        <ele>195</ele>
        <time>2014-04-23T07:23:17Z</time>
      </trkpt>
      <trkpt lat="47.02175" lon="5.44269">
        <ele>195</ele>
        <time>2014-04-23T07:23:20Z</time>
      </trkpt>
      <trkpt lat="47.02171" lon="5.44273">
        <ele>195</ele>
        <time>2014-04-23T07:23:24Z</time>
      </trkpt>
      <trkpt lat="47.02166" lon="5.44273">
        <ele>196</ele>
        <time>2014-04-23T07:23:28Z</time>
      </trkpt>
      <trkpt lat="47.02161" lon="5.44274">
        <ele>196</ele>
        <time>2014-04-23T07:23:32Z</time>
      </trkpt>
      <trkpt lat="47.02155" lon="5.44272">
        <ele>196</ele>
        <time>2014-04-23T07:23:36Z</time>
      </trkpt>
      <trkpt lat="47.0215" lon="5.44269">
        <ele>197</ele>
        <time>2014-04-23T07:23:40Z</time>
      </trkpt>
      <trkpt lat="47.02147" lon="5.44263">
        <ele>196</ele>
        <time>2014-04-23T07:23:46Z</time>
      </trkpt>
      <trkpt lat="47.02144" lon="5.44257">
        <ele>195</ele>
        <time>2014-04-23T07:23:51Z</time>
      </trkpt>
      <trkpt lat="47.02142" lon="5.44251">
        <ele>194</ele>
        <time>2014-04-23T07:23:55Z</time>
      </trkpt>
      <trkpt lat="47.0214" lon="5.44244">
        <ele>194</ele>
        <time>2014-04-23T07:24:00Z</time>
      </trkpt>
      <trkpt lat="47.02137" lon="5.44236">
        <ele>193</ele>
        <time>2014-04-23T07:24:03Z</time>
      </trkpt>
      <trkpt lat="47.02134" lon="5.44229">
        <ele>193</ele>
        <time>2014-04-23T07:24:08Z</time>
      </trkpt>
      <trkpt lat="47.02131" lon="5.44221">
        <ele>193</ele>
        <time>2014-04-23T07:24:12Z</time>
      </trkpt>
      <trkpt lat="47.02128" lon="5.44215">
        <ele>192</ele>
        <time>2014-04-23T07:24:16Z</time>
      </trkpt>
      <trkpt lat="47.02126" lon="5.44209">
        <ele>192</ele>
        <time>2014-04-23T07:24:21Z</time>
      </trkpt>
      <trkpt lat="47.02126" lon="5.44201">
        <ele>193</ele>
        <time>2014-04-23T07:24:26Z</time>
      </trkpt>
      <trkpt lat="47.02125" lon="5.44194">
        <ele>193</ele>
        <time>2014-04-23T07:24:28Z</time>
      </trkpt>
      <trkpt lat="47.02124" lon="5.44187">
        <ele>193</ele>
        <time>2014-04-23T07:24:33Z</time>
      </trkpt>
      <trkpt lat="47.02123" lon="5.44179">
        <ele>193</ele>
        <time>2014-04-23T07:24:36Z</time>
      </trkpt>
      <trkpt lat="47.02121" lon="5.44166">
        <ele>193</ele>
        <time>2014-04-23T07:24:43Z</time>
      </trkpt>
      <trkpt lat="47.0212" lon="5.44152">
        <ele>194</ele>
        <time>2014-04-23T07:24:49Z</time>
      </trkpt>
      <trkpt lat="47.02122" lon="5.44138">
        <ele>194</ele>
        <time>2014-04-23T07:24:56Z</time>
      </trkpt>
      <trkpt lat="47.02125" lon="5.44125">
        <ele>195</ele>
        <time>2014-04-23T07:25:03Z</time>
      </trkpt>
      <trkpt lat="47.02127" lon="5.44111">
        <ele>195</ele>
        <time>2014-04-23T07:25:11Z</time>
      </trkpt>
      <trkpt lat="47.02124" lon="5.44096">
        <ele>195</ele>
        <time>2014-04-23T07:25:20Z</time>
      </trkpt>
      <trkpt lat="47.02122" lon="5.44082">
        <ele>194</ele>
        <time>2014-04-23T07:25:28Z</time>
      </trkpt>
      <trkpt lat="47.02121" lon="5.44067">
        <ele>194</ele>
        <time>2014-04-23T07:25:37Z</time>
      </trkpt>
      <trkpt lat="47.02118" lon="5.44055">
        <ele>194</ele>
        <time>2014-04-23T07:25:44Z</time>
      </trkpt>
      <trkpt lat="47.02114" lon="5.44042">
        <ele>194</ele>
        <time>2014-04-23T07:25:52Z</time>
      </trkpt>
      <trkpt lat="47.0211" lon="5.4403">
        <ele>195</ele>
        <time>2014-04-23T07:26:00Z</time>
      </trkpt>
      <trkpt lat="47.02103" lon="5.4402">
        <ele>194</ele>
        <time>2014-04-23T07:26:09Z</time>
      </trkpt>
      <trkpt lat="47.02098" lon="5.44008">
        <ele>192</ele>
        <time>2014-04-23T07:26:20Z</time>
      </trkpt>
      <trkpt lat="47.02097" lon="5.43993">
        <ele>193</ele>
        <time>2014-04-23T07:26:27Z</time>
      </trkpt>
      <trkpt lat="47.02098" lon="5.43978">
        <ele>193</ele>
        <time>2014-04-23T07:26:34Z</time>
      </trkpt>
      <trkpt lat="47.021" lon="5.43964">
        <ele>193</ele>
        <time>2014-04-23T07:26:44Z</time>
      </trkpt>
      <trkpt lat="47.02105" lon="5.43952">
        <ele>193</ele>
        <time>2014-04-23T07:26:54Z</time>
      </trkpt>
      <trkpt lat="47.02114" lon="5.43948">
        <ele>194</ele>
        <time>2014-04-23T07:27:02Z</time>
      </trkpt>
      <trkpt lat="47.02123" lon="5.43946">
        <ele>194</ele>
        <time>2014-04-23T07:27:09Z</time>
      </trkpt>
      <trkpt lat="47.02133" lon="5.43943">
        <ele>195</ele>
        <time>2014-04-23T07:27:17Z</time>
      </trkpt>
      <trkpt lat="47.02141" lon="5.43939">
        <ele>195</ele>
        <time>2014-04-23T07:27:24Z</time>
      </trkpt>
      <trkpt lat="47.02151" lon="5.43938">
        <ele>196</ele>
        <time>2014-04-23T07:27:33Z</time>
      </trkpt>
      <trkpt lat="47.0216" lon="5.43938">
        <ele>196</ele>
        <time>2014-04-23T07:27:42Z</time>
      </trkpt>
      <trkpt lat="47.02169" lon="5.43937">
        <ele>196</ele>
        <time>2014-04-23T07:27:49Z</time>
      </trkpt>
      <trkpt lat="47.02179" lon="5.43937">
        <ele>197</ele>
        <time>2014-04-23T07:27:58Z</time>
      </trkpt>
      <trkpt lat="47.02188" lon="5.43938">
        <ele>197</ele>
        <time>2014-04-23T07:28:05Z</time>
      </trkpt>
      <trkpt lat="47.02198" lon="5.4394">
        <ele>198</ele>
        <time>2014-04-23T07:28:14Z</time>
      </trkpt>
      <trkpt lat="47.02207" lon="5.43942">
        <ele>197</ele>
        <time>2014-04-23T07:28:22Z</time>
      </trkpt>
      <trkpt lat="47.02214" lon="5.4395">
        <ele>196</ele>
        <time>2014-04-23T07:28:28Z</time>
      </trkpt>
      <trkpt lat="47.02223" lon="5.43957">
        <ele>196</ele>
        <time>2014-04-23T07:28:37Z</time>
      </trkpt>
      <trkpt lat="47.02231" lon="5.43964">
        <ele>196</ele>
        <time>2014-04-23T07:28:42Z</time>
      </trkpt>
      <trkpt lat="47.02239" lon="5.43971">
        <ele>196</ele>
        <time>2014-04-23T07:28:50Z</time>
      </trkpt>
      <trkpt lat="47.02246" lon="5.4398">
        <ele>197</ele>
        <time>2014-04-23T07:29:00Z</time>
      </trkpt>
      <trkpt lat="47.02254" lon="5.43987">
        <ele>197</ele>
        <time>2014-04-23T07:29:10Z</time>
      </trkpt>
      <trkpt lat="47.02262" lon="5.43996">
        <ele>198</ele>
        <time>2014-04-23T07:29:17Z</time>
      </trkpt>
      <trkpt lat="47.0227" lon="5.44002">
        <ele>197</ele>
        <time>2014-04-23T07:29:27Z</time>
      </trkpt>
      <trkpt lat="47.02276" lon="5.44012">
        <ele>197</ele>
        <time>2014-04-23T07:29:35Z</time>
      </trkpt>
      <trkpt lat="47.02282" lon="5.44024">
        <ele>196</ele>
        <time>2014-04-23T07:29:45Z</time>
      </trkpt>
      <trkpt lat="47.0229" lon="5.44033">
        <ele>196</ele>
        <time>2014-04-23T07:29:53Z</time>
      </trkpt>
      <trkpt lat="47.02299" lon="5.44039">
        <ele>196</ele>
        <time>2014-04-23T07:30:01Z</time>
      </trkpt>
      <trkpt lat="47.02305" lon="5.44048">
        <ele>196</ele>
        <time>2014-04-23T07:30:08Z</time>
      </trkpt>
      <trkpt lat="47.02312" lon="5.44059">
        <ele>196</ele>
        <time>2014-04-23T07:30:16Z</time>
      </trkpt>
      <trkpt lat="47.02314" lon="5.44074">
        <ele>196</ele>
        <time>2014-04-23T07:30:22Z</time>
      </trkpt>
      <trkpt lat="47.02319" lon="5.44085">
        <ele>198</ele>
        <time>2014-04-23T07:30:32Z</time>
      </trkpt>
      <trkpt lat="47.02321" lon="5.44098">
        <ele>197</ele>
        <time>2014-04-23T07:30:40Z</time>
      </trkpt>
      <trkpt lat="47.0232" lon="5.44106">
        <ele>197</ele>
        <time>2014-04-23T07:30:43Z</time>
      </trkpt>
      <trkpt lat="47.02321" lon="5.44113">
        <ele>196</ele>
        <time>2014-04-23T07:30:48Z</time>
      </trkpt>
      <trkpt lat="47.02321" lon="5.4412">
        <ele>196</ele>
        <time>2014-04-23T07:30:52Z</time>
      </trkpt>
      <trkpt lat="47.02321" lon="5.44128">
        <ele>196</ele>
        <time>2014-04-23T07:30:56Z</time>
      </trkpt>
      <trkpt lat="47.02321" lon="5.44135">
        <ele>196</ele>
        <time>2014-04-23T07:31:00Z</time>
      </trkpt>
      <trkpt lat="47.02321" lon="5.44143">
        <ele>196</ele>
        <time>2014-04-23T07:31:05Z</time>
      </trkpt>
      <trkpt lat="47.02321" lon="5.4415">
        <ele>196</ele>
        <time>2014-04-23T07:31:09Z</time>
      </trkpt>
      <trkpt lat="47.02321" lon="5.44158">
        <ele>196</ele>
        <time>2014-04-23T07:31:13Z</time>
      </trkpt>
      <trkpt lat="47.02323" lon="5.44165">
        <ele>196</ele>
        <time>2014-04-23T07:31:17Z</time>
      </trkpt>
      <trkpt lat="47.02324" lon="5.44172">
        <ele>196</ele>
        <time>2014-04-23T07:31:20Z</time>
      </trkpt>
      <trkpt lat="47.02326" lon="5.44178">
        <ele>197</ele>
        <time>2014-04-23T07:31:24Z</time>
      </trkpt>
      <trkpt lat="47.02327" lon="5.44185">
        <ele>196</ele>
        <time>2014-04-23T07:31:28Z</time>
      </trkpt>
      <trkpt lat="47.02331" lon="5.44196">
        <ele>196</ele>
        <time>2014-04-23T07:31:35Z</time>
      </trkpt>
      <trkpt lat="47.02333" lon="5.44207">
        <ele>196</ele>
        <time>2014-04-23T07:31:41Z</time>
      </trkpt>
      <trkpt lat="47.02334" lon="5.44215">
        <ele>196</ele>
        <time>2014-04-23T07:31:46Z</time>
      </trkpt>
      <trkpt lat="47.02337" lon="5.44216">
        <ele>197</ele>
        <time>2014-04-23T07:31:54Z</time>
      </trkpt>
      <trkpt lat="47.02341" lon="5.44215">
        <ele>196</ele>
        <time>2014-04-23T07:32:38Z</time>
      </trkpt>
      <trkpt lat="47.02347" lon="5.44216">
        <ele>196</ele>
        <time>2014-04-23T07:32:41Z</time>
      </trkpt>
      <trkpt lat="47.02353" lon="5.44217">
        <ele>196</ele>
        <time>2014-04-23T07:32:44Z</time>
      </trkpt>
      <trkpt lat="47.02358" lon="5.44216">
        <ele>196</ele>
        <time>2014-04-23T07:32:47Z</time>
      </trkpt>
      <trkpt lat="47.02363" lon="5.44216">
        <ele>196</ele>
        <time>2014-04-23T07:32:50Z</time>
      </trkpt>
      <trkpt lat="47.02368" lon="5.44215">
        <ele>196</ele>
        <time>2014-04-23T07:32:53Z</time>
      </trkpt>
      <trkpt lat="47.02373" lon="5.44214">
        <ele>196</ele>
        <time>2014-04-23T07:32:55Z</time>
      </trkpt>
      <trkpt lat="47.02378" lon="5.44213">
        <ele>196</ele>
        <time>2014-04-23T07:33:00Z</time>
      </trkpt>
      <trkpt lat="47.02384" lon="5.44212">
        <ele>196</ele>
        <time>2014-04-23T07:33:04Z</time>
      </trkpt>
      <trkpt lat="47.02389" lon="5.44213">
        <ele>197</ele>
        <time>2014-04-23T07:33:07Z</time>
      </trkpt>
      <trkpt lat="47.02394" lon="5.44211">
        <ele>196</ele>
        <time>2014-04-23T07:33:13Z</time>
      </trkpt>
      <trkpt lat="47.02399" lon="5.44209">
        <ele>196</ele>
        <time>2014-04-23T07:33:18Z</time>
      </trkpt>
      <trkpt lat="47.02405" lon="5.44208">
        <ele>196</ele>
        <time>2014-04-23T07:33:23Z</time>
      </trkpt>
      <trkpt lat="47.0241" lon="5.44208">
        <ele>196</ele>
        <time>2014-04-23T07:33:27Z</time>
      </trkpt>
      <trkpt lat="47.02414" lon="5.44208">
        <ele>197</ele>
        <time>2014-04-23T07:33:31Z</time>
      </trkpt>
      <trkpt lat="47.02424" lon="5.44208">
        <ele>197</ele>
        <time>2014-04-23T07:33:39Z</time>
      </trkpt>
      <trkpt lat="47.02429" lon="5.44208">
        <ele>197</ele>
        <time>2014-04-23T07:33:42Z</time>
      </trkpt>
      <trkpt lat="47.02435" lon="5.44207">
        <ele>198</ele>
        <time>2014-04-23T07:33:47Z</time>
      </trkpt>
      <trkpt lat="47.02439" lon="5.44201">
        <ele>198</ele>
        <time>2014-04-23T07:33:51Z</time>
      </trkpt>
      <trkpt lat="47.02438" lon="5.44194">
        <ele>198</ele>
        <time>2014-04-23T07:33:55Z</time>
      </trkpt>
      <trkpt lat="47.02436" lon="5.44187">
        <ele>198</ele>
        <time>2014-04-23T07:33:59Z</time>
      </trkpt>
      <trkpt lat="47.02433" lon="5.44181">
        <ele>198</ele>
        <time>2014-04-23T07:34:02Z</time>
      </trkpt>
      <trkpt lat="47.0243" lon="5.44175">
        <ele>198</ele>
        <time>2014-04-23T07:34:07Z</time>
      </trkpt>
      <trkpt lat="47.02426" lon="5.44169">
        <ele>198</ele>
        <time>2014-04-23T07:34:10Z</time>
      </trkpt>
      <trkpt lat="47.02422" lon="5.44165">
        <ele>197</ele>
        <time>2014-04-23T07:34:14Z</time>
      </trkpt>
      <trkpt lat="47.02418" lon="5.44161">
        <ele>197</ele>
        <time>2014-04-23T07:34:17Z</time>
      </trkpt>
      <trkpt lat="47.02414" lon="5.44156">
        <ele>197</ele>
        <time>2014-04-23T07:34:22Z</time>
      </trkpt>
      <trkpt lat="47.02411" lon="5.4415">
        <ele>197</ele>
        <time>2014-04-23T07:34:26Z</time>
      </trkpt>
      <trkpt lat="47.02407" lon="5.44143">
        <ele>196</ele>
        <time>2014-04-23T07:34:30Z</time>
      </trkpt>
      <trkpt lat="47.02404" lon="5.44136">
        <ele>197</ele>
        <time>2014-04-23T07:34:34Z</time>
      </trkpt>
      <trkpt lat="47.02401" lon="5.44131">
        <ele>196</ele>
        <time>2014-04-23T07:34:38Z</time>
      </trkpt>
      <trkpt lat="47.02398" lon="5.44124">
        <ele>196</ele>
        <time>2014-04-23T07:34:42Z</time>
      </trkpt>
      <trkpt lat="47.02395" lon="5.44118">
        <ele>196</ele>
        <time>2014-04-23T07:34:46Z</time>
      </trkpt>
      <trkpt lat="47.02392" lon="5.44112">
        <ele>196</ele>
        <time>2014-04-23T07:34:49Z</time>
      </trkpt>
      <trkpt lat="47.02388" lon="5.44107">
        <ele>196</ele>
        <time>2014-04-23T07:34:55Z</time>
      </trkpt>
      <trkpt lat="47.02384" lon="5.44102">
        <ele>196</ele>
        <time>2014-04-23T07:34:59Z</time>
      </trkpt>
      <trkpt lat="47.0238" lon="5.44095">
        <ele>195</ele>
        <time>2014-04-23T07:35:05Z</time>
      </trkpt>
      <trkpt lat="47.02378" lon="5.44089">
        <ele>195</ele>
        <time>2014-04-23T07:35:08Z</time>
      </trkpt>
      <trkpt lat="47.02375" lon="5.44083">
        <ele>195</ele>
        <time>2014-04-23T07:35:12Z</time>
      </trkpt>
      <trkpt lat="47.02373" lon="5.44077">
        <ele>195</ele>
        <time>2014-04-23T07:35:16Z</time>
      </trkpt>
      <trkpt lat="47.02369" lon="5.44072">
        <ele>195</ele>
        <time>2014-04-23T07:35:20Z</time>
      </trkpt>
      <trkpt lat="47.02366" lon="5.44065">
        <ele>195</ele>
        <time>2014-04-23T07:35:25Z</time>
      </trkpt>
      <trkpt lat="47.02364" lon="5.44057">
        <ele>195</ele>
        <time>2014-04-23T07:35:30Z</time>
      </trkpt>
      <trkpt lat="47.02362" lon="5.44051">
        <ele>195</ele>
        <time>2014-04-23T07:35:33Z</time>
      </trkpt>
      <trkpt lat="47.02359" lon="5.44045">
        <ele>195</ele>
        <time>2014-04-23T07:35:36Z</time>
      </trkpt>
      <trkpt lat="47.02356" lon="5.44038">
        <ele>195</ele>
        <time>2014-04-23T07:35:40Z</time>
      </trkpt>
      <trkpt lat="47.02353" lon="5.44031">
        <ele>195</ele>
        <time>2014-04-23T07:35:44Z</time>
      </trkpt>
      <trkpt lat="47.0235" lon="5.44025">
        <ele>195</ele>
        <time>2014-04-23T07:35:49Z</time>
      </trkpt>
      <trkpt lat="47.02347" lon="5.44018">
        <ele>195</ele>
        <time>2014-04-23T07:35:52Z</time>
      </trkpt>
      <trkpt lat="47.02344" lon="5.44013">
        <ele>195</ele>
        <time>2014-04-23T07:35:56Z</time>
      </trkpt>
      <trkpt lat="47.02341" lon="5.44008">
        <ele>195</ele>
        <time>2014-04-23T07:36:00Z</time>
      </trkpt>
      <trkpt lat="47.02338" lon="5.44001">
        <ele>195</ele>
        <time>2014-04-23T07:36:04Z</time>
      </trkpt>
      <trkpt lat="47.02336" lon="5.43995">
        <ele>196</ele>
        <time>2014-04-23T07:36:08Z</time>
      </trkpt>
      <trkpt lat="47.02333" lon="5.4399">
        <ele>196</ele>
        <time>2014-04-23T07:36:10Z</time>
      </trkpt>
      <trkpt lat="47.0233" lon="5.43985">
        <ele>196</ele>
        <time>2014-04-23T07:36:14Z</time>
      </trkpt>
      <trkpt lat="47.02326" lon="5.43982">
        <ele>196</ele>
        <time>2014-04-23T07:36:17Z</time>
      </trkpt>
      <trkpt lat="47.02321" lon="5.43979">
        <ele>196</ele>
        <time>2014-04-23T07:36:21Z</time>
      </trkpt>
      <trkpt lat="47.02318" lon="5.43974">
        <ele>197</ele>
        <time>2014-04-23T07:36:25Z</time>
      </trkpt>
      <trkpt lat="47.02313" lon="5.43971">
        <ele>197</ele>
        <time>2014-04-23T07:36:31Z</time>
      </trkpt>
      <trkpt lat="47.0231" lon="5.43964">
        <ele>197</ele>
        <time>2014-04-23T07:36:35Z</time>
      </trkpt>
      <trkpt lat="47.02302" lon="5.43955">
        <ele>197</ele>
        <time>2014-04-23T07:36:40Z</time>
      </trkpt>
      <trkpt lat="47.02298" lon="5.43949">
        <ele>198</ele>
        <time>2014-04-23T07:36:43Z</time>
      </trkpt>
      <trkpt lat="47.02293" lon="5.43944">
        <ele>198</ele>
        <time>2014-04-23T07:36:48Z</time>
      </trkpt>
      <trkpt lat="47.02287" lon="5.43941">
        <ele>198</ele>
        <time>2014-04-23T07:36:51Z</time>
      </trkpt>
      <trkpt lat="47.02283" lon="5.4394">
        <ele>198</ele>
        <time>2014-04-23T07:36:55Z</time>
      </trkpt>
      <trkpt lat="47.0228" lon="5.43948">
        <ele>196</ele>
        <time>2014-04-23T07:37:00Z</time>
      </trkpt>
      <trkpt lat="47.02276" lon="5.43952">
        <ele>197</ele>
        <time>2014-04-23T07:37:03Z</time>
      </trkpt>
      <trkpt lat="47.0227" lon="5.43943">
        <ele>197</ele>
        <time>2014-04-23T07:37:06Z</time>
      </trkpt>
      <trkpt lat="47.02263" lon="5.43936">
        <ele>197</ele>
        <time>2014-04-23T07:37:13Z</time>
      </trkpt>
      <trkpt lat="47.02257" lon="5.43931">
        <ele>197</ele>
        <time>2014-04-23T07:37:18Z</time>
      </trkpt>
      <trkpt lat="47.02253" lon="5.43928">
        <ele>197</ele>
        <time>2014-04-23T07:37:22Z</time>
      </trkpt>
      <trkpt lat="47.02248" lon="5.43924">
        <ele>197</ele>
        <time>2014-04-23T07:37:26Z</time>
      </trkpt>
      <trkpt lat="47.02242" lon="5.4392">
        <ele>197</ele>
        <time>2014-04-23T07:37:30Z</time>
      </trkpt>
      <trkpt lat="47.02238" lon="5.43919">
        <ele>197</ele>
        <time>2014-04-23T07:37:34Z</time>
      </trkpt>
      <trkpt lat="47.02233" lon="5.43918">
        <ele>197</ele>
        <time>2014-04-23T07:37:38Z</time>
      </trkpt>
      <trkpt lat="47.02227" lon="5.43915">
        <ele>196</ele>
        <time>2014-04-23T07:37:41Z</time>
      </trkpt>
      <trkpt lat="47.02222" lon="5.43912">
        <ele>196</ele>
        <time>2014-04-23T07:37:45Z</time>
      </trkpt>
      <trkpt lat="47.02217" lon="5.43911">
        <ele>195</ele>
        <time>2014-04-23T07:37:50Z</time>
      </trkpt>
      <trkpt lat="47.02212" lon="5.43907">
        <ele>196</ele>
        <time>2014-04-23T07:37:52Z</time>
      </trkpt>
      <trkpt lat="47.02207" lon="5.43904">
        <ele>196</ele>
        <time>2014-04-23T07:37:57Z</time>
      </trkpt>
      <trkpt lat="47.02202" lon="5.43902">
        <ele>196</ele>
        <time>2014-04-23T07:38:01Z</time>
      </trkpt>
      <trkpt lat="47.02198" lon="5.43898">
        <ele>196</ele>
        <time>2014-04-23T07:38:04Z</time>
      </trkpt>
      <trkpt lat="47.02193" lon="5.43894">
        <ele>196</ele>
        <time>2014-04-23T07:38:08Z</time>
      </trkpt>
      <trkpt lat="47.02189" lon="5.43891">
        <ele>196</ele>
        <time>2014-04-23T07:38:12Z</time>
      </trkpt>
      <trkpt lat="47.02185" lon="5.43887">
        <ele>196</ele>
        <time>2014-04-23T07:38:15Z</time>
      </trkpt>
      <trkpt lat="47.02179" lon="5.43876">
        <ele>196</ele>
        <time>2014-04-23T07:38:24Z</time>
      </trkpt>
      <trkpt lat="47.02173" lon="5.43865">
        <ele>195</ele>
        <time>2014-04-23T07:38:35Z</time>
      </trkpt>
      <trkpt lat="47.0217" lon="5.43852">
        <ele>194</ele>
        <time>2014-04-23T07:38:44Z</time>
      </trkpt>
      <trkpt lat="47.02165" lon="5.4384">
        <ele>194</ele>
        <time>2014-04-23T07:38:50Z</time>
      </trkpt>
      <trkpt lat="47.0216" lon="5.43828">
        <ele>194</ele>
        <time>2014-04-23T07:38:59Z</time>
      </trkpt>
      <trkpt lat="47.02155" lon="5.43817">
        <ele>193</ele>
        <time>2014-04-23T07:39:06Z</time>
      </trkpt>
      <trkpt lat="47.0215" lon="5.43804">
        <ele>193</ele>
        <time>2014-04-23T07:39:11Z</time>
      </trkpt>
      <trkpt lat="47.02145" lon="5.43791">
        <ele>193</ele>
        <time>2014-04-23T07:39:16Z</time>
      </trkpt>
      <trkpt lat="47.02144" lon="5.43783">
        <ele>194</ele>
        <time>2014-04-23T07:39:19Z</time>
      </trkpt>
      <trkpt lat="47.0214" lon="5.4377">
        <ele>194</ele>
        <time>2014-04-23T07:39:24Z</time>
      </trkpt>
      <trkpt lat="47.02136" lon="5.43757">
        <ele>194</ele>
        <time>2014-04-23T07:39:32Z</time>
      </trkpt>
      <trkpt lat="47.02133" lon="5.43746">
        <ele>195</ele>
        <time>2014-04-23T07:39:37Z</time>
      </trkpt>
      <trkpt lat="47.02128" lon="5.43733">
        <ele>195</ele>
        <time>2014-04-23T07:39:44Z</time>
      </trkpt>
      <trkpt lat="47.02126" lon="5.43725">
        <ele>195</ele>
        <time>2014-04-23T07:39:49Z</time>
      </trkpt>
      <trkpt lat="47.02122" lon="5.43712">
        <ele>195</ele>
        <time>2014-04-23T07:39:58Z</time>
      </trkpt>
      <trkpt lat="47.02117" lon="5.43701">
        <ele>195</ele>
        <time>2014-04-23T07:40:07Z</time>
      </trkpt>
      <trkpt lat="47.02113" lon="5.43688">
        <ele>195</ele>
        <time>2014-04-23T07:40:13Z</time>
      </trkpt>
      <trkpt lat="47.02111" lon="5.43679">
        <ele>195</ele>
        <time>2014-04-23T07:40:17Z</time>
      </trkpt>
      <trkpt lat="47.02106" lon="5.43673">
        <ele>195</ele>
        <time>2014-04-23T07:40:24Z</time>
      </trkpt>
      <trkpt lat="47.02103" lon="5.43667">
        <ele>195</ele>
        <time>2014-04-23T07:40:27Z</time>
      </trkpt>
      <trkpt lat="47.02101" lon="5.43661">
        <ele>195</ele>
        <time>2014-04-23T07:40:30Z</time>
      </trkpt>
      <trkpt lat="47.02097" lon="5.43647">
        <ele>195</ele>
        <time>2014-04-23T07:40:35Z</time>
      </trkpt>
      <trkpt lat="47.02095" lon="5.4364">
        <ele>195</ele>
        <time>2014-04-23T07:40:37Z</time>
      </trkpt>
      <trkpt lat="47.0209" lon="5.43627">
        <ele>195</ele>
        <time>2014-04-23T07:40:42Z</time>
      </trkpt>
      <trkpt lat="47.02094" lon="5.4362">
        <ele>194</ele>
        <time>2014-04-23T07:40:48Z</time>
      </trkpt>
      <trkpt lat="47.02099" lon="5.43618">
        <ele>194</ele>
        <time>2014-04-23T07:40:52Z</time>
      </trkpt>
      <trkpt lat="47.02104" lon="5.43617">
        <ele>194</ele>
        <time>2014-04-23T07:40:55Z</time>
      </trkpt>
      <trkpt lat="47.02113" lon="5.43614">
        <ele>194</ele>
        <time>2014-04-23T07:41:01Z</time>
      </trkpt>
      <trkpt lat="47.02119" lon="5.43611">
        <ele>194</ele>
        <time>2014-04-23T07:41:06Z</time>
      </trkpt>
      <trkpt lat="47.02124" lon="5.43608">
        <ele>194</ele>
        <time>2014-04-23T07:41:09Z</time>
      </trkpt>
      <trkpt lat="47.02128" lon="5.43603">
        <ele>194</ele>
        <time>2014-04-23T07:41:12Z</time>
      </trkpt>
      <trkpt lat="47.02128" lon="5.43595">
        <ele>194</ele>
        <time>2014-04-23T07:41:16Z</time>
      </trkpt>
      <trkpt lat="47.02127" lon="5.43588">
        <ele>194</ele>
        <time>2014-04-23T07:41:20Z</time>
      </trkpt>
      <trkpt lat="47.02126" lon="5.43582">
        <ele>194</ele>
        <time>2014-04-23T07:41:22Z</time>
      </trkpt>
      <trkpt lat="47.02123" lon="5.43576">
        <ele>194</ele>
        <time>2014-04-23T07:41:27Z</time>
      </trkpt>
      <trkpt lat="47.0212" lon="5.43571">
        <ele>195</ele>
        <time>2014-04-23T07:41:32Z</time>
      </trkpt>
      <trkpt lat="47.02115" lon="5.43571">
        <ele>195</ele>
        <time>2014-04-23T07:41:36Z</time>
      </trkpt>
      <trkpt lat="47.02109" lon="5.43572">
        <ele>195</ele>
        <time>2014-04-23T07:41:40Z</time>
      </trkpt>
      <trkpt lat="47.02105" lon="5.43574">
        <ele>195</ele>
        <time>2014-04-23T07:41:43Z</time>
      </trkpt>
      <trkpt lat="47.021" lon="5.43575">
        <ele>194</ele>
        <time>2014-04-23T07:41:47Z</time>
      </trkpt>
      <trkpt lat="47.02095" lon="5.43575">
        <ele>194</ele>
        <time>2014-04-23T07:41:51Z</time>
      </trkpt>
      <trkpt lat="47.0209" lon="5.43576">
        <ele>194</ele>
        <time>2014-04-23T07:41:56Z</time>
      </trkpt>
      <trkpt lat="47.02085" lon="5.4358">
        <ele>194</ele>
        <time>2014-04-23T07:42:01Z</time>
      </trkpt>
      <trkpt lat="47.02081" lon="5.43584">
        <ele>194</ele>
        <time>2014-04-23T07:42:06Z</time>
      </trkpt>
      <trkpt lat="47.02076" lon="5.43587">
        <ele>194</ele>
        <time>2014-04-23T07:42:11Z</time>
      </trkpt>
      <trkpt lat="47.02071" lon="5.43587">
        <ele>194</ele>
        <time>2014-04-23T07:42:15Z</time>
      </trkpt>
      <trkpt lat="47.02066" lon="5.43588">
        <ele>194</ele>
        <time>2014-04-23T07:42:19Z</time>
      </trkpt>
      <trkpt lat="47.0206" lon="5.43588">
        <ele>194</ele>
        <time>2014-04-23T07:42:23Z</time>
      </trkpt>
      <trkpt lat="47.02055" lon="5.43589">
        <ele>194</ele>
        <time>2014-04-23T07:42:27Z</time>
      </trkpt>
      <trkpt lat="47.0205" lon="5.4359">
        <ele>194</ele>
        <time>2014-04-23T07:42:31Z</time>
      </trkpt>
      <trkpt lat="47.02046" lon="5.43591">
        <ele>194</ele>
        <time>2014-04-23T07:42:35Z</time>
      </trkpt>
      <trkpt lat="47.02041" lon="5.43594">
        <ele>194</ele>
        <time>2014-04-23T07:42:40Z</time>
      </trkpt>
      <trkpt lat="47.02036" lon="5.43596">
        <ele>193</ele>
        <time>2014-04-23T07:42:45Z</time>
      </trkpt>
      <trkpt lat="47.02031" lon="5.43598">
        <ele>193</ele>
        <time>2014-04-23T07:42:50Z</time>
      </trkpt>
      <trkpt lat="47.02026" lon="5.436">
        <ele>193</ele>
        <time>2014-04-23T07:42:55Z</time>
      </trkpt>
      <trkpt lat="47.02022" lon="5.43602">
        <ele>193</ele>
        <time>2014-04-23T07:42:59Z</time>
      </trkpt>
      <trkpt lat="47.02017" lon="5.43604">
        <ele>193</ele>
        <time>2014-04-23T07:43:03Z</time>
      </trkpt>
      <trkpt lat="47.02012" lon="5.43607">
        <ele>194</ele>
        <time>2014-04-23T07:43:07Z</time>
      </trkpt>
      <trkpt lat="47.02008" lon="5.4361">
        <ele>194</ele>
        <time>2014-04-23T07:43:11Z</time>
      </trkpt>
      <trkpt lat="47.02003" lon="5.43611">
        <ele>194</ele>
        <time>2014-04-23T07:43:15Z</time>
      </trkpt>
      <trkpt lat="47.01998" lon="5.43611">
        <ele>194</ele>
        <time>2014-04-23T07:43:19Z</time>
      </trkpt>
      <trkpt lat="47.01994" lon="5.43614">
        <ele>194</ele>
        <time>2014-04-23T07:43:23Z</time>
      </trkpt>
      <trkpt lat="47.0199" lon="5.43619">
        <ele>194</ele>
        <time>2014-04-23T07:43:30Z</time>
      </trkpt>
      <trkpt lat="47.01985" lon="5.43618">
        <ele>194</ele>
        <time>2014-04-23T07:43:34Z</time>
      </trkpt>
      <trkpt lat="47.0198" lon="5.43617">
        <ele>194</ele>
        <time>2014-04-23T07:43:38Z</time>
      </trkpt>
      <trkpt lat="47.01975" lon="5.43619">
        <ele>194</ele>
        <time>2014-04-23T07:43:42Z</time>
      </trkpt>
      <trkpt lat="47.01971" lon="5.43621">
        <ele>194</ele>
        <time>2014-04-23T07:43:46Z</time>
      </trkpt>
      <trkpt lat="47.01966" lon="5.43623">
        <ele>194</ele>
        <time>2014-04-23T07:43:51Z</time>
      </trkpt>
      <trkpt lat="47.01962" lon="5.43622">
        <ele>194</ele>
        <time>2014-04-23T07:43:54Z</time>
      </trkpt>
      <trkpt lat="47.01957" lon="5.43625">
        <ele>194</ele>
        <time>2014-04-23T07:43:59Z</time>
      </trkpt>
      <trkpt lat="47.01953" lon="5.43627">
        <ele>194</ele>
        <time>2014-04-23T07:44:03Z</time>
      </trkpt>
      <trkpt lat="47.01948" lon="5.43629">
        <ele>194</ele>
        <time>2014-04-23T07:44:07Z</time>
      </trkpt>
      <trkpt lat="47.01944" lon="5.43634">
        <ele>193</ele>
        <time>2014-04-23T07:44:12Z</time>
      </trkpt>
      <trkpt lat="47.0194" lon="5.43637">
        <ele>193</ele>
        <time>2014-04-23T07:44:17Z</time>
      </trkpt>
      <trkpt lat="47.01934" lon="5.43638">
        <ele>194</ele>
        <time>2014-04-23T07:44:22Z</time>
      </trkpt>
      <trkpt lat="47.01929" lon="5.43641">
        <ele>193</ele>
        <time>2014-04-23T07:44:26Z</time>
      </trkpt>
      <trkpt lat="47.01924" lon="5.43642">
        <ele>193</ele>
        <time>2014-04-23T07:44:30Z</time>
      </trkpt>
      <trkpt lat="47.01918" lon="5.43643">
        <ele>193</ele>
        <time>2014-04-23T07:44:35Z</time>
      </trkpt>
      <trkpt lat="47.01915" lon="5.43648">
        <ele>194</ele>
        <time>2014-04-23T07:44:39Z</time>
      </trkpt>
      <trkpt lat="47.01913" lon="5.43654">
        <ele>194</ele>
        <time>2014-04-23T07:44:42Z</time>
      </trkpt>
      <trkpt lat="47.01911" lon="5.4366">
        <ele>193</ele>
        <time>2014-04-23T07:44:45Z</time>
      </trkpt>
      <trkpt lat="47.01905" lon="5.43662">
        <ele>193</ele>
        <time>2014-04-23T07:44:50Z</time>
      </trkpt>
      <trkpt lat="47.019" lon="5.43663">
        <ele>193</ele>
        <time>2014-04-23T07:44:54Z</time>
      </trkpt>
      <trkpt lat="47.01896" lon="5.43669">
        <ele>193</ele>
        <time>2014-04-23T07:44:59Z</time>
      </trkpt>
      <trkpt lat="47.01891" lon="5.43669">
        <ele>193</ele>
        <time>2014-04-23T07:45:04Z</time>
      </trkpt>
      <trkpt lat="47.01886" lon="5.4367">
        <ele>193</ele>
        <time>2014-04-23T07:45:08Z</time>
      </trkpt>
      <trkpt lat="47.01881" lon="5.43671">
        <ele>192</ele>
        <time>2014-04-23T07:45:13Z</time>
      </trkpt>
      <trkpt lat="47.01875" lon="5.43671">
        <ele>193</ele>
        <time>2014-04-23T07:45:18Z</time>
      </trkpt>
      <trkpt lat="47.0187" lon="5.43671">
        <ele>194</ele>
        <time>2014-04-23T07:45:22Z</time>
      </trkpt>
      <trkpt lat="47.01866" lon="5.43668">
        <ele>194</ele>
        <time>2014-04-23T07:45:24Z</time>
      </trkpt>
      <trkpt lat="47.01861" lon="5.43664">
        <ele>193</ele>
        <time>2014-04-23T07:45:28Z</time>
      </trkpt>
      <trkpt lat="47.01855" lon="5.4366">
        <ele>193</ele>
        <time>2014-04-23T07:45:32Z</time>
      </trkpt>
      <trkpt lat="47.0185" lon="5.43658">
        <ele>193</ele>
        <time>2014-04-23T07:45:36Z</time>
      </trkpt>
      <trkpt lat="47.01845" lon="5.43657">
        <ele>194</ele>
        <time>2014-04-23T07:45:39Z</time>
      </trkpt>
      <trkpt lat="47.0184" lon="5.43656">
        <ele>194</ele>
        <time>2014-04-23T07:45:46Z</time>
      </trkpt>
      <trkpt lat="47.01835" lon="5.43656">
        <ele>193</ele>
        <time>2014-04-23T07:45:50Z</time>
      </trkpt>
      <trkpt lat="47.0183" lon="5.43653">
        <ele>193</ele>
        <time>2014-04-23T07:45:55Z</time>
      </trkpt>
      <trkpt lat="47.01826" lon="5.43651">
        <ele>193</ele>
        <time>2014-04-23T07:46:05Z</time>
      </trkpt>
      <trkpt lat="47.01821" lon="5.43651">
        <ele>193</ele>
        <time>2014-04-23T07:46:26Z</time>
      </trkpt>
      <trkpt lat="47.01817" lon="5.4365">
        <ele>192</ele>
        <time>2014-04-23T07:46:31Z</time>
      </trkpt>
      <trkpt lat="47.01812" lon="5.43649">
        <ele>192</ele>
        <time>2014-04-23T07:46:35Z</time>
      </trkpt>
      <trkpt lat="47.01807" lon="5.43649">
        <ele>193</ele>
        <time>2014-04-23T07:46:39Z</time>
      </trkpt>
      <trkpt lat="47.01803" lon="5.43649">
        <ele>193</ele>
        <time>2014-04-23T07:46:44Z</time>
      </trkpt>
      <trkpt lat="47.01797" lon="5.43649">
        <ele>193</ele>
        <time>2014-04-23T07:46:48Z</time>
      </trkpt>
      <trkpt lat="47.01793" lon="5.43649">
        <ele>193</ele>
        <time>2014-04-23T07:46:53Z</time>
      </trkpt>
      <trkpt lat="47.01787" lon="5.43649">
        <ele>194</ele>
        <time>2014-04-23T07:46:57Z</time>
      </trkpt>
      <trkpt lat="47.01782" lon="5.43648">
        <ele>194</ele>
        <time>2014-04-23T07:47:00Z</time>
      </trkpt>
      <trkpt lat="47.01778" lon="5.43646">
        <ele>195</ele>
        <time>2014-04-23T07:47:05Z</time>
      </trkpt>
      <trkpt lat="47.01772" lon="5.43644">
        <ele>195</ele>
        <time>2014-04-23T07:47:09Z</time>
      </trkpt>
      <trkpt lat="47.01768" lon="5.4364">
        <ele>195</ele>
        <time>2014-04-23T07:47:12Z</time>
      </trkpt>
      <trkpt lat="47.01763" lon="5.43637">
        <ele>195</ele>
        <time>2014-04-23T07:47:16Z</time>
      </trkpt>
      <trkpt lat="47.01758" lon="5.43633">
        <ele>194</ele>
        <time>2014-04-23T07:47:21Z</time>
      </trkpt>
      <trkpt lat="47.01753" lon="5.4363">
        <ele>194</ele>
        <time>2014-04-23T07:47:28Z</time>
      </trkpt>
      <trkpt lat="47.01748" lon="5.43626">
        <ele>194</ele>
        <time>2014-04-23T07:47:32Z</time>
      </trkpt>
      <trkpt lat="47.01744" lon="5.43622">
        <ele>194</ele>
        <time>2014-04-23T07:47:37Z</time>
      </trkpt>
      <trkpt lat="47.0174" lon="5.43617">
        <ele>194</ele>
        <time>2014-04-23T07:47:41Z</time>
      </trkpt>
      <trkpt lat="47.01738" lon="5.43614">
        <ele>195</ele>
        <time>2014-04-23T07:47:49Z</time>
      </trkpt>
      <trkpt lat="47.01736" lon="5.43607">
        <ele>195</ele>
        <time>2014-04-23T07:47:54Z</time>
      </trkpt>
      <trkpt lat="47.01732" lon="5.43605">
        <ele>195</ele>
        <time>2014-04-23T07:47:58Z</time>
      </trkpt>
      <trkpt lat="47.01727" lon="5.43602">
        <ele>195</ele>
        <time>2014-04-23T07:48:01Z</time>
      </trkpt>
      <trkpt lat="47.01722" lon="5.43598">
        <ele>194</ele>
        <time>2014-04-23T07:48:06Z</time>
      </trkpt>
      <trkpt lat="47.01718" lon="5.43594">
        <ele>195</ele>
        <time>2014-04-23T07:48:10Z</time>
      </trkpt>
      <trkpt lat="47.01713" lon="5.43588">
        <ele>195</ele>
        <time>2014-04-23T07:48:14Z</time>
      </trkpt>
      <trkpt lat="47.0171" lon="5.43584">
        <ele>195</ele>
        <time>2014-04-23T07:48:17Z</time>
      </trkpt>
      <trkpt lat="47.01705" lon="5.43582">
        <ele>195</ele>
        <time>2014-04-23T07:48:20Z</time>
      </trkpt>
      <trkpt lat="47.017" lon="5.43582">
        <ele>196</ele>
        <time>2014-04-23T07:48:23Z</time>
      </trkpt>
      <trkpt lat="47.01696" lon="5.43582">
        <ele>196</ele>
        <time>2014-04-23T07:48:28Z</time>
      </trkpt>
      <trkpt lat="47.0169" lon="5.43582">
        <ele>195</ele>
        <time>2014-04-23T07:48:31Z</time>
      </trkpt>
      <trkpt lat="47.01685" lon="5.43582">
        <ele>195</ele>
        <time>2014-04-23T07:48:36Z</time>
      </trkpt>
      <trkpt lat="47.01681" lon="5.43582">
        <ele>195</ele>
        <time>2014-04-23T07:48:40Z</time>
      </trkpt>
      <trkpt lat="47.01675" lon="5.4358">
        <ele>195</ele>
        <time>2014-04-23T07:48:44Z</time>
      </trkpt>
      <trkpt lat="47.01669" lon="5.43579">
        <ele>195</ele>
        <time>2014-04-23T07:48:48Z</time>
      </trkpt>
      <trkpt lat="47.01664" lon="5.43578">
        <ele>194</ele>
        <time>2014-04-23T07:48:52Z</time>
      </trkpt>
      <trkpt lat="47.01659" lon="5.43577">
        <ele>194</ele>
        <time>2014-04-23T07:48:56Z</time>
      </trkpt>
      <trkpt lat="47.01653" lon="5.43574">
        <ele>194</ele>
        <time>2014-04-23T07:49:00Z</time>
      </trkpt>
      <trkpt lat="47.01647" lon="5.43574">
        <ele>194</ele>
        <time>2014-04-23T07:49:05Z</time>
      </trkpt>
      <trkpt lat="47.01641" lon="5.43575">
        <ele>194</ele>
        <time>2014-04-23T07:49:09Z</time>
      </trkpt>
      <trkpt lat="47.01636" lon="5.43573">
        <ele>194</ele>
        <time>2014-04-23T07:49:14Z</time>
      </trkpt>
      <trkpt lat="47.0163" lon="5.43572">
        <ele>194</ele>
        <time>2014-04-23T07:49:18Z</time>
      </trkpt>
      <trkpt lat="47.01626" lon="5.43573">
        <ele>194</ele>
        <time>2014-04-23T07:49:21Z</time>
      </trkpt>
      <trkpt lat="47.0162" lon="5.43574">
        <ele>194</ele>
        <time>2014-04-23T07:49:25Z</time>
      </trkpt>
      <trkpt lat="47.01616" lon="5.43576">
        <ele>195</ele>
        <time>2014-04-23T07:49:28Z</time>
      </trkpt>
      <trkpt lat="47.0161" lon="5.43578">
        <ele>195</ele>
        <time>2014-04-23T07:49:32Z</time>
      </trkpt>
      <trkpt lat="47.01606" lon="5.43581">
        <ele>196</ele>
        <time>2014-04-23T07:49:36Z</time>
      </trkpt>
      <trkpt lat="47.01602" lon="5.43585">
        <ele>196</ele>
        <time>2014-04-23T07:49:39Z</time>
      </trkpt>
      <trkpt lat="47.01594" lon="5.43592">
        <ele>195</ele>
        <time>2014-04-23T07:49:48Z</time>
      </trkpt>
      <trkpt lat="47.0159" lon="5.43596">
        <ele>194</ele>
        <time>2014-04-23T07:49:52Z</time>
      </trkpt>
      <trkpt lat="47.01586" lon="5.43599">
        <ele>194</ele>
        <time>2014-04-23T07:49:56Z</time>
      </trkpt>
      <trkpt lat="47.01581" lon="5.43598">
        <ele>193</ele>
        <time>2014-04-23T07:50:00Z</time>
      </trkpt>
      <trkpt lat="47.01576" lon="5.43597">
        <ele>193</ele>
        <time>2014-04-23T07:50:03Z</time>
      </trkpt>
      <trkpt lat="47.01571" lon="5.43597">
        <ele>193</ele>
        <time>2014-04-23T07:50:07Z</time>
      </trkpt>
      <trkpt lat="47.01566" lon="5.43596">
        <ele>193</ele>
        <time>2014-04-23T07:50:10Z</time>
      </trkpt>
      <trkpt lat="47.01558" lon="5.43596">
        <ele>193</ele>
        <time>2014-04-23T07:50:15Z</time>
      </trkpt>
      <trkpt lat="47.01554" lon="5.43596">
        <ele>193</ele>
        <time>2014-04-23T07:50:18Z</time>
      </trkpt>
      <trkpt lat="47.01549" lon="5.43598">
        <ele>193</ele>
        <time>2014-04-23T07:50:22Z</time>
      </trkpt>
      <trkpt lat="47.01546" lon="5.43604">
        <ele>193</ele>
        <time>2014-04-23T07:50:26Z</time>
      </trkpt>
      <trkpt lat="47.0154" lon="5.43604">
        <ele>193</ele>
        <time>2014-04-23T07:50:30Z</time>
      </trkpt>
      <trkpt lat="47.01535" lon="5.43604">
        <ele>193</ele>
        <time>2014-04-23T07:50:34Z</time>
      </trkpt>
      <trkpt lat="47.01531" lon="5.43606">
        <ele>193</ele>
        <time>2014-04-23T07:50:38Z</time>
      </trkpt>
      <trkpt lat="47.01526" lon="5.43611">
        <ele>194</ele>
        <time>2014-04-23T07:50:42Z</time>
      </trkpt>
      <trkpt lat="47.0152" lon="5.43609">
        <ele>195</ele>
        <time>2014-04-23T07:50:45Z</time>
      </trkpt>
      <trkpt lat="47.01515" lon="5.43607">
        <ele>195</ele>
        <time>2014-04-23T07:50:47Z</time>
      </trkpt>
      <trkpt lat="47.0151" lon="5.43605">
        <ele>195</ele>
        <time>2014-04-23T07:50:51Z</time>
      </trkpt>
      <trkpt lat="47.01504" lon="5.43603">
        <ele>195</ele>
        <time>2014-04-23T07:50:56Z</time>
      </trkpt>
      <trkpt lat="47.01499" lon="5.43603">
        <ele>195</ele>
        <time>2014-04-23T07:51:01Z</time>
      </trkpt>
      <trkpt lat="47.01494" lon="5.43604">
        <ele>195</ele>
        <time>2014-04-23T07:51:05Z</time>
      </trkpt>
      <trkpt lat="47.01489" lon="5.43604">
        <ele>195</ele>
        <time>2014-04-23T07:51:09Z</time>
      </trkpt>
      <trkpt lat="47.01484" lon="5.43603">
        <ele>195</ele>
        <time>2014-04-23T07:51:13Z</time>
      </trkpt>
      <trkpt lat="47.01478" lon="5.43604">
        <ele>196</ele>
        <time>2014-04-23T07:51:17Z</time>
      </trkpt>
      <trkpt lat="47.01473" lon="5.43601">
        <ele>196</ele>
        <time>2014-04-23T07:51:21Z</time>
      </trkpt>
      <trkpt lat="47.01469" lon="5.43604">
        <ele>196</ele>
        <time>2014-04-23T07:51:25Z</time>
      </trkpt>
      <trkpt lat="47.01464" lon="5.43603">
        <ele>196</ele>
        <time>2014-04-23T07:51:29Z</time>
      </trkpt>
      <trkpt lat="47.01459" lon="5.43601">
        <ele>195</ele>
        <time>2014-04-23T07:51:33Z</time>
      </trkpt>
      <trkpt lat="47.01454" lon="5.43603">
        <ele>195</ele>
        <time>2014-04-23T07:51:37Z</time>
      </trkpt>
      <trkpt lat="47.01449" lon="5.43604">
        <ele>195</ele>
        <time>2014-04-23T07:51:41Z</time>
      </trkpt>
      <trkpt lat="47.01439" lon="5.43607">
        <ele>194</ele>
        <time>2014-04-23T07:51:49Z</time>
      </trkpt>
      <trkpt lat="47.01433" lon="5.4361">
        <ele>194</ele>
        <time>2014-04-23T07:51:54Z</time>
      </trkpt>
      <trkpt lat="47.01428" lon="5.43611">
        <ele>194</ele>
        <time>2014-04-23T07:51:58Z</time>
      </trkpt>
      <trkpt lat="47.01423" lon="5.43609">
        <ele>194</ele>
        <time>2014-04-23T07:52:02Z</time>
      </trkpt>
      <trkpt lat="47.01416" lon="5.43607">
        <ele>194</ele>
        <time>2014-04-23T07:52:06Z</time>
      </trkpt>
      <trkpt lat="47.01411" lon="5.43604">
        <ele>194</ele>
        <time>2014-04-23T07:52:09Z</time>
      </trkpt>
      <trkpt lat="47.01406" lon="5.43602">
        <ele>194</ele>
        <time>2014-04-23T07:52:13Z</time>
      </trkpt>
      <trkpt lat="47.01401" lon="5.436">
        <ele>194</ele>
        <time>2014-04-23T07:52:18Z</time>
      </trkpt>
      <trkpt lat="47.01396" lon="5.43602">
        <ele>194</ele>
        <time>2014-04-23T07:52:22Z</time>
      </trkpt>
      <trkpt lat="47.0139" lon="5.43602">
        <ele>194</ele>
        <time>2014-04-23T07:52:26Z</time>
      </trkpt>
      <trkpt lat="47.01385" lon="5.43601">
        <ele>194</ele>
        <time>2014-04-23T07:52:30Z</time>
      </trkpt>
      <trkpt lat="47.0138" lon="5.43601">
        <ele>194</ele>
        <time>2014-04-23T07:52:34Z</time>
      </trkpt>
      <trkpt lat="47.01375" lon="5.43598">
        <ele>193</ele>
        <time>2014-04-23T07:52:39Z</time>
      </trkpt>
      <trkpt lat="47.0137" lon="5.43598">
        <ele>193</ele>
        <time>2014-04-23T07:52:43Z</time>
      </trkpt>
      <trkpt lat="47.01365" lon="5.43596">
        <ele>193</ele>
        <time>2014-04-23T07:52:47Z</time>
      </trkpt>
      <trkpt lat="47.01359" lon="5.43594">
        <ele>193</ele>
        <time>2014-04-23T07:52:51Z</time>
      </trkpt>
      <trkpt lat="47.01355" lon="5.43593">
        <ele>193</ele>
        <time>2014-04-23T07:52:55Z</time>
      </trkpt>
      <trkpt lat="47.0135" lon="5.43592">
        <ele>193</ele>
        <time>2014-04-23T07:52:58Z</time>
      </trkpt>
      <trkpt lat="47.01344" lon="5.43593">
        <ele>193</ele>
        <time>2014-04-23T07:53:04Z</time>
      </trkpt>
      <trkpt lat="47.01339" lon="5.43591">
        <ele>194</ele>
        <time>2014-04-23T07:53:09Z</time>
      </trkpt>
      <trkpt lat="47.0133" lon="5.43589">
        <ele>194</ele>
        <time>2014-04-23T07:53:16Z</time>
      </trkpt>
      <trkpt lat="47.01324" lon="5.43587">
        <ele>195</ele>
        <time>2014-04-23T07:53:21Z</time>
      </trkpt>
      <trkpt lat="47.01319" lon="5.43586">
        <ele>195</ele>
        <time>2014-04-23T07:53:25Z</time>
      </trkpt>
      <trkpt lat="47.01315" lon="5.43582">
        <ele>196</ele>
        <time>2014-04-23T07:53:27Z</time>
      </trkpt>
      <trkpt lat="47.0131" lon="5.43584">
        <ele>196</ele>
        <time>2014-04-23T07:53:32Z</time>
      </trkpt>
      <trkpt lat="47.01305" lon="5.43582">
        <ele>196</ele>
        <time>2014-04-23T07:53:35Z</time>
      </trkpt>
      <trkpt lat="47.01301" lon="5.43579">
        <ele>196</ele>
        <time>2014-04-23T07:53:38Z</time>
      </trkpt>
      <trkpt lat="47.01296" lon="5.43576">
        <ele>195</ele>
        <time>2014-04-23T07:53:42Z</time>
      </trkpt>
      <trkpt lat="47.01291" lon="5.43574">
        <ele>195</ele>
        <time>2014-04-23T07:53:46Z</time>
      </trkpt>
      <trkpt lat="47.01286" lon="5.4357">
        <ele>194</ele>
        <time>2014-04-23T07:53:49Z</time>
      </trkpt>
      <trkpt lat="47.01282" lon="5.43568">
        <ele>194</ele>
        <time>2014-04-23T07:53:52Z</time>
      </trkpt>
      <trkpt lat="47.01277" lon="5.43569">
        <ele>194</ele>
        <time>2014-04-23T07:53:56Z</time>
      </trkpt>
      <trkpt lat="47.01272" lon="5.43572">
        <ele>194</ele>
        <time>2014-04-23T07:54:01Z</time>
      </trkpt>
      <trkpt lat="47.01267" lon="5.43571">
        <ele>194</ele>
        <time>2014-04-23T07:54:05Z</time>
      </trkpt>
      <trkpt lat="47.01262" lon="5.4357">
        <ele>194</ele>
        <time>2014-04-23T07:54:10Z</time>
      </trkpt>
      <trkpt lat="47.01257" lon="5.43568">
        <ele>194</ele>
        <time>2014-04-23T07:54:14Z</time>
      </trkpt>
      <trkpt lat="47.01253" lon="5.43565">
        <ele>195</ele>
        <time>2014-04-23T07:54:18Z</time>
      </trkpt>
      <trkpt lat="47.01248" lon="5.43561">
        <ele>195</ele>
        <time>2014-04-23T07:54:22Z</time>
      </trkpt>
      <trkpt lat="47.01243" lon="5.43558">
        <ele>196</ele>
        <time>2014-04-23T07:54:27Z</time>
      </trkpt>
      <trkpt lat="47.01238" lon="5.43557">
        <ele>195</ele>
        <time>2014-04-23T07:54:32Z</time>
      </trkpt>
      <trkpt lat="47.01237" lon="5.43565">
        <ele>195</ele>
        <time>2014-04-23T07:54:41Z</time>
      </trkpt>
      <trkpt lat="47.01235" lon="5.43572">
        <ele>196</ele>
        <time>2014-04-23T07:54:46Z</time>
      </trkpt>
      <trkpt lat="47.01232" lon="5.43578">
        <ele>195</ele>
        <time>2014-04-23T07:54:50Z</time>
      </trkpt>
      <trkpt lat="47.0123" lon="5.43584">
        <ele>195</ele>
        <time>2014-04-23T07:54:54Z</time>
      </trkpt>
      <trkpt lat="47.01227" lon="5.43591">
        <ele>195</ele>
        <time>2014-04-23T07:54:59Z</time>
      </trkpt>
      <trkpt lat="47.01226" lon="5.43598">
        <ele>195</ele>
        <time>2014-04-23T07:55:04Z</time>
      </trkpt>
      <trkpt lat="47.01223" lon="5.43606">
        <ele>194</ele>
        <time>2014-04-23T07:55:09Z</time>
      </trkpt>
      <trkpt lat="47.01221" lon="5.43612">
        <ele>194</ele>
        <time>2014-04-23T07:55:14Z</time>
      </trkpt>
      <trkpt lat="47.0122" lon="5.4362">
        <ele>193</ele>
        <time>2014-04-23T07:55:19Z</time>
      </trkpt>
      <trkpt lat="47.01218" lon="5.43627">
        <ele>193</ele>
        <time>2014-04-23T07:55:24Z</time>
      </trkpt>
      <trkpt lat="47.01216" lon="5.43633">
        <ele>193</ele>
        <time>2014-04-23T07:55:28Z</time>
      </trkpt>
      <trkpt lat="47.01213" lon="5.43639">
        <ele>193</ele>
        <time>2014-04-23T07:55:32Z</time>
      </trkpt>
      <trkpt lat="47.01211" lon="5.43645">
        <ele>194</ele>
        <time>2014-04-23T07:55:36Z</time>
      </trkpt>
      <trkpt lat="47.01207" lon="5.43651">
        <ele>194</ele>
        <time>2014-04-23T07:55:40Z</time>
      </trkpt>
      <trkpt lat="47.01203" lon="5.43654">
        <ele>194</ele>
        <time>2014-04-23T07:55:44Z</time>
      </trkpt>
      <trkpt lat="47.01198" lon="5.43654">
        <ele>195</ele>
        <time>2014-04-23T07:55:47Z</time>
      </trkpt>
      <trkpt lat="47.01193" lon="5.43654">
        <ele>194</ele>
        <time>2014-04-23T07:55:50Z</time>
      </trkpt>
      <trkpt lat="47.01188" lon="5.43657">
        <ele>194</ele>
        <time>2014-04-23T07:55:54Z</time>
      </trkpt>
      <trkpt lat="47.01184" lon="5.4366">
        <ele>194</ele>
        <time>2014-04-23T07:55:58Z</time>
      </trkpt>
      <trkpt lat="47.0118" lon="5.43666">
        <ele>194</ele>
        <time>2014-04-23T07:56:03Z</time>
      </trkpt>
      <trkpt lat="47.01177" lon="5.43671">
        <ele>195</ele>
        <time>2014-04-23T07:56:06Z</time>
      </trkpt>
      <trkpt lat="47.01173" lon="5.43676">
        <ele>194</ele>
        <time>2014-04-23T07:56:11Z</time>
      </trkpt>
      <trkpt lat="47.01169" lon="5.4368">
        <ele>194</ele>
        <time>2014-04-23T07:56:15Z</time>
      </trkpt>
      <trkpt lat="47.01165" lon="5.43684">
        <ele>194</ele>
        <time>2014-04-23T07:56:19Z</time>
      </trkpt>
      <trkpt lat="47.0116" lon="5.43688">
        <ele>194</ele>
        <time>2014-04-23T07:56:23Z</time>
      </trkpt>
      <trkpt lat="47.01155" lon="5.43692">
        <ele>194</ele>
        <time>2014-04-23T07:56:27Z</time>
      </trkpt>
      <trkpt lat="47.01151" lon="5.43695">
        <ele>194</ele>
        <time>2014-04-23T07:56:31Z</time>
      </trkpt>
      <trkpt lat="47.01146" lon="5.43699">
        <ele>194</ele>
        <time>2014-04-23T07:56:35Z</time>
      </trkpt>
      <trkpt lat="47.01142" lon="5.43703">
        <ele>194</ele>
        <time>2014-04-23T07:56:39Z</time>
      </trkpt>
      <trkpt lat="47.01139" lon="5.4371">
        <ele>193</ele>
        <time>2014-04-23T07:56:44Z</time>
      </trkpt>
      <trkpt lat="47.01135" lon="5.43714">
        <ele>193</ele>
        <time>2014-04-23T07:56:49Z</time>
      </trkpt>
      <trkpt lat="47.0113" lon="5.43717">
        <ele>193</ele>
        <time>2014-04-23T07:56:53Z</time>
      </trkpt>
      <trkpt lat="47.01125" lon="5.4372">
        <ele>193</ele>
        <time>2014-04-23T07:56:57Z</time>
      </trkpt>
      <trkpt lat="47.0112" lon="5.43723">
        <ele>193</ele>
        <time>2014-04-23T07:57:01Z</time>
      </trkpt>
      <trkpt lat="47.01116" lon="5.43727">
        <ele>193</ele>
        <time>2014-04-23T07:57:05Z</time>
      </trkpt>
      <trkpt lat="47.01112" lon="5.43731">
        <ele>193</ele>
        <time>2014-04-23T07:57:09Z</time>
      </trkpt>
      <trkpt lat="47.01107" lon="5.43735">
        <ele>194</ele>
        <time>2014-04-23T07:57:13Z</time>
      </trkpt>
      <trkpt lat="47.01103" lon="5.43738">
        <ele>193</ele>
        <time>2014-04-23T07:57:17Z</time>
      </trkpt>
      <trkpt lat="47.01098" lon="5.43741">
        <ele>194</ele>
        <time>2014-04-23T07:57:21Z</time>
      </trkpt>
      <trkpt lat="47.01093" lon="5.43742">
        <ele>194</ele>
        <time>2014-04-23T07:57:25Z</time>
      </trkpt>
      <trkpt lat="47.01088" lon="5.43746">
        <ele>194</ele>
        <time>2014-04-23T07:57:29Z</time>
      </trkpt>
      <trkpt lat="47.01083" lon="5.4375">
        <ele>194</ele>
        <time>2014-04-23T07:57:33Z</time>
      </trkpt>
      <trkpt lat="47.01079" lon="5.43752">
        <ele>194</ele>
        <time>2014-04-23T07:57:37Z</time>
      </trkpt>
      <trkpt lat="47.01074" lon="5.43754">
        <ele>194</ele>
        <time>2014-04-23T07:57:41Z</time>
      </trkpt>
      <trkpt lat="47.01069" lon="5.43754">
        <ele>194</ele>
        <time>2014-04-23T07:57:45Z</time>
      </trkpt>
      <trkpt lat="47.01064" lon="5.43755">
        <ele>194</ele>
        <time>2014-04-23T07:57:49Z</time>
      </trkpt>
      <trkpt lat="47.01059" lon="5.43758">
        <ele>194</ele>
        <time>2014-04-23T07:57:53Z</time>
      </trkpt>
      <trkpt lat="47.01055" lon="5.43761">
        <ele>194</ele>
        <time>2014-04-23T07:57:57Z</time>
      </trkpt>
      <trkpt lat="47.0105" lon="5.43762">
        <ele>194</ele>
        <time>2014-04-23T07:58:01Z</time>
      </trkpt>
      <trkpt lat="47.01045" lon="5.43764">
        <ele>194</ele>
        <time>2014-04-23T07:58:06Z</time>
      </trkpt>
      <trkpt lat="47.0104" lon="5.43766">
        <ele>193</ele>
        <time>2014-04-23T07:58:10Z</time>
      </trkpt>
      <trkpt lat="47.01035" lon="5.43768">
        <ele>193</ele>
        <time>2014-04-23T07:58:14Z</time>
      </trkpt>
      <trkpt lat="47.01029" lon="5.43771">
        <ele>194</ele>
        <time>2014-04-23T07:58:19Z</time>
      </trkpt>
      <trkpt lat="47.01024" lon="5.43773">
        <ele>194</ele>
        <time>2014-04-23T07:58:23Z</time>
      </trkpt>
      <trkpt lat="47.01019" lon="5.43776">
        <ele>194</ele>
        <time>2014-04-23T07:58:27Z</time>
      </trkpt>
      <trkpt lat="47.01016" lon="5.4378">
        <ele>194</ele>
        <time>2014-04-23T07:58:31Z</time>
      </trkpt>
      <trkpt lat="47.01011" lon="5.43784">
        <ele>194</ele>
        <time>2014-04-23T07:58:35Z</time>
      </trkpt>
      <trkpt lat="47.01006" lon="5.43788">
        <ele>194</ele>
        <time>2014-04-23T07:58:39Z</time>
      </trkpt>
      <trkpt lat="47.01003" lon="5.43792">
        <ele>193</ele>
        <time>2014-04-23T07:58:43Z</time>
      </trkpt>
      <trkpt lat="47.00999" lon="5.43796">
        <ele>193</ele>
        <time>2014-04-23T07:58:46Z</time>
      </trkpt>
      <trkpt lat="47.00994" lon="5.438">
        <ele>193</ele>
        <time>2014-04-23T07:58:51Z</time>
      </trkpt>
      <trkpt lat="47.00989" lon="5.43803">
        <ele>193</ele>
        <time>2014-04-23T07:58:55Z</time>
      </trkpt>
      <trkpt lat="47.00985" lon="5.43806">
        <ele>193</ele>
        <time>2014-04-23T07:59:00Z</time>
      </trkpt>
      <trkpt lat="47.00979" lon="5.43808">
        <ele>193</ele>
        <time>2014-04-23T07:59:05Z</time>
      </trkpt>
      <trkpt lat="47.00975" lon="5.43811">
        <ele>193</ele>
        <time>2014-04-23T07:59:09Z</time>
      </trkpt>
      <trkpt lat="47.0097" lon="5.43814">
        <ele>193</ele>
        <time>2014-04-23T07:59:12Z</time>
      </trkpt>
      <trkpt lat="47.00965" lon="5.43818">
        <ele>194</ele>
        <time>2014-04-23T07:59:17Z</time>
      </trkpt>
      <trkpt lat="47.0096" lon="5.43819">
        <ele>194</ele>
        <time>2014-04-23T07:59:21Z</time>
      </trkpt>
      <trkpt lat="47.00955" lon="5.43818">
        <ele>194</ele>
        <time>2014-04-23T07:59:26Z</time>
      </trkpt>
      <trkpt lat="47.0095" lon="5.43817">
        <ele>194</ele>
        <time>2014-04-23T07:59:30Z</time>
      </trkpt>
      <trkpt lat="47.00945" lon="5.43816">
        <ele>193</ele>
        <time>2014-04-23T07:59:34Z</time>
      </trkpt>
      <trkpt lat="47.0094" lon="5.43815">
        <ele>193</ele>
        <time>2014-04-23T07:59:38Z</time>
      </trkpt>
      <trkpt lat="47.00935" lon="5.43815">
        <ele>194</ele>
        <time>2014-04-23T07:59:43Z</time>
      </trkpt>
      <trkpt lat="47.00931" lon="5.43811">
        <ele>194</ele>
        <time>2014-04-23T07:59:48Z</time>
      </trkpt>
      <trkpt lat="47.00927" lon="5.43805">
        <ele>194</ele>
        <time>2014-04-23T07:59:52Z</time>
      </trkpt>
      <trkpt lat="47.00924" lon="5.438">
        <ele>195</ele>
        <time>2014-04-23T07:59:55Z</time>
      </trkpt>
      <trkpt lat="47.00919" lon="5.43797">
        <ele>195</ele>
        <time>2014-04-23T07:59:59Z</time>
      </trkpt>
      <trkpt lat="47.00914" lon="5.43796">
        <ele>195</ele>
        <time>2014-04-23T08:00:05Z</time>
      </trkpt>
      <trkpt lat="47.00909" lon="5.43799">
        <ele>195</ele>
        <time>2014-04-23T08:00:10Z</time>
      </trkpt>
      <trkpt lat="47.00905" lon="5.43802">
        <ele>195</ele>
        <time>2014-04-23T08:00:14Z</time>
      </trkpt>
      <trkpt lat="47.009" lon="5.43805">
        <ele>195</ele>
        <time>2014-04-23T08:00:18Z</time>
      </trkpt>
      <trkpt lat="47.00895" lon="5.43807">
        <ele>194</ele>
        <time>2014-04-23T08:00:22Z</time>
      </trkpt>
      <trkpt lat="47.0089" lon="5.43808">
        <ele>194</ele>
        <time>2014-04-23T08:00:27Z</time>
      </trkpt>
      <trkpt lat="47.00885" lon="5.43804">
        <ele>194</ele>
        <time>2014-04-23T08:00:32Z</time>
      </trkpt>
      <trkpt lat="47.00882" lon="5.43799">
        <ele>194</ele>
        <time>2014-04-23T08:00:36Z</time>
      </trkpt>
      <trkpt lat="47.00879" lon="5.43794">
        <ele>194</ele>
        <time>2014-04-23T08:00:40Z</time>
      </trkpt>
      <trkpt lat="47.00876" lon="5.43788">
        <ele>194</ele>
        <time>2014-04-23T08:00:44Z</time>
      </trkpt>
      <trkpt lat="47.00873" lon="5.43782">
        <ele>195</ele>
        <time>2014-04-23T08:00:49Z</time>
      </trkpt>
      <trkpt lat="47.00871" lon="5.43776">
        <ele>195</ele>
        <time>2014-04-23T08:00:53Z</time>
      </trkpt>
      <trkpt lat="47.00868" lon="5.4377">
        <ele>194</ele>
        <time>2014-04-23T08:00:57Z</time>
      </trkpt>
      <trkpt lat="47.00865" lon="5.43763">
        <ele>194</ele>
        <time>2014-04-23T08:01:01Z</time>
      </trkpt>
      <trkpt lat="47.00862" lon="5.43756">
        <ele>194</ele>
        <time>2014-04-23T08:01:05Z</time>
      </trkpt>
      <trkpt lat="47.00859" lon="5.4375">
        <ele>194</ele>
        <time>2014-04-23T08:01:09Z</time>
      </trkpt>
      <trkpt lat="47.00857" lon="5.43744">
        <ele>195</ele>
        <time>2014-04-23T08:01:12Z</time>
      </trkpt>
      <trkpt lat="47.00856" lon="5.43737">
        <ele>195</ele>
        <time>2014-04-23T08:01:16Z</time>
      </trkpt>
      <trkpt lat="47.00853" lon="5.43729">
        <ele>194</ele>
        <time>2014-04-23T08:01:21Z</time>
      </trkpt>
      <trkpt lat="47.00851" lon="5.43721">
        <ele>194</ele>
        <time>2014-04-23T08:01:25Z</time>
      </trkpt>
      <trkpt lat="47.00849" lon="5.43714">
        <ele>193</ele>
        <time>2014-04-23T08:01:29Z</time>
      </trkpt>
      <trkpt lat="47.0085" lon="5.43716">
        <ele>195</ele>
        <time>2014-04-23T08:05:21Z</time>
      </trkpt>
      <trkpt lat="47.00851" lon="5.43722">
        <ele>195</ele>
        <time>2014-04-23T08:05:25Z</time>
      </trkpt>
      <trkpt lat="47.00854" lon="5.43728">
        <ele>195</ele>
        <time>2014-04-23T08:05:29Z</time>
      </trkpt>
      <trkpt lat="47.00854" lon="5.43728">
        <ele>196</ele>
        <time>2014-04-23T08:06:10Z</time>
      </trkpt>
      <trkpt lat="47.00854" lon="5.4372">
        <ele>196</ele>
        <time>2014-04-23T08:06:16Z</time>
      </trkpt>
      <trkpt lat="47.00853" lon="5.43715">
        <ele>196</ele>
        <time>2014-04-23T08:06:24Z</time>
      </trkpt>
      <trkpt lat="47.00853" lon="5.43712">
        <ele>196</ele>
        <time>2014-04-23T08:06:52Z</time>
      </trkpt>
      <trkpt lat="47.00852" lon="5.43708">
        <ele>195</ele>
        <time>2014-04-23T08:08:24Z</time>
      </trkpt>
      <trkpt lat="47.00848" lon="5.43706">
        <ele>194</ele>
        <time>2014-04-23T08:08:32Z</time>
      </trkpt>
      <trkpt lat="47.00843" lon="5.43702">
        <ele>194</ele>
        <time>2014-04-23T08:08:36Z</time>
      </trkpt>
      <trkpt lat="47.00839" lon="5.43699">
        <ele>193</ele>
        <time>2014-04-23T08:08:40Z</time>
      </trkpt>
      <trkpt lat="47.00835" lon="5.43695">
        <ele>193</ele>
        <time>2014-04-23T08:08:45Z</time>
      </trkpt>
      <trkpt lat="47.00833" lon="5.43697">
        <ele>193</ele>
        <time>2014-04-23T08:09:01Z</time>
      </trkpt>
      <trkpt lat="47.00828" lon="5.43699">
        <ele>193</ele>
        <time>2014-04-23T08:09:20Z</time>
      </trkpt>
      <trkpt lat="47.00824" lon="5.43702">
        <ele>194</ele>
        <time>2014-04-23T08:09:26Z</time>
      </trkpt>
      <trkpt lat="47.00819" lon="5.43705">
        <ele>194</ele>
        <time>2014-04-23T08:09:32Z</time>
      </trkpt>
      <trkpt lat="47.00814" lon="5.43705">
        <ele>193</ele>
        <time>2014-04-23T08:09:37Z</time>
      </trkpt>
      <trkpt lat="47.0081" lon="5.43708">
        <ele>192</ele>
        <time>2014-04-23T08:09:42Z</time>
      </trkpt>
      <trkpt lat="47.00805" lon="5.43711">
        <ele>192</ele>
        <time>2014-04-23T08:09:47Z</time>
      </trkpt>
      <trkpt lat="47.008" lon="5.43713">
        <ele>192</ele>
        <time>2014-04-23T08:09:51Z</time>
      </trkpt>
      <trkpt lat="47.00795" lon="5.43716">
        <ele>192</ele>
        <time>2014-04-23T08:09:55Z</time>
      </trkpt>
      <trkpt lat="47.00791" lon="5.43717">
        <ele>192</ele>
        <time>2014-04-23T08:09:59Z</time>
      </trkpt>
      <trkpt lat="47.00786" lon="5.4372">
        <ele>192</ele>
        <time>2014-04-23T08:10:03Z</time>
      </trkpt>
      <trkpt lat="47.00782" lon="5.43723">
        <ele>192</ele>
        <time>2014-04-23T08:10:07Z</time>
      </trkpt>
      <trkpt lat="47.00778" lon="5.43725">
        <ele>192</ele>
        <time>2014-04-23T08:10:11Z</time>
      </trkpt>
      <trkpt lat="47.00773" lon="5.43728">
        <ele>192</ele>
        <time>2014-04-23T08:10:16Z</time>
      </trkpt>
      <trkpt lat="47.00768" lon="5.4373">
        <ele>192</ele>
        <time>2014-04-23T08:10:20Z</time>
      </trkpt>
      <trkpt lat="47.00764" lon="5.43732">
        <ele>193</ele>
        <time>2014-04-23T08:10:24Z</time>
      </trkpt>
      <trkpt lat="47.0076" lon="5.43735">
        <ele>193</ele>
        <time>2014-04-23T08:10:28Z</time>
      </trkpt>
      <trkpt lat="47.00755" lon="5.43738">
        <ele>193</ele>
        <time>2014-04-23T08:10:33Z</time>
      </trkpt>
      <trkpt lat="47.00751" lon="5.4374">
        <ele>194</ele>
        <time>2014-04-23T08:10:38Z</time>
      </trkpt>
      <trkpt lat="47.00746" lon="5.43745">
        <ele>194</ele>
        <time>2014-04-23T08:10:44Z</time>
      </trkpt>
      <trkpt lat="47.00741" lon="5.43748">
        <ele>194</ele>
        <time>2014-04-23T08:10:49Z</time>
      </trkpt>
      <trkpt lat="47.00736" lon="5.43751">
        <ele>194</ele>
        <time>2014-04-23T08:10:53Z</time>
      </trkpt>
      <trkpt lat="47.00731" lon="5.43755">
        <ele>194</ele>
        <time>2014-04-23T08:10:57Z</time>
      </trkpt>
      <trkpt lat="47.00726" lon="5.43758">
        <ele>194</ele>
        <time>2014-04-23T08:11:02Z</time>
      </trkpt>
      <trkpt lat="47.00721" lon="5.43762">
        <ele>195</ele>
        <time>2014-04-23T08:11:06Z</time>
      </trkpt>
      <trkpt lat="47.00717" lon="5.43764">
        <ele>195</ele>
        <time>2014-04-23T08:11:10Z</time>
      </trkpt>
      <trkpt lat="47.00712" lon="5.43766">
        <ele>195</ele>
        <time>2014-04-23T08:11:14Z</time>
      </trkpt>
      <trkpt lat="47.00707" lon="5.43769">
        <ele>195</ele>
        <time>2014-04-23T08:11:19Z</time>
      </trkpt>
      <trkpt lat="47.00702" lon="5.43772">
        <ele>196</ele>
        <time>2014-04-23T08:11:25Z</time>
      </trkpt>
      <trkpt lat="47.00697" lon="5.43775">
        <ele>196</ele>
        <time>2014-04-23T08:11:30Z</time>
      </trkpt>
      <trkpt lat="47.00693" lon="5.43779">
        <ele>195</ele>
        <time>2014-04-23T08:11:34Z</time>
      </trkpt>
      <trkpt lat="47.0069" lon="5.43784">
        <ele>195</ele>
        <time>2014-04-23T08:11:38Z</time>
      </trkpt>
      <trkpt lat="47.0068" lon="5.43786">
        <ele>195</ele>
        <time>2014-04-23T08:11:45Z</time>
      </trkpt>
      <trkpt lat="47.00671" lon="5.43793">
        <ele>194</ele>
        <time>2014-04-23T08:11:53Z</time>
      </trkpt>
      <trkpt lat="47.00662" lon="5.43797">
        <ele>194</ele>
        <time>2014-04-23T08:12:01Z</time>
      </trkpt>
      <trkpt lat="47.00654" lon="5.43803">
        <ele>194</ele>
        <time>2014-04-23T08:12:08Z</time>
      </trkpt>
      <trkpt lat="47.00646" lon="5.43809">
        <ele>194</ele>
        <time>2014-04-23T08:12:15Z</time>
      </trkpt>
      <trkpt lat="47.00638" lon="5.43816">
        <ele>194</ele>
        <time>2014-04-23T08:12:23Z</time>
      </trkpt>
      <trkpt lat="47.00629" lon="5.43822">
        <ele>194</ele>
        <time>2014-04-23T08:12:32Z</time>
      </trkpt>
      <trkpt lat="47.0062" lon="5.43827">
        <ele>194</ele>
        <time>2014-04-23T08:12:39Z</time>
      </trkpt>
      <trkpt lat="47.00612" lon="5.43833">
        <ele>194</ele>
        <time>2014-04-23T08:12:45Z</time>
      </trkpt>
      <trkpt lat="47.00604" lon="5.43841">
        <ele>194</ele>
        <time>2014-04-23T08:12:52Z</time>
      </trkpt>
      <trkpt lat="47.00596" lon="5.43846">
        <ele>194</ele>
        <time>2014-04-23T08:13:00Z</time>
      </trkpt>
      <trkpt lat="47.00586" lon="5.43852">
        <ele>194</ele>
        <time>2014-04-23T08:13:08Z</time>
      </trkpt>
      <trkpt lat="47.00577" lon="5.43857">
        <ele>194</ele>
        <time>2014-04-23T08:13:15Z</time>
      </trkpt>
      <trkpt lat="47.00568" lon="5.43861">
        <ele>193</ele>
        <time>2014-04-23T08:13:22Z</time>
      </trkpt>
      <trkpt lat="47.00563" lon="5.43863">
        <ele>194</ele>
        <time>2014-04-23T08:13:28Z</time>
      </trkpt>
      <trkpt lat="47.00559" lon="5.43866">
        <ele>194</ele>
        <time>2014-04-23T08:13:35Z</time>
      </trkpt>
      <trkpt lat="47.00554" lon="5.43861">
        <ele>194</ele>
        <time>2014-04-23T08:13:41Z</time>
      </trkpt>
      <trkpt lat="47.0055" lon="5.43856">
        <ele>194</ele>
        <time>2014-04-23T08:13:46Z</time>
      </trkpt>
      <trkpt lat="47.00546" lon="5.43853">
        <ele>193</ele>
        <time>2014-04-23T08:13:52Z</time>
      </trkpt>
      <trkpt lat="47.00542" lon="5.43848">
        <ele>193</ele>
        <time>2014-04-23T08:13:59Z</time>
      </trkpt>
      <trkpt lat="47.00539" lon="5.43843">
        <ele>193</ele>
        <time>2014-04-23T08:14:03Z</time>
      </trkpt>
      <trkpt lat="47.00535" lon="5.43838">
        <ele>193</ele>
        <time>2014-04-23T08:14:07Z</time>
      </trkpt>
      <trkpt lat="47.00531" lon="5.43832">
        <ele>193</ele>
        <time>2014-04-23T08:14:12Z</time>
      </trkpt>
      <trkpt lat="47.00528" lon="5.43826">
        <ele>193</ele>
        <time>2014-04-23T08:14:16Z</time>
      </trkpt>
      <trkpt lat="47.00525" lon="5.43819">
        <ele>193</ele>
        <time>2014-04-23T08:14:20Z</time>
      </trkpt>
      <trkpt lat="47.00522" lon="5.43813">
        <ele>193</ele>
        <time>2014-04-23T08:14:24Z</time>
      </trkpt>
      <trkpt lat="47.00519" lon="5.43808">
        <ele>193</ele>
        <time>2014-04-23T08:14:28Z</time>
      </trkpt>
      <trkpt lat="47.00519" lon="5.43801">
        <ele>193</ele>
        <time>2014-04-23T08:14:32Z</time>
      </trkpt>
      <trkpt lat="47.00519" lon="5.43793">
        <ele>193</ele>
        <time>2014-04-23T08:14:36Z</time>
      </trkpt>
      <trkpt lat="47.0052" lon="5.43786">
        <ele>193</ele>
        <time>2014-04-23T08:14:40Z</time>
      </trkpt>
      <trkpt lat="47.0052" lon="5.43778">
        <ele>193</ele>
        <time>2014-04-23T08:14:44Z</time>
      </trkpt>
      <trkpt lat="47.00519" lon="5.43771">
        <ele>194</ele>
        <time>2014-04-23T08:14:48Z</time>
      </trkpt>
      <trkpt lat="47.00517" lon="5.43765">
        <ele>194</ele>
        <time>2014-04-23T08:14:52Z</time>
      </trkpt>
      <trkpt lat="47.00514" lon="5.43759">
        <ele>194</ele>
        <time>2014-04-23T08:14:56Z</time>
      </trkpt>
      <trkpt lat="47.00512" lon="5.43753">
        <ele>194</ele>
        <time>2014-04-23T08:15:00Z</time>
      </trkpt>
      <trkpt lat="47.00509" lon="5.43747">
        <ele>194</ele>
        <time>2014-04-23T08:15:05Z</time>
      </trkpt>
      <trkpt lat="47.00505" lon="5.43743">
        <ele>194</ele>
        <time>2014-04-23T08:15:10Z</time>
      </trkpt>
      <trkpt lat="47.00501" lon="5.43739">
        <ele>194</ele>
        <time>2014-04-23T08:15:14Z</time>
      </trkpt>
      <trkpt lat="47.00497" lon="5.43733">
        <ele>193</ele>
        <time>2014-04-23T08:15:18Z</time>
      </trkpt>
      <trkpt lat="47.00494" lon="5.43727">
        <ele>193</ele>
        <time>2014-04-23T08:15:21Z</time>
      </trkpt>
      <trkpt lat="47.00492" lon="5.4372">
        <ele>194</ele>
        <time>2014-04-23T08:15:25Z</time>
      </trkpt>
      <trkpt lat="47.0049" lon="5.43714">
        <ele>194</ele>
        <time>2014-04-23T08:15:29Z</time>
      </trkpt>
      <trkpt lat="47.00487" lon="5.43707">
        <ele>194</ele>
        <time>2014-04-23T08:15:33Z</time>
      </trkpt>
      <trkpt lat="47.00484" lon="5.43701">
        <ele>193</ele>
        <time>2014-04-23T08:15:39Z</time>
      </trkpt>
      <trkpt lat="47.00484" lon="5.43693">
        <ele>193</ele>
        <time>2014-04-23T08:15:43Z</time>
      </trkpt>
      <trkpt lat="47.00483" lon="5.43686">
        <ele>193</ele>
        <time>2014-04-23T08:15:47Z</time>
      </trkpt>
      <trkpt lat="47.00482" lon="5.43677">
        <ele>192</ele>
        <time>2014-04-23T08:15:51Z</time>
      </trkpt>
      <trkpt lat="47.00479" lon="5.4367">
        <ele>192</ele>
        <time>2014-04-23T08:15:55Z</time>
      </trkpt>
      <trkpt lat="47.00478" lon="5.43662">
        <ele>193</ele>
        <time>2014-04-23T08:16:00Z</time>
      </trkpt>
      <trkpt lat="47.00476" lon="5.43655">
        <ele>193</ele>
        <time>2014-04-23T08:16:04Z</time>
      </trkpt>
      <trkpt lat="47.00475" lon="5.43649">
        <ele>193</ele>
        <time>2014-04-23T08:16:08Z</time>
      </trkpt>
      <trkpt lat="47.00473" lon="5.43641">
        <ele>193</ele>
        <time>2014-04-23T08:16:13Z</time>
      </trkpt>
      <trkpt lat="47.0047" lon="5.43634">
        <ele>193</ele>
        <time>2014-04-23T08:16:18Z</time>
      </trkpt>
      <trkpt lat="47.00468" lon="5.43627">
        <ele>194</ele>
        <time>2014-04-23T08:16:22Z</time>
      </trkpt>
      <trkpt lat="47.00466" lon="5.4362">
        <ele>194</ele>
        <time>2014-04-23T08:16:26Z</time>
      </trkpt>
      <trkpt lat="47.00463" lon="5.43614">
        <ele>194</ele>
        <time>2014-04-23T08:16:30Z</time>
      </trkpt>
      <trkpt lat="47.00459" lon="5.43608">
        <ele>194</ele>
        <time>2014-04-23T08:16:34Z</time>
      </trkpt>
      <trkpt lat="47.00455" lon="5.43596">
        <ele>194</ele>
        <time>2014-04-23T08:16:40Z</time>
      </trkpt>
      <trkpt lat="47.00453" lon="5.43589">
        <ele>195</ele>
        <time>2014-04-23T08:16:44Z</time>
      </trkpt>
      <trkpt lat="47.00451" lon="5.43584">
        <ele>195</ele>
        <time>2014-04-23T08:16:48Z</time>
      </trkpt>
      <trkpt lat="47.00449" lon="5.43578">
        <ele>195</ele>
        <time>2014-04-23T08:16:52Z</time>
      </trkpt>
      <trkpt lat="47.00446" lon="5.43571">
        <ele>196</ele>
        <time>2014-04-23T08:16:56Z</time>
      </trkpt>
      <trkpt lat="47.00444" lon="5.43566">
        <ele>196</ele>
        <time>2014-04-23T08:16:59Z</time>
      </trkpt>
      <trkpt lat="47.00439" lon="5.43561">
        <ele>196</ele>
        <time>2014-04-23T08:17:03Z</time>
      </trkpt>
      <trkpt lat="47.00435" lon="5.43562">
        <ele>195</ele>
        <time>2014-04-23T08:17:07Z</time>
      </trkpt>
      <trkpt lat="47.0043" lon="5.4356">
        <ele>195</ele>
        <time>2014-04-23T08:17:12Z</time>
      </trkpt>
      <trkpt lat="47.00424" lon="5.43557">
        <ele>194</ele>
        <time>2014-04-23T08:17:17Z</time>
      </trkpt>
      <trkpt lat="47.0042" lon="5.43554">
        <ele>194</ele>
        <time>2014-04-23T08:17:21Z</time>
      </trkpt>
      <trkpt lat="47.00415" lon="5.43549">
        <ele>194</ele>
        <time>2014-04-23T08:17:25Z</time>
      </trkpt>
      <trkpt lat="47.00411" lon="5.43545">
        <ele>194</ele>
        <time>2014-04-23T08:17:29Z</time>
      </trkpt>
      <trkpt lat="47.00408" lon="5.4354">
        <ele>194</ele>
        <time>2014-04-23T08:17:34Z</time>
      </trkpt>
      <trkpt lat="47.00407" lon="5.43533">
        <ele>194</ele>
        <time>2014-04-23T08:17:39Z</time>
      </trkpt>
      <trkpt lat="47.00406" lon="5.43525">
        <ele>194</ele>
        <time>2014-04-23T08:17:44Z</time>
      </trkpt>
      <trkpt lat="47.00408" lon="5.43518">
        <ele>194</ele>
        <time>2014-04-23T08:17:48Z</time>
      </trkpt>
      <trkpt lat="47.0041" lon="5.43512">
        <ele>193</ele>
        <time>2014-04-23T08:17:52Z</time>
      </trkpt>
      <trkpt lat="47.00412" lon="5.43506">
        <ele>193</ele>
        <time>2014-04-23T08:17:56Z</time>
      </trkpt>
      <trkpt lat="47.00412" lon="5.43499">
        <ele>193</ele>
        <time>2014-04-23T08:18:00Z</time>
      </trkpt>
      <trkpt lat="47.00413" lon="5.43492">
        <ele>193</ele>
        <time>2014-04-23T08:18:04Z</time>
      </trkpt>
      <trkpt lat="47.00414" lon="5.43485">
        <ele>192</ele>
        <time>2014-04-23T08:18:09Z</time>
      </trkpt>
      <trkpt lat="47.00415" lon="5.43478">
        <ele>192</ele>
        <time>2014-04-23T08:18:13Z</time>
      </trkpt>
      <trkpt lat="47.00418" lon="5.43472">
        <ele>193</ele>
        <time>2014-04-23T08:18:17Z</time>
      </trkpt>
      <trkpt lat="47.00421" lon="5.43465">
        <ele>193</ele>
        <time>2014-04-23T08:18:22Z</time>
      </trkpt>
      <trkpt lat="47.00423" lon="5.43459">
        <ele>192</ele>
        <time>2014-04-23T08:18:27Z</time>
      </trkpt>
      <trkpt lat="47.00424" lon="5.43452">
        <ele>192</ele>
        <time>2014-04-23T08:18:31Z</time>
      </trkpt>
      <trkpt lat="47.00426" lon="5.43445">
        <ele>192</ele>
        <time>2014-04-23T08:18:35Z</time>
      </trkpt>
      <trkpt lat="47.00429" lon="5.4343">
        <ele>192</ele>
        <time>2014-04-23T08:18:42Z</time>
      </trkpt>
      <trkpt lat="47.00431" lon="5.43417">
        <ele>192</ele>
        <time>2014-04-23T08:18:48Z</time>
      </trkpt>
      <trkpt lat="47.00432" lon="5.43409">
        <ele>191</ele>
        <time>2014-04-23T08:18:52Z</time>
      </trkpt>
      <trkpt lat="47.00433" lon="5.43403">
        <ele>192</ele>
        <time>2014-04-23T08:18:56Z</time>
      </trkpt>
      <trkpt lat="47.00433" lon="5.43395">
        <ele>192</ele>
        <time>2014-04-23T08:19:00Z</time>
      </trkpt>
      <trkpt lat="47.00434" lon="5.43388">
        <ele>192</ele>
        <time>2014-04-23T08:19:04Z</time>
      </trkpt>
      <trkpt lat="47.00435" lon="5.43381">
        <ele>191</ele>
        <time>2014-04-23T08:19:08Z</time>
      </trkpt>
      <trkpt lat="47.00435" lon="5.43373">
        <ele>192</ele>
        <time>2014-04-23T08:19:12Z</time>
      </trkpt>
      <trkpt lat="47.00436" lon="5.43365">
        <ele>192</ele>
        <time>2014-04-23T08:19:16Z</time>
      </trkpt>
      <trkpt lat="47.00437" lon="5.43358">
        <ele>192</ele>
        <time>2014-04-23T08:19:20Z</time>
      </trkpt>
      <trkpt lat="47.00437" lon="5.43351">
        <ele>192</ele>
        <time>2014-04-23T08:19:24Z</time>
      </trkpt>
      <trkpt lat="47.00437" lon="5.43343">
        <ele>192</ele>
        <time>2014-04-23T08:19:29Z</time>
      </trkpt>
      <trkpt lat="47.00438" lon="5.43335">
        <ele>192</ele>
        <time>2014-04-23T08:19:33Z</time>
      </trkpt>
      <trkpt lat="47.00437" lon="5.43328">
        <ele>192</ele>
        <time>2014-04-23T08:19:36Z</time>
      </trkpt>
      <trkpt lat="47.00436" lon="5.43321">
        <ele>192</ele>
        <time>2014-04-23T08:19:40Z</time>
      </trkpt>
      <trkpt lat="47.00434" lon="5.43313">
        <ele>193</ele>
        <time>2014-04-23T08:19:45Z</time>
      </trkpt>
      <trkpt lat="47.00431" lon="5.43307">
        <ele>193</ele>
        <time>2014-04-23T08:19:49Z</time>
      </trkpt>
      <trkpt lat="47.00429" lon="5.433">
        <ele>193</ele>
        <time>2014-04-23T08:19:54Z</time>
      </trkpt>
      <trkpt lat="47.00425" lon="5.43294">
        <ele>193</ele>
        <time>2014-04-23T08:19:59Z</time>
      </trkpt>
      <trkpt lat="47.0042" lon="5.43289">
        <ele>193</ele>
        <time>2014-04-23T08:20:03Z</time>
      </trkpt>
      <trkpt lat="47.00416" lon="5.43285">
        <ele>193</ele>
        <time>2014-04-23T08:20:06Z</time>
      </trkpt>
      <trkpt lat="47.00412" lon="5.4328">
        <ele>193</ele>
        <time>2014-04-23T08:20:09Z</time>
      </trkpt>
      <trkpt lat="47.00409" lon="5.43275">
        <ele>193</ele>
        <time>2014-04-23T08:20:12Z</time>
      </trkpt>
      <trkpt lat="47.00404" lon="5.4327">
        <ele>193</ele>
        <time>2014-04-23T08:20:16Z</time>
      </trkpt>
      <trkpt lat="47.004" lon="5.43265">
        <ele>194</ele>
        <time>2014-04-23T08:20:20Z</time>
      </trkpt>
      <trkpt lat="47.00396" lon="5.43261">
        <ele>194</ele>
        <time>2014-04-23T08:20:24Z</time>
      </trkpt>
      <trkpt lat="47.00392" lon="5.43256">
        <ele>194</ele>
        <time>2014-04-23T08:20:28Z</time>
      </trkpt>
      <trkpt lat="47.00389" lon="5.43251">
        <ele>194</ele>
        <time>2014-04-23T08:20:32Z</time>
      </trkpt>
      <trkpt lat="47.00386" lon="5.43244">
        <ele>194</ele>
        <time>2014-04-23T08:20:37Z</time>
      </trkpt>
      <trkpt lat="47.00383" lon="5.43238">
        <ele>194</ele>
        <time>2014-04-23T08:20:42Z</time>
      </trkpt>
      <trkpt lat="47.00381" lon="5.4323">
        <ele>194</ele>
        <time>2014-04-23T08:20:47Z</time>
      </trkpt>
      <trkpt lat="47.00379" lon="5.43224">
        <ele>193</ele>
        <time>2014-04-23T08:20:51Z</time>
      </trkpt>
      <trkpt lat="47.00379" lon="5.43217">
        <ele>194</ele>
        <time>2014-04-23T08:20:55Z</time>
      </trkpt>
      <trkpt lat="47.00378" lon="5.43209">
        <ele>193</ele>
        <time>2014-04-23T08:20:59Z</time>
      </trkpt>
      <trkpt lat="47.00376" lon="5.43202">
        <ele>193</ele>
        <time>2014-04-23T08:21:03Z</time>
      </trkpt>
      <trkpt lat="47.00374" lon="5.43194">
        <ele>194</ele>
        <time>2014-04-23T08:21:08Z</time>
      </trkpt>
      <trkpt lat="47.00373" lon="5.43179">
        <ele>194</ele>
        <time>2014-04-23T08:21:16Z</time>
      </trkpt>
      <trkpt lat="47.00371" lon="5.43166">
        <ele>194</ele>
        <time>2014-04-23T08:21:23Z</time>
      </trkpt>
      <trkpt lat="47.00368" lon="5.43157">
        <ele>195</ele>
        <time>2014-04-23T08:21:30Z</time>
      </trkpt>
      <trkpt lat="47.00365" lon="5.4315">
        <ele>195</ele>
        <time>2014-04-23T08:21:35Z</time>
      </trkpt>
      <trkpt lat="47.00361" lon="5.43147">
        <ele>195</ele>
        <time>2014-04-23T08:21:39Z</time>
      </trkpt>
      <trkpt lat="47.00356" lon="5.43144">
        <ele>195</ele>
        <time>2014-04-23T08:21:43Z</time>
      </trkpt>
      <trkpt lat="47.00351" lon="5.4314">
        <ele>195</ele>
        <time>2014-04-23T08:21:47Z</time>
      </trkpt>
      <trkpt lat="47.00347" lon="5.43135">
        <ele>195</ele>
        <time>2014-04-23T08:21:51Z</time>
      </trkpt>
      <trkpt lat="47.00343" lon="5.4313">
        <ele>196</ele>
        <time>2014-04-23T08:21:54Z</time>
      </trkpt>
      <trkpt lat="47.0034" lon="5.43124">
        <ele>196</ele>
        <time>2014-04-23T08:21:57Z</time>
      </trkpt>
      <trkpt lat="47.00336" lon="5.43121">
        <ele>196</ele>
        <time>2014-04-23T08:22:02Z</time>
      </trkpt>
      <trkpt lat="47.00333" lon="5.43116">
        <ele>196</ele>
        <time>2014-04-23T08:22:08Z</time>
      </trkpt>
      <trkpt lat="47.00336" lon="5.43111">
        <ele>196</ele>
        <time>2014-04-23T08:22:15Z</time>
      </trkpt>
      <trkpt lat="47.00339" lon="5.43111">
        <ele>196</ele>
        <time>2014-04-23T08:22:33Z</time>
      </trkpt>
      <trkpt lat="47.00339" lon="5.43104">
        <ele>196</ele>
        <time>2014-04-23T08:22:41Z</time>
      </trkpt>
      <trkpt lat="47.00342" lon="5.43097">
        <ele>196</ele>
        <time>2014-04-23T08:22:55Z</time>
      </trkpt>
      <trkpt lat="47.0034" lon="5.4309">
        <ele>197</ele>
        <time>2014-04-23T08:23:01Z</time>
      </trkpt>
      <trkpt lat="47.00338" lon="5.43077">
        <ele>196</ele>
        <time>2014-04-23T08:23:10Z</time>
      </trkpt>
      <trkpt lat="47.00339" lon="5.43062">
        <ele>196</ele>
        <time>2014-04-23T08:23:21Z</time>
      </trkpt>
      <trkpt lat="47.0034" lon="5.43047">
        <ele>195</ele>
        <time>2014-04-23T08:23:32Z</time>
      </trkpt>
      <trkpt lat="47.0034" lon="5.43033">
        <ele>194</ele>
        <time>2014-04-23T08:23:41Z</time>
      </trkpt>
      <trkpt lat="47.00343" lon="5.43019">
        <ele>194</ele>
        <time>2014-04-23T08:23:48Z</time>
      </trkpt>
      <trkpt lat="47.00344" lon="5.43005">
        <ele>193</ele>
        <time>2014-04-23T08:23:56Z</time>
      </trkpt>
      <trkpt lat="47.00347" lon="5.42992">
        <ele>193</ele>
        <time>2014-04-23T08:24:05Z</time>
      </trkpt>
      <trkpt lat="47.00349" lon="5.42979">
        <ele>193</ele>
        <time>2014-04-23T08:24:15Z</time>
      </trkpt>
      <trkpt lat="47.00351" lon="5.42965">
        <ele>193</ele>
        <time>2014-04-23T08:24:23Z</time>
      </trkpt>
      <trkpt lat="47.00352" lon="5.42952">
        <ele>192</ele>
        <time>2014-04-23T08:24:31Z</time>
      </trkpt>
      <trkpt lat="47.00355" lon="5.42938">
        <ele>192</ele>
        <time>2014-04-23T08:24:39Z</time>
      </trkpt>
      <trkpt lat="47.00358" lon="5.42925">
        <ele>191</ele>
        <time>2014-04-23T08:24:49Z</time>
      </trkpt>
      <trkpt lat="47.0036" lon="5.42912">
        <ele>192</ele>
        <time>2014-04-23T08:24:56Z</time>
      </trkpt>
      <trkpt lat="47.00364" lon="5.42898">
        <ele>193</ele>
        <time>2014-04-23T08:25:03Z</time>
      </trkpt>
      <trkpt lat="47.0037" lon="5.42887">
        <ele>194</ele>
        <time>2014-04-23T08:25:10Z</time>
      </trkpt>
      <trkpt lat="47.00372" lon="5.42874">
        <ele>194</ele>
        <time>2014-04-23T08:25:18Z</time>
      </trkpt>
      <trkpt lat="47.00376" lon="5.42861">
        <ele>194</ele>
        <time>2014-04-23T08:25:26Z</time>
      </trkpt>
      <trkpt lat="47.00379" lon="5.42847">
        <ele>194</ele>
        <time>2014-04-23T08:25:34Z</time>
      </trkpt>
      <trkpt lat="47.00382" lon="5.42835">
        <ele>194</ele>
        <time>2014-04-23T08:25:42Z</time>
      </trkpt>
      <trkpt lat="47.00387" lon="5.42822">
        <ele>194</ele>
        <time>2014-04-23T08:25:50Z</time>
      </trkpt>
      <trkpt lat="47.00392" lon="5.4281">
        <ele>194</ele>
        <time>2014-04-23T08:25:57Z</time>
      </trkpt>
      <trkpt lat="47.004" lon="5.42801">
        <ele>194</ele>
        <time>2014-04-23T08:26:03Z</time>
      </trkpt>
      <trkpt lat="47.00405" lon="5.42789">
        <ele>193</ele>
        <time>2014-04-23T08:26:11Z</time>
      </trkpt>
      <trkpt lat="47.00412" lon="5.42779">
        <ele>193</ele>
        <time>2014-04-23T08:26:20Z</time>
      </trkpt>
      <trkpt lat="47.00415" lon="5.42766">
        <ele>192</ele>
        <time>2014-04-23T08:26:28Z</time>
      </trkpt>
      <trkpt lat="47.0042" lon="5.42755">
        <ele>192</ele>
        <time>2014-04-23T08:26:38Z</time>
      </trkpt>
      <trkpt lat="47.00429" lon="5.42749">
        <ele>192</ele>
        <time>2014-04-23T08:26:44Z</time>
      </trkpt>
      <trkpt lat="47.00436" lon="5.4274">
        <ele>193</ele>
        <time>2014-04-23T08:26:54Z</time>
      </trkpt>
      <trkpt lat="47.00444" lon="5.42731">
        <ele>193</ele>
        <time>2014-04-23T08:27:02Z</time>
      </trkpt>
      <trkpt lat="47.00453" lon="5.42722">
        <ele>193</ele>
        <time>2014-04-23T08:27:08Z</time>
      </trkpt>
      <trkpt lat="47.00459" lon="5.42712">
        <ele>193</ele>
        <time>2014-04-23T08:27:15Z</time>
      </trkpt>
      <trkpt lat="47.00466" lon="5.42703">
        <ele>193</ele>
        <time>2014-04-23T08:27:23Z</time>
      </trkpt>
      <trkpt lat="47.00473" lon="5.42693">
        <ele>193</ele>
        <time>2014-04-23T08:27:32Z</time>
      </trkpt>
      <trkpt lat="47.0048" lon="5.42684">
        <ele>193</ele>
        <time>2014-04-23T08:27:39Z</time>
      </trkpt>
      <trkpt lat="47.00487" lon="5.42674">
        <ele>193</ele>
        <time>2014-04-23T08:27:46Z</time>
      </trkpt>
      <trkpt lat="47.00493" lon="5.42662">
        <ele>193</ele>
        <time>2014-04-23T08:27:53Z</time>
      </trkpt>
      <trkpt lat="47.00498" lon="5.4265">
        <ele>192</ele>
        <time>2014-04-23T08:28:01Z</time>
      </trkpt>
      <trkpt lat="47.00503" lon="5.42639">
        <ele>192</ele>
        <time>2014-04-23T08:28:08Z</time>
      </trkpt>
      <trkpt lat="47.0051" lon="5.4263">
        <ele>192</ele>
        <time>2014-04-23T08:28:16Z</time>
      </trkpt>
      <trkpt lat="47.00519" lon="5.42622">
        <ele>193</ele>
        <time>2014-04-23T08:28:23Z</time>
      </trkpt>
      <trkpt lat="47.00528" lon="5.42615">
        <ele>193</ele>
        <time>2014-04-23T08:28:30Z</time>
      </trkpt>
      <trkpt lat="47.00536" lon="5.42608">
        <ele>193</ele>
        <time>2014-04-23T08:28:39Z</time>
      </trkpt>
      <trkpt lat="47.00528" lon="5.42596">
        <ele>192</ele>
        <time>2014-04-23T08:28:54Z</time>
      </trkpt>
      <trkpt lat="47.00521" lon="5.42587">
        <ele>191</ele>
        <time>2014-04-23T08:29:04Z</time>
      </trkpt>
      <trkpt lat="47.00517" lon="5.42581">
        <ele>190</ele>
        <time>2014-04-23T08:29:09Z</time>
      </trkpt>
      <trkpt lat="47.00514" lon="5.42576">
        <ele>190</ele>
        <time>2014-04-23T08:29:14Z</time>
      </trkpt>
      <trkpt lat="47.0051" lon="5.42572">
        <ele>190</ele>
        <time>2014-04-23T08:29:19Z</time>
      </trkpt>
      <trkpt lat="47.00511" lon="5.42574">
        <ele>192</ele>
        <time>2014-04-23T08:38:27Z</time>
      </trkpt>
      <trkpt lat="47.00518" lon="5.42583">
        <ele>192</ele>
        <time>2014-04-23T08:38:37Z</time>
      </trkpt>
      <trkpt lat="47.00524" lon="5.42594">
        <ele>192</ele>
        <time>2014-04-23T08:38:48Z</time>
      </trkpt>
      <trkpt lat="47.00526" lon="5.42609">
        <ele>192</ele>
        <time>2014-04-23T08:39:00Z</time>
      </trkpt>
      <trkpt lat="47.00536" lon="5.42607">
        <ele>192</ele>
        <time>2014-04-23T08:39:10Z</time>
      </trkpt>
      <trkpt lat="47.00546" lon="5.42604">
        <ele>192</ele>
        <time>2014-04-23T08:39:17Z</time>
      </trkpt>
      <trkpt lat="47.00555" lon="5.42599">
        <ele>193</ele>
        <time>2014-04-23T08:39:24Z</time>
      </trkpt>
      <trkpt lat="47.00564" lon="5.42595">
        <ele>194</ele>
        <time>2014-04-23T08:39:31Z</time>
      </trkpt>
      <trkpt lat="47.00569" lon="5.42584">
        <ele>194</ele>
        <time>2014-04-23T08:39:40Z</time>
      </trkpt>
      <trkpt lat="47.00573" lon="5.42572">
        <ele>193</ele>
        <time>2014-04-23T08:39:48Z</time>
      </trkpt>
      <trkpt lat="47.00582" lon="5.42563">
        <ele>193</ele>
        <time>2014-04-23T08:39:58Z</time>
      </trkpt>
      <trkpt lat="47.0059" lon="5.42556">
        <ele>194</ele>
        <time>2014-04-23T08:40:04Z</time>
      </trkpt>
      <trkpt lat="47.00598" lon="5.42547">
        <ele>194</ele>
        <time>2014-04-23T08:40:13Z</time>
      </trkpt>
      <trkpt lat="47.00606" lon="5.42541">
        <ele>195</ele>
        <time>2014-04-23T08:40:22Z</time>
      </trkpt>
      <trkpt lat="47.00615" lon="5.42538">
        <ele>194</ele>
        <time>2014-04-23T08:40:35Z</time>
      </trkpt>
      <trkpt lat="47.00624" lon="5.42532">
        <ele>194</ele>
        <time>2014-04-23T08:40:41Z</time>
      </trkpt>
      <trkpt lat="47.00633" lon="5.42524">
        <ele>194</ele>
        <time>2014-04-23T08:40:47Z</time>
      </trkpt>
      <trkpt lat="47.00641" lon="5.42517">
        <ele>194</ele>
        <time>2014-04-23T08:40:54Z</time>
      </trkpt>
      <trkpt lat="47.00649" lon="5.42511">
        <ele>194</ele>
        <time>2014-04-23T08:41:04Z</time>
      </trkpt>
      <trkpt lat="47.00658" lon="5.42506">
        <ele>194</ele>
        <time>2014-04-23T08:41:12Z</time>
      </trkpt>
      <trkpt lat="47.00667" lon="5.425">
        <ele>194</ele>
        <time>2014-04-23T08:41:21Z</time>
      </trkpt>
      <trkpt lat="47.00676" lon="5.42493">
        <ele>193</ele>
        <time>2014-04-23T08:41:28Z</time>
      </trkpt>
      <trkpt lat="47.00685" lon="5.42486">
        <ele>193</ele>
        <time>2014-04-23T08:41:36Z</time>
      </trkpt>
      <trkpt lat="47.00694" lon="5.42481">
        <ele>194</ele>
        <time>2014-04-23T08:41:42Z</time>
      </trkpt>
      <trkpt lat="47.00702" lon="5.42475">
        <ele>194</ele>
        <time>2014-04-23T08:41:50Z</time>
      </trkpt>
      <trkpt lat="47.00712" lon="5.42469">
        <ele>194</ele>
        <time>2014-04-23T08:41:57Z</time>
      </trkpt>
      <trkpt lat="47.0072" lon="5.42462">
        <ele>195</ele>
        <time>2014-04-23T08:42:03Z</time>
      </trkpt>
      <trkpt lat="47.0073" lon="5.42458">
        <ele>194</ele>
        <time>2014-04-23T08:42:10Z</time>
      </trkpt>
      <trkpt lat="47.00738" lon="5.4245">
        <ele>194</ele>
        <time>2014-04-23T08:42:19Z</time>
      </trkpt>
      <trkpt lat="47.00746" lon="5.42443">
        <ele>194</ele>
        <time>2014-04-23T08:42:32Z</time>
      </trkpt>
      <trkpt lat="47.00755" lon="5.42437">
        <ele>194</ele>
        <time>2014-04-23T08:42:44Z</time>
      </trkpt>
      <trkpt lat="47.00764" lon="5.42433">
        <ele>193</ele>
        <time>2014-04-23T08:42:51Z</time>
      </trkpt>
      <trkpt lat="47.00773" lon="5.42429">
        <ele>194</ele>
        <time>2014-04-23T08:42:56Z</time>
      </trkpt>
      <trkpt lat="47.00782" lon="5.42431">
        <ele>194</ele>
        <time>2014-04-23T08:43:02Z</time>
      </trkpt>
      <trkpt lat="47.00784" lon="5.42445">
        <ele>195</ele>
        <time>2014-04-23T08:43:11Z</time>
      </trkpt>
      <trkpt lat="47.00784" lon="5.42459">
        <ele>195</ele>
        <time>2014-04-23T08:43:20Z</time>
      </trkpt>
      <trkpt lat="47.00783" lon="5.42474">
        <ele>195</ele>
        <time>2014-04-23T08:43:27Z</time>
      </trkpt>
      <trkpt lat="47.00787" lon="5.42486">
        <ele>196</ele>
        <time>2014-04-23T08:43:35Z</time>
      </trkpt>
      <trkpt lat="47.00795" lon="5.42493">
        <ele>196</ele>
        <time>2014-04-23T08:43:42Z</time>
      </trkpt>
      <trkpt lat="47.00804" lon="5.42496">
        <ele>196</ele>
        <time>2014-04-23T08:43:48Z</time>
      </trkpt>
      <trkpt lat="47.00814" lon="5.42498">
        <ele>196</ele>
        <time>2014-04-23T08:43:55Z</time>
      </trkpt>
      <trkpt lat="47.00825" lon="5.42498">
        <ele>196</ele>
        <time>2014-04-23T08:44:05Z</time>
      </trkpt>
      <trkpt lat="47.00834" lon="5.42502">
        <ele>196</ele>
        <time>2014-04-23T08:44:14Z</time>
      </trkpt>
      <trkpt lat="47.00841" lon="5.42512">
        <ele>195</ele>
        <time>2014-04-23T08:44:23Z</time>
      </trkpt>
      <trkpt lat="47.00844" lon="5.42518">
        <ele>195</ele>
        <time>2014-04-23T08:44:28Z</time>
      </trkpt>
      <trkpt lat="47.00848" lon="5.42522">
        <ele>196</ele>
        <time>2014-04-23T08:44:32Z</time>
      </trkpt>
      <trkpt lat="47.00853" lon="5.42525">
        <ele>196</ele>
        <time>2014-04-23T08:44:36Z</time>
      </trkpt>
      <trkpt lat="47.00857" lon="5.42528">
        <ele>196</ele>
        <time>2014-04-23T08:44:39Z</time>
      </trkpt>
      <trkpt lat="47.00861" lon="5.42532">
        <ele>197</ele>
        <time>2014-04-23T08:44:42Z</time>
      </trkpt>
      <trkpt lat="47.00865" lon="5.42537">
        <ele>197</ele>
        <time>2014-04-23T08:44:46Z</time>
      </trkpt>
      <trkpt lat="47.00871" lon="5.4254">
        <ele>197</ele>
        <time>2014-04-23T08:44:51Z</time>
      </trkpt>
      <trkpt lat="47.00876" lon="5.42543">
        <ele>196</ele>
        <time>2014-04-23T08:44:56Z</time>
      </trkpt>
      <trkpt lat="47.00881" lon="5.42543">
        <ele>196</ele>
        <time>2014-04-23T08:45:00Z</time>
      </trkpt>
      <trkpt lat="47.00885" lon="5.42548">
        <ele>196</ele>
        <time>2014-04-23T08:45:04Z</time>
      </trkpt>
      <trkpt lat="47.0089" lon="5.42549">
        <ele>196</ele>
        <time>2014-04-23T08:45:09Z</time>
      </trkpt>
      <trkpt lat="47.00895" lon="5.4255">
        <ele>195</ele>
        <time>2014-04-23T08:45:13Z</time>
      </trkpt>
      <trkpt lat="47.009" lon="5.42553">
        <ele>195</ele>
        <time>2014-04-23T08:45:17Z</time>
      </trkpt>
      <trkpt lat="47.00906" lon="5.42557">
        <ele>195</ele>
        <time>2014-04-23T08:45:21Z</time>
      </trkpt>
      <trkpt lat="47.0091" lon="5.42558">
        <ele>195</ele>
        <time>2014-04-23T08:45:24Z</time>
      </trkpt>
      <trkpt lat="47.00916" lon="5.42558">
        <ele>195</ele>
        <time>2014-04-23T08:45:29Z</time>
      </trkpt>
      <trkpt lat="47.0092" lon="5.4256">
        <ele>195</ele>
        <time>2014-04-23T08:45:32Z</time>
      </trkpt>
      <trkpt lat="47.00925" lon="5.42561">
        <ele>194</ele>
        <time>2014-04-23T08:45:35Z</time>
      </trkpt>
      <trkpt lat="47.0093" lon="5.42563">
        <ele>194</ele>
        <time>2014-04-23T08:45:39Z</time>
      </trkpt>
      <trkpt lat="47.00939" lon="5.42568">
        <ele>194</ele>
        <time>2014-04-23T08:45:48Z</time>
      </trkpt>
      <trkpt lat="47.00947" lon="5.42575">
        <ele>194</ele>
        <time>2014-04-23T08:45:59Z</time>
      </trkpt>
      <trkpt lat="47.00956" lon="5.42579">
        <ele>193</ele>
        <time>2014-04-23T08:46:07Z</time>
      </trkpt>
      <trkpt lat="47.00966" lon="5.42579">
        <ele>193</ele>
        <time>2014-04-23T08:46:14Z</time>
      </trkpt>
      <trkpt lat="47.00975" lon="5.42575">
        <ele>193</ele>
        <time>2014-04-23T08:46:21Z</time>
      </trkpt>
      <trkpt lat="47.00984" lon="5.4257">
        <ele>193</ele>
        <time>2014-04-23T08:46:27Z</time>
      </trkpt>
      <trkpt lat="47.00992" lon="5.42564">
        <ele>193</ele>
        <time>2014-04-23T08:46:34Z</time>
      </trkpt>
      <trkpt lat="47.01001" lon="5.42561">
        <ele>193</ele>
        <time>2014-04-23T08:46:41Z</time>
      </trkpt>
      <trkpt lat="47.0101" lon="5.42557">
        <ele>193</ele>
        <time>2014-04-23T08:46:48Z</time>
      </trkpt>
      <trkpt lat="47.01019" lon="5.42553">
        <ele>194</ele>
        <time>2014-04-23T08:46:57Z</time>
      </trkpt>
      <trkpt lat="47.01028" lon="5.42551">
        <ele>194</ele>
        <time>2014-04-23T08:47:05Z</time>
      </trkpt>
      <trkpt lat="47.01038" lon="5.4255">
        <ele>194</ele>
        <time>2014-04-23T08:47:11Z</time>
      </trkpt>
      <trkpt lat="47.01047" lon="5.42546">
        <ele>194</ele>
        <time>2014-04-23T08:47:17Z</time>
      </trkpt>
      <trkpt lat="47.01057" lon="5.42546">
        <ele>195</ele>
        <time>2014-04-23T08:47:24Z</time>
      </trkpt>
      <trkpt lat="47.01066" lon="5.42542">
        <ele>196</ele>
        <time>2014-04-23T08:47:31Z</time>
      </trkpt>
      <trkpt lat="47.01076" lon="5.42537">
        <ele>196</ele>
        <time>2014-04-23T08:47:40Z</time>
      </trkpt>
      <trkpt lat="47.01084" lon="5.4253">
        <ele>196</ele>
        <time>2014-04-23T08:47:48Z</time>
      </trkpt>
      <trkpt lat="47.01093" lon="5.42522">
        <ele>196</ele>
        <time>2014-04-23T08:47:57Z</time>
      </trkpt>
      <trkpt lat="47.011" lon="5.42512">
        <ele>196</ele>
        <time>2014-04-23T08:48:07Z</time>
      </trkpt>
      <trkpt lat="47.01107" lon="5.42504">
        <ele>195</ele>
        <time>2014-04-23T08:48:14Z</time>
      </trkpt>
      <trkpt lat="47.01116" lon="5.42496">
        <ele>195</ele>
        <time>2014-04-23T08:48:20Z</time>
      </trkpt>
      <trkpt lat="47.01125" lon="5.42488">
        <ele>195</ele>
        <time>2014-04-23T08:48:26Z</time>
      </trkpt>
      <trkpt lat="47.01132" lon="5.42478">
        <ele>196</ele>
        <time>2014-04-23T08:48:34Z</time>
      </trkpt>
      <trkpt lat="47.01139" lon="5.42469">
        <ele>197</ele>
        <time>2014-04-23T08:48:42Z</time>
      </trkpt>
      <trkpt lat="47.01146" lon="5.42461">
        <ele>197</ele>
        <time>2014-04-23T08:48:49Z</time>
      </trkpt>
      <trkpt lat="47.01154" lon="5.42452">
        <ele>197</ele>
        <time>2014-04-23T08:48:57Z</time>
      </trkpt>
      <trkpt lat="47.01158" lon="5.42445">
        <ele>196</ele>
        <time>2014-04-23T08:49:02Z</time>
      </trkpt>
      <trkpt lat="47.01161" lon="5.42439">
        <ele>196</ele>
        <time>2014-04-23T08:49:06Z</time>
      </trkpt>
      <trkpt lat="47.01163" lon="5.42432">
        <ele>195</ele>
        <time>2014-04-23T08:49:12Z</time>
      </trkpt>
      <trkpt lat="47.01167" lon="5.42427">
        <ele>194</ele>
        <time>2014-04-23T08:49:16Z</time>
      </trkpt>
      <trkpt lat="47.01171" lon="5.42423">
        <ele>193</ele>
        <time>2014-04-23T08:49:21Z</time>
      </trkpt>
      <trkpt lat="47.01174" lon="5.42417">
        <ele>193</ele>
        <time>2014-04-23T08:49:26Z</time>
      </trkpt>
      <trkpt lat="47.01176" lon="5.42409">
        <ele>193</ele>
        <time>2014-04-23T08:49:30Z</time>
      </trkpt>
      <trkpt lat="47.01179" lon="5.42405">
        <ele>194</ele>
        <time>2014-04-23T08:49:33Z</time>
      </trkpt>
      <trkpt lat="47.01182" lon="5.42398">
        <ele>195</ele>
        <time>2014-04-23T08:49:36Z</time>
      </trkpt>
      <trkpt lat="47.01185" lon="5.42392">
        <ele>195</ele>
        <time>2014-04-23T08:49:39Z</time>
      </trkpt>
      <trkpt lat="47.01188" lon="5.42385">
        <ele>195</ele>
        <time>2014-04-23T08:49:42Z</time>
      </trkpt>
      <trkpt lat="47.0119" lon="5.42379">
        <ele>195</ele>
        <time>2014-04-23T08:49:45Z</time>
      </trkpt>
      <trkpt lat="47.01193" lon="5.42372">
        <ele>194</ele>
        <time>2014-04-23T08:49:49Z</time>
      </trkpt>
      <trkpt lat="47.01196" lon="5.42366">
        <ele>193</ele>
        <time>2014-04-23T08:49:53Z</time>
      </trkpt>
      <trkpt lat="47.01199" lon="5.42362">
        <ele>193</ele>
        <time>2014-04-23T08:49:57Z</time>
      </trkpt>
      <trkpt lat="47.01202" lon="5.42357">
        <ele>193</ele>
        <time>2014-04-23T08:50:01Z</time>
      </trkpt>
      <trkpt lat="47.01206" lon="5.42351">
        <ele>194</ele>
        <time>2014-04-23T08:50:05Z</time>
      </trkpt>
      <trkpt lat="47.01211" lon="5.42347">
        <ele>195</ele>
        <time>2014-04-23T08:50:09Z</time>
      </trkpt>
      <trkpt lat="47.01215" lon="5.4234">
        <ele>195</ele>
        <time>2014-04-23T08:50:13Z</time>
      </trkpt>
      <trkpt lat="47.01218" lon="5.42334">
        <ele>195</ele>
        <time>2014-04-23T08:50:17Z</time>
      </trkpt>
      <trkpt lat="47.01221" lon="5.42328">
        <ele>195</ele>
        <time>2014-04-23T08:50:21Z</time>
      </trkpt>
      <trkpt lat="47.01225" lon="5.42324">
        <ele>196</ele>
        <time>2014-04-23T08:50:25Z</time>
      </trkpt>
      <trkpt lat="47.01229" lon="5.42321">
        <ele>196</ele>
        <time>2014-04-23T08:50:29Z</time>
      </trkpt>
      <trkpt lat="47.01233" lon="5.42316">
        <ele>196</ele>
        <time>2014-04-23T08:50:33Z</time>
      </trkpt>
      <trkpt lat="47.01238" lon="5.42314">
        <ele>196</ele>
        <time>2014-04-23T08:50:37Z</time>
      </trkpt>
      <trkpt lat="47.01243" lon="5.42315">
        <ele>196</ele>
        <time>2014-04-23T08:50:41Z</time>
      </trkpt>
      <trkpt lat="47.01248" lon="5.42317">
        <ele>196</ele>
        <time>2014-04-23T08:50:44Z</time>
      </trkpt>
      <trkpt lat="47.01252" lon="5.4232">
        <ele>196</ele>
        <time>2014-04-23T08:50:47Z</time>
      </trkpt>
      <trkpt lat="47.01256" lon="5.42323">
        <ele>197</ele>
        <time>2014-04-23T08:50:50Z</time>
      </trkpt>
      <trkpt lat="47.01261" lon="5.42325">
        <ele>197</ele>
        <time>2014-04-23T08:50:53Z</time>
      </trkpt>
      <trkpt lat="47.01266" lon="5.42329">
        <ele>197</ele>
        <time>2014-04-23T08:50:57Z</time>
      </trkpt>
      <trkpt lat="47.0127" lon="5.42332">
        <ele>197</ele>
        <time>2014-04-23T08:51:00Z</time>
      </trkpt>
      <trkpt lat="47.01276" lon="5.42335">
        <ele>198</ele>
        <time>2014-04-23T08:51:04Z</time>
      </trkpt>
      <trkpt lat="47.01281" lon="5.42336">
        <ele>198</ele>
        <time>2014-04-23T08:51:08Z</time>
      </trkpt>
      <trkpt lat="47.01286" lon="5.42339">
        <ele>198</ele>
        <time>2014-04-23T08:51:13Z</time>
      </trkpt>
      <trkpt lat="47.01291" lon="5.42342">
        <ele>197</ele>
        <time>2014-04-23T08:51:18Z</time>
      </trkpt>
      <trkpt lat="47.013" lon="5.42347">
        <ele>197</ele>
        <time>2014-04-23T08:51:25Z</time>
      </trkpt>
      <trkpt lat="47.01309" lon="5.42349">
        <ele>197</ele>
        <time>2014-04-23T08:51:32Z</time>
      </trkpt>
      <trkpt lat="47.01318" lon="5.42346">
        <ele>197</ele>
        <time>2014-04-23T08:51:40Z</time>
      </trkpt>
      <trkpt lat="47.01326" lon="5.42342">
        <ele>197</ele>
        <time>2014-04-23T08:51:47Z</time>
      </trkpt>
      <trkpt lat="47.0133" lon="5.42338">
        <ele>197</ele>
        <time>2014-04-23T08:51:51Z</time>
      </trkpt>
      <trkpt lat="47.01333" lon="5.42332">
        <ele>197</ele>
        <time>2014-04-23T08:51:55Z</time>
      </trkpt>
      <trkpt lat="47.01336" lon="5.42326">
        <ele>197</ele>
        <time>2014-04-23T08:51:59Z</time>
      </trkpt>
      <trkpt lat="47.01339" lon="5.42319">
        <ele>197</ele>
        <time>2014-04-23T08:52:03Z</time>
      </trkpt>
      <trkpt lat="47.01341" lon="5.42312">
        <ele>196</ele>
        <time>2014-04-23T08:52:07Z</time>
      </trkpt>
      <trkpt lat="47.01344" lon="5.42306">
        <ele>196</ele>
        <time>2014-04-23T08:52:12Z</time>
      </trkpt>
      <trkpt lat="47.01347" lon="5.423">
        <ele>195</ele>
        <time>2014-04-23T08:52:17Z</time>
      </trkpt>
      <trkpt lat="47.0135" lon="5.42293">
        <ele>195</ele>
        <time>2014-04-23T08:52:22Z</time>
      </trkpt>
      <trkpt lat="47.01352" lon="5.42287">
        <ele>194</ele>
        <time>2014-04-23T08:52:26Z</time>
      </trkpt>
      <trkpt lat="47.01355" lon="5.42279">
        <ele>194</ele>
        <time>2014-04-23T08:52:30Z</time>
      </trkpt>
      <trkpt lat="47.01358" lon="5.42272">
        <ele>194</ele>
        <time>2014-04-23T08:52:34Z</time>
      </trkpt>
      <trkpt lat="47.01362" lon="5.42265">
        <ele>194</ele>
        <time>2014-04-23T08:52:38Z</time>
      </trkpt>
      <trkpt lat="47.01365" lon="5.42259">
        <ele>195</ele>
        <time>2014-04-23T08:52:42Z</time>
      </trkpt>
      <trkpt lat="47.01368" lon="5.42252">
        <ele>195</ele>
        <time>2014-04-23T08:52:46Z</time>
      </trkpt>
      <trkpt lat="47.0137" lon="5.42247">
        <ele>195</ele>
        <time>2014-04-23T08:52:50Z</time>
      </trkpt>
      <trkpt lat="47.01373" lon="5.42239">
        <ele>194</ele>
        <time>2014-04-23T08:52:55Z</time>
      </trkpt>
      <trkpt lat="47.01375" lon="5.42232">
        <ele>194</ele>
        <time>2014-04-23T08:52:59Z</time>
      </trkpt>
      <trkpt lat="47.01379" lon="5.42227">
        <ele>194</ele>
        <time>2014-04-23T08:53:03Z</time>
      </trkpt>
      <trkpt lat="47.01383" lon="5.42222">
        <ele>193</ele>
        <time>2014-04-23T08:53:06Z</time>
      </trkpt>
      <trkpt lat="47.01386" lon="5.42217">
        <ele>193</ele>
        <time>2014-04-23T08:53:09Z</time>
      </trkpt>
      <trkpt lat="47.01389" lon="5.42211">
        <ele>193</ele>
        <time>2014-04-23T08:53:13Z</time>
      </trkpt>
      <trkpt lat="47.01392" lon="5.42204">
        <ele>193</ele>
        <time>2014-04-23T08:53:17Z</time>
      </trkpt>
      <trkpt lat="47.01394" lon="5.42197">
        <ele>192</ele>
        <time>2014-04-23T08:53:21Z</time>
      </trkpt>
      <trkpt lat="47.01398" lon="5.42192">
        <ele>192</ele>
        <time>2014-04-23T08:53:28Z</time>
      </trkpt>
      <trkpt lat="47.01403" lon="5.42188">
        <ele>192</ele>
        <time>2014-04-23T08:53:33Z</time>
      </trkpt>
      <trkpt lat="47.01407" lon="5.42185">
        <ele>193</ele>
        <time>2014-04-23T08:53:36Z</time>
      </trkpt>
      <trkpt lat="47.01412" lon="5.42181">
        <ele>193</ele>
        <time>2014-04-23T08:53:40Z</time>
      </trkpt>
      <trkpt lat="47.01415" lon="5.42174">
        <ele>192</ele>
        <time>2014-04-23T08:53:45Z</time>
      </trkpt>
      <trkpt lat="47.01419" lon="5.42169">
        <ele>192</ele>
        <time>2014-04-23T08:53:49Z</time>
      </trkpt>
      <trkpt lat="47.01422" lon="5.42164">
        <ele>192</ele>
        <time>2014-04-23T08:53:53Z</time>
      </trkpt>
      <trkpt lat="47.01426" lon="5.42159">
        <ele>193</ele>
        <time>2014-04-23T08:53:57Z</time>
      </trkpt>
      <trkpt lat="47.0143" lon="5.42156">
        <ele>193</ele>
        <time>2014-04-23T08:54:00Z</time>
      </trkpt>
      <trkpt lat="47.01434" lon="5.42152">
        <ele>193</ele>
        <time>2014-04-23T08:54:03Z</time>
      </trkpt>
      <trkpt lat="47.0144" lon="5.4215">
        <ele>194</ele>
        <time>2014-04-23T08:54:06Z</time>
      </trkpt>
      <trkpt lat="47.01445" lon="5.42148">
        <ele>194</ele>
        <time>2014-04-23T08:54:09Z</time>
      </trkpt>
      <trkpt lat="47.0145" lon="5.42145">
        <ele>194</ele>
        <time>2014-04-23T08:54:13Z</time>
      </trkpt>
      <trkpt lat="47.01454" lon="5.42142">
        <ele>194</ele>
        <time>2014-04-23T08:54:18Z</time>
      </trkpt>
      <trkpt lat="47.01459" lon="5.4214">
        <ele>193</ele>
        <time>2014-04-23T08:54:22Z</time>
      </trkpt>
      <trkpt lat="47.01462" lon="5.42136">
        <ele>192</ele>
        <time>2014-04-23T08:54:26Z</time>
      </trkpt>
      <trkpt lat="47.01471" lon="5.42129">
        <ele>193</ele>
        <time>2014-04-23T08:54:35Z</time>
      </trkpt>
      <trkpt lat="47.0148" lon="5.42122">
        <ele>193</ele>
        <time>2014-04-23T08:54:43Z</time>
      </trkpt>
      <trkpt lat="47.01484" lon="5.42119">
        <ele>193</ele>
        <time>2014-04-23T08:54:47Z</time>
      </trkpt>
      <trkpt lat="47.01489" lon="5.42116">
        <ele>193</ele>
        <time>2014-04-23T08:54:52Z</time>
      </trkpt>
      <trkpt lat="47.01494" lon="5.42111">
        <ele>193</ele>
        <time>2014-04-23T08:54:57Z</time>
      </trkpt>
      <trkpt lat="47.01499" lon="5.4211">
        <ele>193</ele>
        <time>2014-04-23T08:55:00Z</time>
      </trkpt>
      <trkpt lat="47.01503" lon="5.42108">
        <ele>193</ele>
        <time>2014-04-23T08:55:03Z</time>
      </trkpt>
      <trkpt lat="47.01508" lon="5.42105">
        <ele>193</ele>
        <time>2014-04-23T08:55:07Z</time>
      </trkpt>
      <trkpt lat="47.01513" lon="5.42101">
        <ele>194</ele>
        <time>2014-04-23T08:55:11Z</time>
      </trkpt>
      <trkpt lat="47.01516" lon="5.42097">
        <ele>194</ele>
        <time>2014-04-23T08:55:17Z</time>
      </trkpt>
      <trkpt lat="47.01521" lon="5.42094">
        <ele>193</ele>
        <time>2014-04-23T08:55:21Z</time>
      </trkpt>
      <trkpt lat="47.01525" lon="5.42091">
        <ele>193</ele>
        <time>2014-04-23T08:55:25Z</time>
      </trkpt>
      <trkpt lat="47.0153" lon="5.42089">
        <ele>193</ele>
        <time>2014-04-23T08:55:29Z</time>
      </trkpt>
      <trkpt lat="47.01536" lon="5.42086">
        <ele>192</ele>
        <time>2014-04-23T08:55:33Z</time>
      </trkpt>
      <trkpt lat="47.01541" lon="5.42083">
        <ele>192</ele>
        <time>2014-04-23T08:55:37Z</time>
      </trkpt>
      <trkpt lat="47.01544" lon="5.42081">
        <ele>192</ele>
        <time>2014-04-23T08:55:44Z</time>
      </trkpt>
      <trkpt lat="47.01549" lon="5.42078">
        <ele>192</ele>
        <time>2014-04-23T08:55:55Z</time>
      </trkpt>
      <trkpt lat="47.01555" lon="5.42076">
        <ele>192</ele>
        <time>2014-04-23T08:55:59Z</time>
      </trkpt>
      <trkpt lat="47.01561" lon="5.42074">
        <ele>192</ele>
        <time>2014-04-23T08:56:03Z</time>
      </trkpt>
      <trkpt lat="47.01565" lon="5.42073">
        <ele>192</ele>
        <time>2014-04-23T08:56:06Z</time>
      </trkpt>
      <trkpt lat="47.0157" lon="5.42072">
        <ele>192</ele>
        <time>2014-04-23T08:56:09Z</time>
      </trkpt>
      <trkpt lat="47.01575" lon="5.42071">
        <ele>193</ele>
        <time>2014-04-23T08:56:13Z</time>
      </trkpt>
      <trkpt lat="47.0158" lon="5.4207">
        <ele>193</ele>
        <time>2014-04-23T08:56:17Z</time>
      </trkpt>
      <trkpt lat="47.01585" lon="5.42069">
        <ele>194</ele>
        <time>2014-04-23T08:56:21Z</time>
      </trkpt>
      <trkpt lat="47.01589" lon="5.42068">
        <ele>194</ele>
        <time>2014-04-23T08:56:25Z</time>
      </trkpt>
      <trkpt lat="47.01595" lon="5.42067">
        <ele>194</ele>
        <time>2014-04-23T08:56:30Z</time>
      </trkpt>
      <trkpt lat="47.016" lon="5.42067">
        <ele>194</ele>
        <time>2014-04-23T08:56:35Z</time>
      </trkpt>
      <trkpt lat="47.01604" lon="5.42065">
        <ele>193</ele>
        <time>2014-04-23T08:56:41Z</time>
      </trkpt>
      <trkpt lat="47.01609" lon="5.42061">
        <ele>193</ele>
        <time>2014-04-23T08:56:46Z</time>
      </trkpt>
      <trkpt lat="47.01615" lon="5.4206">
        <ele>193</ele>
        <time>2014-04-23T08:56:51Z</time>
      </trkpt>
      <trkpt lat="47.0162" lon="5.4206">
        <ele>193</ele>
        <time>2014-04-23T08:56:55Z</time>
      </trkpt>
      <trkpt lat="47.01625" lon="5.42059">
        <ele>193</ele>
        <time>2014-04-23T08:56:59Z</time>
      </trkpt>
      <trkpt lat="47.0163" lon="5.42057">
        <ele>193</ele>
        <time>2014-04-23T08:57:03Z</time>
      </trkpt>
      <trkpt lat="47.01636" lon="5.42057">
        <ele>193</ele>
        <time>2014-04-23T08:57:08Z</time>
      </trkpt>
      <trkpt lat="47.01642" lon="5.42057">
        <ele>193</ele>
        <time>2014-04-23T08:57:12Z</time>
      </trkpt>
      <trkpt lat="47.01646" lon="5.42058">
        <ele>193</ele>
        <time>2014-04-23T08:57:15Z</time>
      </trkpt>
      <trkpt lat="47.01652" lon="5.42058">
        <ele>193</ele>
        <time>2014-04-23T08:57:19Z</time>
      </trkpt>
      <trkpt lat="47.01656" lon="5.42058">
        <ele>192</ele>
        <time>2014-04-23T08:57:24Z</time>
      </trkpt>
      <trkpt lat="47.01662" lon="5.42056">
        <ele>191</ele>
        <time>2014-04-23T08:57:29Z</time>
      </trkpt>
      <trkpt lat="47.01666" lon="5.42056">
        <ele>191</ele>
        <time>2014-04-23T08:57:33Z</time>
      </trkpt>
      <trkpt lat="47.01671" lon="5.42056">
        <ele>190</ele>
        <time>2014-04-23T08:57:37Z</time>
      </trkpt>
      <trkpt lat="47.01677" lon="5.42056">
        <ele>190</ele>
        <time>2014-04-23T08:57:42Z</time>
      </trkpt>
      <trkpt lat="47.01682" lon="5.42056">
        <ele>190</ele>
        <time>2014-04-23T08:57:46Z</time>
      </trkpt>
      <trkpt lat="47.01687" lon="5.42056">
        <ele>191</ele>
        <time>2014-04-23T08:57:50Z</time>
      </trkpt>
      <trkpt lat="47.01692" lon="5.42055">
        <ele>192</ele>
        <time>2014-04-23T08:57:54Z</time>
      </trkpt>
      <trkpt lat="47.01697" lon="5.42055">
        <ele>191</ele>
        <time>2014-04-23T08:57:59Z</time>
      </trkpt>
      <trkpt lat="47.01702" lon="5.42057">
        <ele>191</ele>
        <time>2014-04-23T08:58:05Z</time>
      </trkpt>
      <trkpt lat="47.01707" lon="5.42056">
        <ele>191</ele>
        <time>2014-04-23T08:58:10Z</time>
      </trkpt>
      <trkpt lat="47.01712" lon="5.42056">
        <ele>192</ele>
        <time>2014-04-23T08:58:14Z</time>
      </trkpt>
      <trkpt lat="47.01716" lon="5.42057">
        <ele>192</ele>
        <time>2014-04-23T08:58:18Z</time>
      </trkpt>
      <trkpt lat="47.01721" lon="5.42057">
        <ele>192</ele>
        <time>2014-04-23T08:58:22Z</time>
      </trkpt>
      <trkpt lat="47.01727" lon="5.42057">
        <ele>192</ele>
        <time>2014-04-23T08:58:26Z</time>
      </trkpt>
      <trkpt lat="47.01732" lon="5.42057">
        <ele>192</ele>
        <time>2014-04-23T08:58:30Z</time>
      </trkpt>
      <trkpt lat="47.01737" lon="5.42057">
        <ele>193</ele>
        <time>2014-04-23T08:58:33Z</time>
      </trkpt>
      <trkpt lat="47.01743" lon="5.42056">
        <ele>192</ele>
        <time>2014-04-23T08:58:37Z</time>
      </trkpt>
      <trkpt lat="47.01747" lon="5.42055">
        <ele>192</ele>
        <time>2014-04-23T08:58:41Z</time>
      </trkpt>
      <trkpt lat="47.01753" lon="5.42056">
        <ele>192</ele>
        <time>2014-04-23T08:58:45Z</time>
      </trkpt>
      <trkpt lat="47.01759" lon="5.42055">
        <ele>192</ele>
        <time>2014-04-23T08:58:49Z</time>
      </trkpt>
      <trkpt lat="47.01763" lon="5.42056">
        <ele>192</ele>
        <time>2014-04-23T08:58:53Z</time>
      </trkpt>
      <trkpt lat="47.01767" lon="5.4206">
        <ele>192</ele>
        <time>2014-04-23T08:58:58Z</time>
      </trkpt>
      <trkpt lat="47.01769" lon="5.42067">
        <ele>192</ele>
        <time>2014-04-23T08:59:03Z</time>
      </trkpt>
      <trkpt lat="47.0177" lon="5.42074">
        <ele>191</ele>
        <time>2014-04-23T08:59:07Z</time>
      </trkpt>
      <trkpt lat="47.01772" lon="5.42081">
        <ele>191</ele>
        <time>2014-04-23T08:59:10Z</time>
      </trkpt>
      <trkpt lat="47.01776" lon="5.42093">
        <ele>191</ele>
        <time>2014-04-23T08:59:16Z</time>
      </trkpt>
      <trkpt lat="47.01775" lon="5.42109">
        <ele>191</ele>
        <time>2014-04-23T08:59:24Z</time>
      </trkpt>
      <trkpt lat="47.01774" lon="5.42116">
        <ele>191</ele>
        <time>2014-04-23T08:59:28Z</time>
      </trkpt>
      <trkpt lat="47.01775" lon="5.42122">
        <ele>190</ele>
        <time>2014-04-23T08:59:32Z</time>
      </trkpt>
      <trkpt lat="47.01776" lon="5.4213">
        <ele>190</ele>
        <time>2014-04-23T08:59:36Z</time>
      </trkpt>
      <trkpt lat="47.01777" lon="5.42137">
        <ele>191</ele>
        <time>2014-04-23T08:59:40Z</time>
      </trkpt>
      <trkpt lat="47.0178" lon="5.42143">
        <ele>191</ele>
        <time>2014-04-23T08:59:44Z</time>
      </trkpt>
      <trkpt lat="47.01783" lon="5.42148">
        <ele>191</ele>
        <time>2014-04-23T08:59:48Z</time>
      </trkpt>
      <trkpt lat="47.01788" lon="5.42148">
        <ele>191</ele>
        <time>2014-04-23T08:59:51Z</time>
      </trkpt>
      <trkpt lat="47.01793" lon="5.42145">
        <ele>191</ele>
        <time>2014-04-23T08:59:54Z</time>
      </trkpt>
      <trkpt lat="47.01797" lon="5.42144">
        <ele>191</ele>
        <time>2014-04-23T08:59:58Z</time>
      </trkpt>
      <trkpt lat="47.01802" lon="5.4214">
        <ele>191</ele>
        <time>2014-04-23T09:00:02Z</time>
      </trkpt>
      <trkpt lat="47.01808" lon="5.42139">
        <ele>191</ele>
        <time>2014-04-23T09:00:06Z</time>
      </trkpt>
      <trkpt lat="47.01813" lon="5.42139">
        <ele>192</ele>
        <time>2014-04-23T09:00:09Z</time>
      </trkpt>
      <trkpt lat="47.01818" lon="5.42139">
        <ele>192</ele>
        <time>2014-04-23T09:00:12Z</time>
      </trkpt>
      <trkpt lat="47.01823" lon="5.4214">
        <ele>192</ele>
        <time>2014-04-23T09:00:17Z</time>
      </trkpt>
      <trkpt lat="47.01825" lon="5.42147">
        <ele>192</ele>
        <time>2014-04-23T09:00:21Z</time>
      </trkpt>
      <trkpt lat="47.01827" lon="5.42153">
        <ele>192</ele>
        <time>2014-04-23T09:00:25Z</time>
      </trkpt>
      <trkpt lat="47.01829" lon="5.42161">
        <ele>192</ele>
        <time>2014-04-23T09:00:30Z</time>
      </trkpt>
      <trkpt lat="47.01829" lon="5.42168">
        <ele>191</ele>
        <time>2014-04-23T09:00:34Z</time>
      </trkpt>
      <trkpt lat="47.0183" lon="5.42175">
        <ele>191</ele>
        <time>2014-04-23T09:00:38Z</time>
      </trkpt>
      <trkpt lat="47.01835" lon="5.42187">
        <ele>191</ele>
        <time>2014-04-23T09:00:46Z</time>
      </trkpt>
      <trkpt lat="47.01837" lon="5.42194">
        <ele>191</ele>
        <time>2014-04-23T09:00:50Z</time>
      </trkpt>
      <trkpt lat="47.01839" lon="5.42201">
        <ele>191</ele>
        <time>2014-04-23T09:00:54Z</time>
      </trkpt>
      <trkpt lat="47.01842" lon="5.42208">
        <ele>191</ele>
        <time>2014-04-23T09:00:58Z</time>
      </trkpt>
      <trkpt lat="47.01846" lon="5.42214">
        <ele>191</ele>
        <time>2014-04-23T09:01:03Z</time>
      </trkpt>
      <trkpt lat="47.01849" lon="5.42219">
        <ele>191</ele>
        <time>2014-04-23T09:01:08Z</time>
      </trkpt>
      <trkpt lat="47.01852" lon="5.42226">
        <ele>191</ele>
        <time>2014-04-23T09:01:13Z</time>
      </trkpt>
      <trkpt lat="47.01857" lon="5.4223">
        <ele>191</ele>
        <time>2014-04-23T09:01:17Z</time>
      </trkpt>
      <trkpt lat="47.01861" lon="5.42234">
        <ele>192</ele>
        <time>2014-04-23T09:01:21Z</time>
      </trkpt>
      <trkpt lat="47.01865" lon="5.4224">
        <ele>192</ele>
        <time>2014-04-23T09:01:25Z</time>
      </trkpt>
      <trkpt lat="47.0187" lon="5.42244">
        <ele>193</ele>
        <time>2014-04-23T09:01:28Z</time>
      </trkpt>
      <trkpt lat="47.01875" lon="5.42249">
        <ele>193</ele>
        <time>2014-04-23T09:01:32Z</time>
      </trkpt>
      <trkpt lat="47.01879" lon="5.42255">
        <ele>194</ele>
        <time>2014-04-23T09:01:36Z</time>
      </trkpt>
      <trkpt lat="47.01882" lon="5.4226">
        <ele>195</ele>
        <time>2014-04-23T09:01:39Z</time>
      </trkpt>
      <trkpt lat="47.01885" lon="5.42265">
        <ele>195</ele>
        <time>2014-04-23T09:01:43Z</time>
      </trkpt>
      <trkpt lat="47.01889" lon="5.42271">
        <ele>194</ele>
        <time>2014-04-23T09:01:48Z</time>
      </trkpt>
      <trkpt lat="47.01893" lon="5.42275">
        <ele>194</ele>
        <time>2014-04-23T09:01:52Z</time>
      </trkpt>
      <trkpt lat="47.01896" lon="5.42281">
        <ele>194</ele>
        <time>2014-04-23T09:01:57Z</time>
      </trkpt>
      <trkpt lat="47.019" lon="5.42284">
        <ele>193</ele>
        <time>2014-04-23T09:02:02Z</time>
      </trkpt>
      <trkpt lat="47.01904" lon="5.42289">
        <ele>193</ele>
        <time>2014-04-23T09:02:06Z</time>
      </trkpt>
      <trkpt lat="47.01908" lon="5.42294">
        <ele>193</ele>
        <time>2014-04-23T09:02:09Z</time>
      </trkpt>
      <trkpt lat="47.01912" lon="5.42299">
        <ele>193</ele>
        <time>2014-04-23T09:02:13Z</time>
      </trkpt>
      <trkpt lat="47.01916" lon="5.42303">
        <ele>193</ele>
        <time>2014-04-23T09:02:17Z</time>
      </trkpt>
      <trkpt lat="47.0192" lon="5.42309">
        <ele>192</ele>
        <time>2014-04-23T09:02:21Z</time>
      </trkpt>
      <trkpt lat="47.01924" lon="5.42313">
        <ele>192</ele>
        <time>2014-04-23T09:02:25Z</time>
      </trkpt>
      <trkpt lat="47.01927" lon="5.42318">
        <ele>192</ele>
        <time>2014-04-23T09:02:30Z</time>
      </trkpt>
      <trkpt lat="47.01932" lon="5.42315">
        <ele>193</ele>
        <time>2014-04-23T09:02:39Z</time>
      </trkpt>
      <trkpt lat="47.01933" lon="5.42318">
        <ele>194</ele>
        <time>2014-04-23T09:02:56Z</time>
      </trkpt>
      <trkpt lat="47.01937" lon="5.42323">
        <ele>194</ele>
        <time>2014-04-23T09:03:00Z</time>
      </trkpt>
      <trkpt lat="47.01939" lon="5.4233">
        <ele>193</ele>
        <time>2014-04-23T09:03:05Z</time>
      </trkpt>
      <trkpt lat="47.01943" lon="5.42336">
        <ele>193</ele>
        <time>2014-04-23T09:03:10Z</time>
      </trkpt>
      <trkpt lat="47.01947" lon="5.42341">
        <ele>193</ele>
        <time>2014-04-23T09:03:15Z</time>
      </trkpt>
      <trkpt lat="47.01951" lon="5.42343">
        <ele>193</ele>
        <time>2014-04-23T09:03:19Z</time>
      </trkpt>
      <trkpt lat="47.01956" lon="5.42347">
        <ele>194</ele>
        <time>2014-04-23T09:03:23Z</time>
      </trkpt>
      <trkpt lat="47.0196" lon="5.4235">
        <ele>193</ele>
        <time>2014-04-23T09:03:27Z</time>
      </trkpt>
      <trkpt lat="47.01964" lon="5.42354">
        <ele>193</ele>
        <time>2014-04-23T09:03:31Z</time>
      </trkpt>
      <trkpt lat="47.01969" lon="5.42356">
        <ele>193</ele>
        <time>2014-04-23T09:03:34Z</time>
      </trkpt>
      <trkpt lat="47.01973" lon="5.42358">
        <ele>193</ele>
        <time>2014-04-23T09:03:37Z</time>
      </trkpt>
      <trkpt lat="47.01977" lon="5.42363">
        <ele>193</ele>
        <time>2014-04-23T09:03:41Z</time>
      </trkpt>
      <trkpt lat="47.01981" lon="5.42367">
        <ele>193</ele>
        <time>2014-04-23T09:03:45Z</time>
      </trkpt>
      <trkpt lat="47.01985" lon="5.42372">
        <ele>193</ele>
        <time>2014-04-23T09:03:50Z</time>
      </trkpt>
      <trkpt lat="47.01989" lon="5.42375">
        <ele>193</ele>
        <time>2014-04-23T09:03:54Z</time>
      </trkpt>
      <trkpt lat="47.01993" lon="5.42379">
        <ele>193</ele>
        <time>2014-04-23T09:03:58Z</time>
      </trkpt>
      <trkpt lat="47.01998" lon="5.42382">
        <ele>194</ele>
        <time>2014-04-23T09:04:03Z</time>
      </trkpt>
      <trkpt lat="47.02001" lon="5.42387">
        <ele>194</ele>
        <time>2014-04-23T09:04:08Z</time>
      </trkpt>
      <trkpt lat="47.02003" lon="5.42394">
        <ele>194</ele>
        <time>2014-04-23T09:04:12Z</time>
      </trkpt>
      <trkpt lat="47.02004" lon="5.42402">
        <ele>194</ele>
        <time>2014-04-23T09:04:16Z</time>
      </trkpt>
      <trkpt lat="47.02003" lon="5.42409">
        <ele>194</ele>
        <time>2014-04-23T09:04:20Z</time>
      </trkpt>
      <trkpt lat="47.02004" lon="5.42417">
        <ele>195</ele>
        <time>2014-04-23T09:04:25Z</time>
      </trkpt>
      <trkpt lat="47.02004" lon="5.42425">
        <ele>195</ele>
        <time>2014-04-23T09:04:30Z</time>
      </trkpt>
      <trkpt lat="47.02004" lon="5.42432">
        <ele>195</ele>
        <time>2014-04-23T09:04:34Z</time>
      </trkpt>
      <trkpt lat="47.02007" lon="5.42439">
        <ele>195</ele>
        <time>2014-04-23T09:04:39Z</time>
      </trkpt>
      <trkpt lat="47.02006" lon="5.42447">
        <ele>194</ele>
        <time>2014-04-23T09:04:43Z</time>
      </trkpt>
      <trkpt lat="47.02006" lon="5.42454">
        <ele>194</ele>
        <time>2014-04-23T09:04:46Z</time>
      </trkpt>
      <trkpt lat="47.02007" lon="5.42461">
        <ele>193</ele>
        <time>2014-04-23T09:04:49Z</time>
      </trkpt>
      <trkpt lat="47.02008" lon="5.42468">
        <ele>193</ele>
        <time>2014-04-23T09:04:53Z</time>
      </trkpt>
      <trkpt lat="47.02012" lon="5.42474">
        <ele>193</ele>
        <time>2014-04-23T09:04:58Z</time>
      </trkpt>
      <trkpt lat="47.02015" lon="5.4248">
        <ele>193</ele>
        <time>2014-04-23T09:05:03Z</time>
      </trkpt>
      <trkpt lat="47.02017" lon="5.42486">
        <ele>193</ele>
        <time>2014-04-23T09:05:07Z</time>
      </trkpt>
      <trkpt lat="47.02018" lon="5.42494">
        <ele>194</ele>
        <time>2014-04-23T09:05:11Z</time>
      </trkpt>
      <trkpt lat="47.0202" lon="5.42501">
        <ele>194</ele>
        <time>2014-04-23T09:05:15Z</time>
      </trkpt>
      <trkpt lat="47.02022" lon="5.42507">
        <ele>194</ele>
        <time>2014-04-23T09:05:19Z</time>
      </trkpt>
      <trkpt lat="47.02023" lon="5.42514">
        <ele>194</ele>
        <time>2014-04-23T09:05:23Z</time>
      </trkpt>
      <trkpt lat="47.02025" lon="5.42521">
        <ele>194</ele>
        <time>2014-04-23T09:05:27Z</time>
      </trkpt>
      <trkpt lat="47.02028" lon="5.42527">
        <ele>194</ele>
        <time>2014-04-23T09:05:31Z</time>
      </trkpt>
      <trkpt lat="47.02031" lon="5.42533">
        <ele>194</ele>
        <time>2014-04-23T09:05:35Z</time>
      </trkpt>
      <trkpt lat="47.02034" lon="5.4254">
        <ele>194</ele>
        <time>2014-04-23T09:05:39Z</time>
      </trkpt>
      <trkpt lat="47.02038" lon="5.42545">
        <ele>194</ele>
        <time>2014-04-23T09:05:43Z</time>
      </trkpt>
      <trkpt lat="47.02039" lon="5.42552">
        <ele>194</ele>
        <time>2014-04-23T09:05:47Z</time>
      </trkpt>
      <trkpt lat="47.02039" lon="5.42562">
        <ele>194</ele>
        <time>2014-04-23T09:05:51Z</time>
      </trkpt>
      <trkpt lat="47.02043" lon="5.42566">
        <ele>194</ele>
        <time>2014-04-23T09:05:55Z</time>
      </trkpt>
      <trkpt lat="47.02048" lon="5.42569">
        <ele>193</ele>
        <time>2014-04-23T09:05:59Z</time>
      </trkpt>
      <trkpt lat="47.0205" lon="5.42577">
        <ele>193</ele>
        <time>2014-04-23T09:06:03Z</time>
      </trkpt>
      <trkpt lat="47.02052" lon="5.42584">
        <ele>193</ele>
        <time>2014-04-23T09:06:07Z</time>
      </trkpt>
      <trkpt lat="47.02053" lon="5.42592">
        <ele>193</ele>
        <time>2014-04-23T09:06:11Z</time>
      </trkpt>
      <trkpt lat="47.02054" lon="5.42599">
        <ele>193</ele>
        <time>2014-04-23T09:06:15Z</time>
      </trkpt>
      <trkpt lat="47.02063" lon="5.42606">
        <ele>192</ele>
        <time>2014-04-23T09:06:24Z</time>
      </trkpt>
      <trkpt lat="47.02062" lon="5.42618">
        <ele>192</ele>
        <time>2014-04-23T09:06:28Z</time>
      </trkpt>
      <trkpt lat="47.02062" lon="5.42625">
        <ele>192</ele>
        <time>2014-04-23T09:06:31Z</time>
      </trkpt>
      <trkpt lat="47.02063" lon="5.42633">
        <ele>193</ele>
        <time>2014-04-23T09:06:35Z</time>
      </trkpt>
      <trkpt lat="47.02066" lon="5.4264">
        <ele>193</ele>
        <time>2014-04-23T09:06:39Z</time>
      </trkpt>
      <trkpt lat="47.02066" lon="5.42648">
        <ele>193</ele>
        <time>2014-04-23T09:06:43Z</time>
      </trkpt>
      <trkpt lat="47.02066" lon="5.42656">
        <ele>193</ele>
        <time>2014-04-23T09:06:46Z</time>
      </trkpt>
      <trkpt lat="47.02068" lon="5.42662">
        <ele>194</ele>
        <time>2014-04-23T09:06:50Z</time>
      </trkpt>
      <trkpt lat="47.02069" lon="5.42669">
        <ele>194</ele>
        <time>2014-04-23T09:06:54Z</time>
      </trkpt>
      <trkpt lat="47.02072" lon="5.42675">
        <ele>194</ele>
        <time>2014-04-23T09:06:58Z</time>
      </trkpt>
      <trkpt lat="47.02076" lon="5.4268">
        <ele>194</ele>
        <time>2014-04-23T09:07:02Z</time>
      </trkpt>
      <trkpt lat="47.02079" lon="5.42686">
        <ele>194</ele>
        <time>2014-04-23T09:07:06Z</time>
      </trkpt>
      <trkpt lat="47.02082" lon="5.42692">
        <ele>194</ele>
        <time>2014-04-23T09:07:09Z</time>
      </trkpt>
      <trkpt lat="47.02083" lon="5.42698">
        <ele>194</ele>
        <time>2014-04-23T09:07:12Z</time>
      </trkpt>
      <trkpt lat="47.02085" lon="5.42705">
        <ele>194</ele>
        <time>2014-04-23T09:07:16Z</time>
      </trkpt>
      <trkpt lat="47.02086" lon="5.42713">
        <ele>193</ele>
        <time>2014-04-23T09:07:23Z</time>
      </trkpt>
      <trkpt lat="47.02087" lon="5.42721">
        <ele>192</ele>
        <time>2014-04-23T09:07:28Z</time>
      </trkpt>
      <trkpt lat="47.02089" lon="5.42727">
        <ele>192</ele>
        <time>2014-04-23T09:07:31Z</time>
      </trkpt>
      <trkpt lat="47.02091" lon="5.42734">
        <ele>192</ele>
        <time>2014-04-23T09:07:34Z</time>
      </trkpt>
      <trkpt lat="47.02094" lon="5.42739">
        <ele>193</ele>
        <time>2014-04-23T09:07:37Z</time>
      </trkpt>
      <trkpt lat="47.02097" lon="5.42745">
        <ele>193</ele>
        <time>2014-04-23T09:07:40Z</time>
      </trkpt>
      <trkpt lat="47.021" lon="5.4275">
        <ele>193</ele>
        <time>2014-04-23T09:07:43Z</time>
      </trkpt>
      <trkpt lat="47.02104" lon="5.42755">
        <ele>193</ele>
        <time>2014-04-23T09:07:47Z</time>
      </trkpt>
      <trkpt lat="47.02109" lon="5.42756">
        <ele>193</ele>
        <time>2014-04-23T09:07:51Z</time>
      </trkpt>
      <trkpt lat="47.02112" lon="5.42763">
        <ele>193</ele>
        <time>2014-04-23T09:07:55Z</time>
      </trkpt>
      <trkpt lat="47.02119" lon="5.42775">
        <ele>194</ele>
        <time>2014-04-23T09:08:02Z</time>
      </trkpt>
      <trkpt lat="47.02125" lon="5.42787">
        <ele>194</ele>
        <time>2014-04-23T09:08:09Z</time>
      </trkpt>
      <trkpt lat="47.02131" lon="5.42798">
        <ele>194</ele>
        <time>2014-04-23T09:08:17Z</time>
      </trkpt>
      <trkpt lat="47.02137" lon="5.42808">
        <ele>195</ele>
        <time>2014-04-23T09:08:25Z</time>
      </trkpt>
      <trkpt lat="47.02144" lon="5.4282">
        <ele>195</ele>
        <time>2014-04-23T09:08:33Z</time>
      </trkpt>
      <trkpt lat="47.0215" lon="5.42832">
        <ele>195</ele>
        <time>2014-04-23T09:08:42Z</time>
      </trkpt>
      <trkpt lat="47.02155" lon="5.42844">
        <ele>194</ele>
        <time>2014-04-23T09:08:50Z</time>
      </trkpt>
      <trkpt lat="47.02161" lon="5.42855">
        <ele>194</ele>
        <time>2014-04-23T09:08:57Z</time>
      </trkpt>
      <trkpt lat="47.02165" lon="5.42867">
        <ele>194</ele>
        <time>2014-04-23T09:09:04Z</time>
      </trkpt>
      <trkpt lat="47.02171" lon="5.42879">
        <ele>194</ele>
        <time>2014-04-23T09:09:11Z</time>
      </trkpt>
      <trkpt lat="47.02174" lon="5.42892">
        <ele>194</ele>
        <time>2014-04-23T09:09:19Z</time>
      </trkpt>
      <trkpt lat="47.02175" lon="5.42907">
        <ele>193</ele>
        <time>2014-04-23T09:09:28Z</time>
      </trkpt>
      <trkpt lat="47.02178" lon="5.42921">
        <ele>192</ele>
        <time>2014-04-23T09:09:35Z</time>
      </trkpt>
      <trkpt lat="47.02182" lon="5.42933">
        <ele>193</ele>
        <time>2014-04-23T09:09:42Z</time>
      </trkpt>
      <trkpt lat="47.02185" lon="5.42947">
        <ele>194</ele>
        <time>2014-04-23T09:09:50Z</time>
      </trkpt>
      <trkpt lat="47.02188" lon="5.42961">
        <ele>195</ele>
        <time>2014-04-23T09:09:58Z</time>
      </trkpt>
      <trkpt lat="47.0219" lon="5.42975">
        <ele>195</ele>
        <time>2014-04-23T09:10:07Z</time>
      </trkpt>
      <trkpt lat="47.02192" lon="5.42989">
        <ele>194</ele>
        <time>2014-04-23T09:10:15Z</time>
      </trkpt>
      <trkpt lat="47.02193" lon="5.43002">
        <ele>194</ele>
        <time>2014-04-23T09:10:23Z</time>
      </trkpt>
      <trkpt lat="47.02194" lon="5.43017">
        <ele>194</ele>
        <time>2014-04-23T09:10:31Z</time>
      </trkpt>
      <trkpt lat="47.02195" lon="5.4302">
        <ele>194</ele>
        <time>2014-04-23T09:10:37Z</time>
      </trkpt>
      <trkpt lat="47.02193" lon="5.43027">
        <ele>193</ele>
        <time>2014-04-23T09:10:42Z</time>
      </trkpt>
      <trkpt lat="47.02192" lon="5.43035">
        <ele>192</ele>
        <time>2014-04-23T09:10:46Z</time>
      </trkpt>
      <trkpt lat="47.0219" lon="5.43044">
        <ele>192</ele>
        <time>2014-04-23T09:10:50Z</time>
      </trkpt>
      <trkpt lat="47.02191" lon="5.43052">
        <ele>192</ele>
        <time>2014-04-23T09:10:54Z</time>
      </trkpt>
      <trkpt lat="47.0219" lon="5.4306">
        <ele>192</ele>
        <time>2014-04-23T09:10:58Z</time>
      </trkpt>
      <trkpt lat="47.02189" lon="5.43068">
        <ele>191</ele>
        <time>2014-04-23T09:11:02Z</time>
      </trkpt>
      <trkpt lat="47.02189" lon="5.43075">
        <ele>190</ele>
        <time>2014-04-23T09:11:06Z</time>
      </trkpt>
      <trkpt lat="47.02189" lon="5.43083">
        <ele>191</ele>
        <time>2014-04-23T09:11:10Z</time>
      </trkpt>
      <trkpt lat="47.0219" lon="5.43091">
        <ele>192</ele>
        <time>2014-04-23T09:11:14Z</time>
      </trkpt>
      <trkpt lat="47.0219" lon="5.43099">
        <ele>192</ele>
        <time>2014-04-23T09:11:18Z</time>
      </trkpt>
      <trkpt lat="47.0219" lon="5.43107">
        <ele>193</ele>
        <time>2014-04-23T09:11:22Z</time>
      </trkpt>
      <trkpt lat="47.02192" lon="5.43113">
        <ele>193</ele>
        <time>2014-04-23T09:11:25Z</time>
      </trkpt>
      <trkpt lat="47.02189" lon="5.43121">
        <ele>193</ele>
        <time>2014-04-23T09:11:29Z</time>
      </trkpt>
      <trkpt lat="47.0219" lon="5.43128">
        <ele>193</ele>
        <time>2014-04-23T09:11:33Z</time>
      </trkpt>
      <trkpt lat="47.02191" lon="5.43142">
        <ele>193</ele>
        <time>2014-04-23T09:11:41Z</time>
      </trkpt>
      <trkpt lat="47.02188" lon="5.43156">
        <ele>193</ele>
        <time>2014-04-23T09:11:48Z</time>
      </trkpt>
      <trkpt lat="47.02184" lon="5.43167">
        <ele>192</ele>
        <time>2014-04-23T09:11:55Z</time>
      </trkpt>
      <trkpt lat="47.0218" lon="5.4318">
        <ele>191</ele>
        <time>2014-04-23T09:12:02Z</time>
      </trkpt>
      <trkpt lat="47.02176" lon="5.43194">
        <ele>190</ele>
        <time>2014-04-23T09:12:10Z</time>
      </trkpt>
      <trkpt lat="47.02175" lon="5.43207">
        <ele>191</ele>
        <time>2014-04-23T09:12:18Z</time>
      </trkpt>
      <trkpt lat="47.02175" lon="5.43221">
        <ele>191</ele>
        <time>2014-04-23T09:12:25Z</time>
      </trkpt>
      <trkpt lat="47.02175" lon="5.43233">
        <ele>192</ele>
        <time>2014-04-23T09:12:31Z</time>
      </trkpt>
      <trkpt lat="47.02175" lon="5.4324">
        <ele>192</ele>
        <time>2014-04-23T09:12:35Z</time>
      </trkpt>
      <trkpt lat="47.02175" lon="5.43248">
        <ele>192</ele>
        <time>2014-04-23T09:12:39Z</time>
      </trkpt>
      <trkpt lat="47.02176" lon="5.43255">
        <ele>192</ele>
        <time>2014-04-23T09:12:43Z</time>
      </trkpt>
      <trkpt lat="47.02176" lon="5.43263">
        <ele>193</ele>
        <time>2014-04-23T09:12:47Z</time>
      </trkpt>
      <trkpt lat="47.02176" lon="5.43271">
        <ele>193</ele>
        <time>2014-04-23T09:12:51Z</time>
      </trkpt>
      <trkpt lat="47.02176" lon="5.43278">
        <ele>193</ele>
        <time>2014-04-23T09:12:55Z</time>
      </trkpt>
      <trkpt lat="47.02177" lon="5.43285">
        <ele>193</ele>
        <time>2014-04-23T09:13:00Z</time>
      </trkpt>
      <trkpt lat="47.02176" lon="5.43292">
        <ele>193</ele>
        <time>2014-04-23T09:13:04Z</time>
      </trkpt>
      <trkpt lat="47.02174" lon="5.433">
        <ele>193</ele>
        <time>2014-04-23T09:13:08Z</time>
      </trkpt>
      <trkpt lat="47.02173" lon="5.43308">
        <ele>193</ele>
        <time>2014-04-23T09:13:12Z</time>
      </trkpt>
      <trkpt lat="47.02171" lon="5.43314">
        <ele>193</ele>
        <time>2014-04-23T09:13:16Z</time>
      </trkpt>
      <trkpt lat="47.02169" lon="5.4332">
        <ele>193</ele>
        <time>2014-04-23T09:13:20Z</time>
      </trkpt>
      <trkpt lat="47.02168" lon="5.43327">
        <ele>193</ele>
        <time>2014-04-23T09:13:25Z</time>
      </trkpt>
      <trkpt lat="47.02168" lon="5.43334">
        <ele>193</ele>
        <time>2014-04-23T09:13:29Z</time>
      </trkpt>
      <trkpt lat="47.02168" lon="5.43341">
        <ele>192</ele>
        <time>2014-04-23T09:13:35Z</time>
      </trkpt>
      <trkpt lat="47.02165" lon="5.43348">
        <ele>192</ele>
        <time>2014-04-23T09:13:39Z</time>
      </trkpt>
      <trkpt lat="47.02163" lon="5.43354">
        <ele>192</ele>
        <time>2014-04-23T09:13:42Z</time>
      </trkpt>
      <trkpt lat="47.02161" lon="5.43362">
        <ele>193</ele>
        <time>2014-04-23T09:13:46Z</time>
      </trkpt>
      <trkpt lat="47.02159" lon="5.4337">
        <ele>193</ele>
        <time>2014-04-23T09:13:50Z</time>
      </trkpt>
      <trkpt lat="47.02157" lon="5.43377">
        <ele>193</ele>
        <time>2014-04-23T09:13:54Z</time>
      </trkpt>
      <trkpt lat="47.02155" lon="5.43385">
        <ele>193</ele>
        <time>2014-04-23T09:13:58Z</time>
      </trkpt>
      <trkpt lat="47.02153" lon="5.43391">
        <ele>193</ele>
        <time>2014-04-23T09:14:02Z</time>
      </trkpt>
      <trkpt lat="47.02151" lon="5.43397">
        <ele>193</ele>
        <time>2014-04-23T09:14:06Z</time>
      </trkpt>
      <trkpt lat="47.0215" lon="5.43405">
        <ele>193</ele>
        <time>2014-04-23T09:14:10Z</time>
      </trkpt>
      <trkpt lat="47.02147" lon="5.43411">
        <ele>193</ele>
        <time>2014-04-23T09:14:14Z</time>
      </trkpt>
      <trkpt lat="47.02143" lon="5.43417">
        <ele>193</ele>
        <time>2014-04-23T09:14:18Z</time>
      </trkpt>
      <trkpt lat="47.02139" lon="5.43421">
        <ele>193</ele>
        <time>2014-04-23T09:14:22Z</time>
      </trkpt>
      <trkpt lat="47.02136" lon="5.43428">
        <ele>193</ele>
        <time>2014-04-23T09:14:26Z</time>
      </trkpt>
      <trkpt lat="47.02134" lon="5.43436">
        <ele>193</ele>
        <time>2014-04-23T09:14:30Z</time>
      </trkpt>
      <trkpt lat="47.02132" lon="5.43443">
        <ele>194</ele>
        <time>2014-04-23T09:14:34Z</time>
      </trkpt>
      <trkpt lat="47.0213" lon="5.43449">
        <ele>194</ele>
        <time>2014-04-23T09:14:38Z</time>
      </trkpt>
      <trkpt lat="47.02127" lon="5.43456">
        <ele>194</ele>
        <time>2014-04-23T09:14:42Z</time>
      </trkpt>
      <trkpt lat="47.02125" lon="5.43463">
        <ele>194</ele>
        <time>2014-04-23T09:14:46Z</time>
      </trkpt>
      <trkpt lat="47.02122" lon="5.4347">
        <ele>194</ele>
        <time>2014-04-23T09:14:50Z</time>
      </trkpt>
      <trkpt lat="47.0212" lon="5.43478">
        <ele>194</ele>
        <time>2014-04-23T09:14:54Z</time>
      </trkpt>
      <trkpt lat="47.02117" lon="5.43484">
        <ele>194</ele>
        <time>2014-04-23T09:14:58Z</time>
      </trkpt>
      <trkpt lat="47.02115" lon="5.43491">
        <ele>195</ele>
        <time>2014-04-23T09:15:02Z</time>
      </trkpt>
      <trkpt lat="47.02115" lon="5.43499">
        <ele>194</ele>
        <time>2014-04-23T09:15:06Z</time>
      </trkpt>
      <trkpt lat="47.02113" lon="5.43507">
        <ele>194</ele>
        <time>2014-04-23T09:15:10Z</time>
      </trkpt>
      <trkpt lat="47.0211" lon="5.43514">
        <ele>193</ele>
        <time>2014-04-23T09:15:14Z</time>
      </trkpt>
      <trkpt lat="47.02111" lon="5.43521">
        <ele>193</ele>
        <time>2014-04-23T09:15:18Z</time>
      </trkpt>
      <trkpt lat="47.02113" lon="5.43528">
        <ele>193</ele>
        <time>2014-04-23T09:15:23Z</time>
      </trkpt>
      <trkpt lat="47.02115" lon="5.43535">
        <ele>193</ele>
        <time>2014-04-23T09:15:28Z</time>
      </trkpt>
      <trkpt lat="47.02118" lon="5.43541">
        <ele>194</ele>
        <time>2014-04-23T09:15:32Z</time>
      </trkpt>
      <trkpt lat="47.02118" lon="5.43548">
        <ele>194</ele>
        <time>2014-04-23T09:15:36Z</time>
      </trkpt>
      <trkpt lat="47.02119" lon="5.43555">
        <ele>195</ele>
        <time>2014-04-23T09:15:40Z</time>
      </trkpt>
      <trkpt lat="47.02123" lon="5.43559">
        <ele>195</ele>
        <time>2014-04-23T09:15:45Z</time>
      </trkpt>
      <trkpt lat="47.02127" lon="5.43564">
        <ele>195</ele>
        <time>2014-04-23T09:15:50Z</time>
      </trkpt>
      <trkpt lat="47.02131" lon="5.43569">
        <ele>195</ele>
        <time>2014-04-23T09:15:55Z</time>
      </trkpt>
      <trkpt lat="47.02134" lon="5.43575">
        <ele>194</ele>
        <time>2014-04-23T09:15:59Z</time>
      </trkpt>
      <trkpt lat="47.02135" lon="5.43581">
        <ele>194</ele>
        <time>2014-04-23T09:16:03Z</time>
      </trkpt>
      <trkpt lat="47.02135" lon="5.43589">
        <ele>193</ele>
        <time>2014-04-23T09:16:08Z</time>
      </trkpt>
      <trkpt lat="47.02133" lon="5.43595">
        <ele>193</ele>
        <time>2014-04-23T09:16:12Z</time>
      </trkpt>
      <trkpt lat="47.02131" lon="5.43602">
        <ele>193</ele>
        <time>2014-04-23T09:16:16Z</time>
      </trkpt>
      <trkpt lat="47.02127" lon="5.43607">
        <ele>193</ele>
        <time>2014-04-23T09:16:20Z</time>
      </trkpt>
      <trkpt lat="47.02121" lon="5.43612">
        <ele>193</ele>
        <time>2014-04-23T09:16:24Z</time>
      </trkpt>
      <trkpt lat="47.02115" lon="5.43616">
        <ele>194</ele>
        <time>2014-04-23T09:16:28Z</time>
      </trkpt>
      <trkpt lat="47.0211" lon="5.43619">
        <ele>195</ele>
        <time>2014-04-23T09:16:32Z</time>
      </trkpt>
      <trkpt lat="47.02106" lon="5.43621">
        <ele>195</ele>
        <time>2014-04-23T09:16:35Z</time>
      </trkpt>
      <trkpt lat="47.021" lon="5.43624">
        <ele>196</ele>
        <time>2014-04-23T09:16:39Z</time>
      </trkpt>
      <trkpt lat="47.02096" lon="5.43629">
        <ele>196</ele>
        <time>2014-04-23T09:16:43Z</time>
      </trkpt>
      <trkpt lat="47.02097" lon="5.43636">
        <ele>195</ele>
        <time>2014-04-23T09:16:47Z</time>
      </trkpt>
      <trkpt lat="47.02099" lon="5.43643">
        <ele>195</ele>
        <time>2014-04-23T09:16:50Z</time>
      </trkpt>
      <trkpt lat="47.02101" lon="5.4365">
        <ele>195</ele>
        <time>2014-04-23T09:16:54Z</time>
      </trkpt>
      <trkpt lat="47.02103" lon="5.43656">
        <ele>195</ele>
        <time>2014-04-23T09:16:58Z</time>
      </trkpt>
      <trkpt lat="47.02105" lon="5.43663">
        <ele>194</ele>
        <time>2014-04-23T09:17:02Z</time>
      </trkpt>
      <trkpt lat="47.02107" lon="5.43669">
        <ele>194</ele>
        <time>2014-04-23T09:17:06Z</time>
      </trkpt>
      <trkpt lat="47.02111" lon="5.43681">
        <ele>194</ele>
        <time>2014-04-23T09:17:13Z</time>
      </trkpt>
      <trkpt lat="47.02114" lon="5.43689">
        <ele>194</ele>
        <time>2014-04-23T09:17:18Z</time>
      </trkpt>
      <trkpt lat="47.02116" lon="5.43695">
        <ele>194</ele>
        <time>2014-04-23T09:17:22Z</time>
      </trkpt>
      <trkpt lat="47.02119" lon="5.43702">
        <ele>193</ele>
        <time>2014-04-23T09:17:26Z</time>
      </trkpt>
      <trkpt lat="47.02121" lon="5.4371">
        <ele>194</ele>
        <time>2014-04-23T09:17:30Z</time>
      </trkpt>
      <trkpt lat="47.02123" lon="5.43716">
        <ele>193</ele>
        <time>2014-04-23T09:17:35Z</time>
      </trkpt>
      <trkpt lat="47.02126" lon="5.43721">
        <ele>193</ele>
        <time>2014-04-23T09:17:39Z</time>
      </trkpt>
      <trkpt lat="47.0213" lon="5.43727">
        <ele>194</ele>
        <time>2014-04-23T09:17:43Z</time>
      </trkpt>
      <trkpt lat="47.02132" lon="5.43736">
        <ele>194</ele>
        <time>2014-04-23T09:17:48Z</time>
      </trkpt>
      <trkpt lat="47.02135" lon="5.43744">
        <ele>194</ele>
        <time>2014-04-23T09:17:53Z</time>
      </trkpt>
      <trkpt lat="47.02139" lon="5.4375">
        <ele>194</ele>
        <time>2014-04-23T09:17:58Z</time>
      </trkpt>
      <trkpt lat="47.02143" lon="5.43754">
        <ele>193</ele>
        <time>2014-04-23T09:18:02Z</time>
      </trkpt>
      <trkpt lat="47.02145" lon="5.43761">
        <ele>192</ele>
        <time>2014-04-23T09:18:06Z</time>
      </trkpt>
      <trkpt lat="47.02145" lon="5.43769">
        <ele>192</ele>
        <time>2014-04-23T09:18:10Z</time>
      </trkpt>
      <trkpt lat="47.02147" lon="5.43777">
        <ele>192</ele>
        <time>2014-04-23T09:18:14Z</time>
      </trkpt>
      <trkpt lat="47.02149" lon="5.43786">
        <ele>193</ele>
        <time>2014-04-23T09:18:19Z</time>
      </trkpt>
      <trkpt lat="47.02149" lon="5.43793">
        <ele>193</ele>
        <time>2014-04-23T09:18:22Z</time>
      </trkpt>
      <trkpt lat="47.02149" lon="5.438">
        <ele>194</ele>
        <time>2014-04-23T09:18:25Z</time>
      </trkpt>
      <trkpt lat="47.02149" lon="5.43808">
        <ele>195</ele>
        <time>2014-04-23T09:18:29Z</time>
      </trkpt>
      <trkpt lat="47.02151" lon="5.43815">
        <ele>195</ele>
        <time>2014-04-23T09:18:33Z</time>
      </trkpt>
      <trkpt lat="47.02153" lon="5.43822">
        <ele>195</ele>
        <time>2014-04-23T09:18:37Z</time>
      </trkpt>
      <trkpt lat="47.02153" lon="5.43832">
        <ele>195</ele>
        <time>2014-04-23T09:18:42Z</time>
      </trkpt>
      <trkpt lat="47.02156" lon="5.43837">
        <ele>195</ele>
        <time>2014-04-23T09:18:45Z</time>
      </trkpt>
      <trkpt lat="47.02161" lon="5.43842">
        <ele>195</ele>
        <time>2014-04-23T09:18:49Z</time>
      </trkpt>
      <trkpt lat="47.02164" lon="5.43847">
        <ele>194</ele>
        <time>2014-04-23T09:18:53Z</time>
      </trkpt>
      <trkpt lat="47.02168" lon="5.4385">
        <ele>194</ele>
        <time>2014-04-23T09:18:56Z</time>
      </trkpt>
      <trkpt lat="47.02172" lon="5.43854">
        <ele>194</ele>
        <time>2014-04-23T09:19:00Z</time>
      </trkpt>
      <trkpt lat="47.02177" lon="5.43865">
        <ele>194</ele>
        <time>2014-04-23T09:19:07Z</time>
      </trkpt>
      <trkpt lat="47.0218" lon="5.43871">
        <ele>194</ele>
        <time>2014-04-23T09:19:11Z</time>
      </trkpt>
      <trkpt lat="47.02183" lon="5.43878">
        <ele>194</ele>
        <time>2014-04-23T09:19:15Z</time>
      </trkpt>
      <trkpt lat="47.02186" lon="5.43885">
        <ele>195</ele>
        <time>2014-04-23T09:19:20Z</time>
      </trkpt>
      <trkpt lat="47.02191" lon="5.43886">
        <ele>195</ele>
        <time>2014-04-23T09:19:24Z</time>
      </trkpt>
      <trkpt lat="47.02197" lon="5.43887">
        <ele>195</ele>
        <time>2014-04-23T09:19:28Z</time>
      </trkpt>
      <trkpt lat="47.02202" lon="5.43889">
        <ele>194</ele>
        <time>2014-04-23T09:19:32Z</time>
      </trkpt>
      <trkpt lat="47.02207" lon="5.4389">
        <ele>194</ele>
        <time>2014-04-23T09:19:35Z</time>
      </trkpt>
      <trkpt lat="47.02211" lon="5.43892">
        <ele>194</ele>
        <time>2014-04-23T09:19:38Z</time>
      </trkpt>
      <trkpt lat="47.02216" lon="5.43894">
        <ele>194</ele>
        <time>2014-04-23T09:19:42Z</time>
      </trkpt>
      <trkpt lat="47.02221" lon="5.43898">
        <ele>194</ele>
        <time>2014-04-23T09:19:47Z</time>
      </trkpt>
      <trkpt lat="47.02226" lon="5.439">
        <ele>193</ele>
        <time>2014-04-23T09:19:51Z</time>
      </trkpt>
      <trkpt lat="47.02231" lon="5.43903">
        <ele>193</ele>
        <time>2014-04-23T09:19:55Z</time>
      </trkpt>
      <trkpt lat="47.0224" lon="5.43908">
        <ele>193</ele>
        <time>2014-04-23T09:20:04Z</time>
      </trkpt>
      <trkpt lat="47.02249" lon="5.43914">
        <ele>194</ele>
        <time>2014-04-23T09:20:12Z</time>
      </trkpt>
      <trkpt lat="47.02258" lon="5.43919">
        <ele>194</ele>
        <time>2014-04-23T09:20:19Z</time>
      </trkpt>
      <trkpt lat="47.02267" lon="5.43923">
        <ele>193</ele>
        <time>2014-04-23T09:20:26Z</time>
      </trkpt>
      <trkpt lat="47.02276" lon="5.43927">
        <ele>194</ele>
        <time>2014-04-23T09:20:34Z</time>
      </trkpt>
      <trkpt lat="47.02285" lon="5.43933">
        <ele>194</ele>
        <time>2014-04-23T09:20:43Z</time>
      </trkpt>
      <trkpt lat="47.02294" lon="5.4394">
        <ele>194</ele>
        <time>2014-04-23T09:20:50Z</time>
      </trkpt>
      <trkpt lat="47.02302" lon="5.43948">
        <ele>195</ele>
        <time>2014-04-23T09:20:57Z</time>
      </trkpt>
      <trkpt lat="47.0231" lon="5.43955">
        <ele>195</ele>
        <time>2014-04-23T09:21:05Z</time>
      </trkpt>
      <trkpt lat="47.02318" lon="5.43964">
        <ele>195</ele>
        <time>2014-04-23T09:21:13Z</time>
      </trkpt>
      <trkpt lat="47.02325" lon="5.4397">
        <ele>194</ele>
        <time>2014-04-23T09:21:19Z</time>
      </trkpt>
      <trkpt lat="47.0233" lon="5.4397">
        <ele>194</ele>
        <time>2014-04-23T09:21:23Z</time>
      </trkpt>
      <trkpt lat="47.0233" lon="5.43977">
        <ele>195</ele>
        <time>2014-04-23T09:21:36Z</time>
      </trkpt>
      <trkpt lat="47.02334" lon="5.43984">
        <ele>195</ele>
        <time>2014-04-23T09:21:45Z</time>
      </trkpt>
      <trkpt lat="47.02336" lon="5.43993">
        <ele>196</ele>
        <time>2014-04-23T09:21:52Z</time>
      </trkpt>
      <trkpt lat="47.02339" lon="5.43999">
        <ele>195</ele>
        <time>2014-04-23T09:21:56Z</time>
      </trkpt>
      <trkpt lat="47.02343" lon="5.44004">
        <ele>195</ele>
        <time>2014-04-23T09:22:00Z</time>
      </trkpt>
      <trkpt lat="47.02346" lon="5.44009">
        <ele>195</ele>
        <time>2014-04-23T09:22:04Z</time>
      </trkpt>
      <trkpt lat="47.02348" lon="5.44016">
        <ele>194</ele>
        <time>2014-04-23T09:22:09Z</time>
      </trkpt>
      <trkpt lat="47.02351" lon="5.44023">
        <ele>194</ele>
        <time>2014-04-23T09:22:15Z</time>
      </trkpt>
      <trkpt lat="47.02354" lon="5.4403">
        <ele>194</ele>
        <time>2014-04-23T09:22:19Z</time>
      </trkpt>
      <trkpt lat="47.02359" lon="5.44042">
        <ele>194</ele>
        <time>2014-04-23T09:22:26Z</time>
      </trkpt>
      <trkpt lat="47.02366" lon="5.44052">
        <ele>194</ele>
        <time>2014-04-23T09:22:34Z</time>
      </trkpt>
      <trkpt lat="47.02372" lon="5.44062">
        <ele>194</ele>
        <time>2014-04-23T09:22:42Z</time>
      </trkpt>
      <trkpt lat="47.02375" lon="5.44071">
        <ele>195</ele>
        <time>2014-04-23T09:23:11Z</time>
      </trkpt>
      <trkpt lat="47.02378" lon="5.44075">
        <ele>195</ele>
        <time>2014-04-23T09:23:18Z</time>
      </trkpt>
      <trkpt lat="47.0238" lon="5.44082">
        <ele>195</ele>
        <time>2014-04-23T09:23:24Z</time>
      </trkpt>
      <trkpt lat="47.02382" lon="5.44089">
        <ele>195</ele>
        <time>2014-04-23T09:23:28Z</time>
      </trkpt>
      <trkpt lat="47.02385" lon="5.44096">
        <ele>195</ele>
        <time>2014-04-23T09:23:33Z</time>
      </trkpt>
      <trkpt lat="47.02388" lon="5.44101">
        <ele>196</ele>
        <time>2014-04-23T09:23:37Z</time>
      </trkpt>
      <trkpt lat="47.02391" lon="5.44108">
        <ele>196</ele>
        <time>2014-04-23T09:23:41Z</time>
      </trkpt>
      <trkpt lat="47.02394" lon="5.44115">
        <ele>196</ele>
        <time>2014-04-23T09:23:45Z</time>
      </trkpt>
      <trkpt lat="47.02398" lon="5.44121">
        <ele>196</ele>
        <time>2014-04-23T09:23:49Z</time>
      </trkpt>
      <trkpt lat="47.024" lon="5.44127">
        <ele>196</ele>
        <time>2014-04-23T09:23:53Z</time>
      </trkpt>
      <trkpt lat="47.02404" lon="5.44133">
        <ele>196</ele>
        <time>2014-04-23T09:23:57Z</time>
      </trkpt>
      <trkpt lat="47.02407" lon="5.44138">
        <ele>195</ele>
        <time>2014-04-23T09:24:01Z</time>
      </trkpt>
      <trkpt lat="47.02414" lon="5.44149">
        <ele>195</ele>
        <time>2014-04-23T09:24:08Z</time>
      </trkpt>
      <trkpt lat="47.0242" lon="5.44159">
        <ele>195</ele>
        <time>2014-04-23T09:24:14Z</time>
      </trkpt>
      <trkpt lat="47.02426" lon="5.44171">
        <ele>195</ele>
        <time>2014-04-23T09:24:21Z</time>
      </trkpt>
      <trkpt lat="47.02433" lon="5.44181">
        <ele>194</ele>
        <time>2014-04-23T09:24:27Z</time>
      </trkpt>
      <trkpt lat="47.02438" lon="5.44193">
        <ele>194</ele>
        <time>2014-04-23T09:24:35Z</time>
      </trkpt>
      <trkpt lat="47.02442" lon="5.44206">
        <ele>196</ele>
        <time>2014-04-23T09:24:45Z</time>
      </trkpt>
      <trkpt lat="47.02443" lon="5.44213">
        <ele>196</ele>
        <time>2014-04-23T09:24:50Z</time>
      </trkpt>
      <trkpt lat="47.02448" lon="5.44218">
        <ele>196</ele>
        <time>2014-04-23T09:24:55Z</time>
      </trkpt>
      <trkpt lat="47.02452" lon="5.44223">
        <ele>195</ele>
        <time>2014-04-23T09:24:59Z</time>
      </trkpt>
      <trkpt lat="47.02455" lon="5.44228">
        <ele>195</ele>
        <time>2014-04-23T09:25:03Z</time>
      </trkpt>
      <trkpt lat="47.02459" lon="5.44232">
        <ele>196</ele>
        <time>2014-04-23T09:25:07Z</time>
      </trkpt>
      <trkpt lat="47.02462" lon="5.44238">
        <ele>196</ele>
        <time>2014-04-23T09:25:11Z</time>
      </trkpt>
      <trkpt lat="47.02467" lon="5.44239">
        <ele>195</ele>
        <time>2014-04-23T09:25:14Z</time>
      </trkpt>
      <trkpt lat="47.0247" lon="5.44246">
        <ele>196</ele>
        <time>2014-04-23T09:25:18Z</time>
      </trkpt>
      <trkpt lat="47.02474" lon="5.4425">
        <ele>195</ele>
        <time>2014-04-23T09:25:23Z</time>
      </trkpt>
      <trkpt lat="47.02477" lon="5.44256">
        <ele>195</ele>
        <time>2014-04-23T09:25:28Z</time>
      </trkpt>
      <trkpt lat="47.02481" lon="5.44258">
        <ele>195</ele>
        <time>2014-04-23T09:25:32Z</time>
      </trkpt>
      <trkpt lat="47.02486" lon="5.44262">
        <ele>196</ele>
        <time>2014-04-23T09:25:36Z</time>
      </trkpt>
      <trkpt lat="47.02491" lon="5.44265">
        <ele>196</ele>
        <time>2014-04-23T09:25:40Z</time>
      </trkpt>
      <trkpt lat="47.02495" lon="5.44266">
        <ele>196</ele>
        <time>2014-04-23T09:25:44Z</time>
      </trkpt>
      <trkpt lat="47.02505" lon="5.44268">
        <ele>195</ele>
        <time>2014-04-23T09:25:51Z</time>
      </trkpt>
      <trkpt lat="47.02514" lon="5.44273">
        <ele>195</ele>
        <time>2014-04-23T09:25:58Z</time>
      </trkpt>
      <trkpt lat="47.02525" lon="5.44277">
        <ele>195</ele>
        <time>2014-04-23T09:26:07Z</time>
      </trkpt>
      <trkpt lat="47.02534" lon="5.44282">
        <ele>196</ele>
        <time>2014-04-23T09:26:14Z</time>
      </trkpt>
      <trkpt lat="47.02543" lon="5.44284">
        <ele>196</ele>
        <time>2014-04-23T09:26:21Z</time>
      </trkpt>
      <trkpt lat="47.02553" lon="5.44287">
        <ele>196</ele>
        <time>2014-04-23T09:26:27Z</time>
      </trkpt>
      <trkpt lat="47.02562" lon="5.44289">
        <ele>197</ele>
        <time>2014-04-23T09:26:35Z</time>
      </trkpt>
      <trkpt lat="47.02572" lon="5.44291">
        <ele>197</ele>
        <time>2014-04-23T09:26:43Z</time>
      </trkpt>
      <trkpt lat="47.02581" lon="5.44292">
        <ele>197</ele>
        <time>2014-04-23T09:26:50Z</time>
      </trkpt>
      <trkpt lat="47.0259" lon="5.44295">
        <ele>197</ele>
        <time>2014-04-23T09:26:57Z</time>
      </trkpt>
      <trkpt lat="47.026" lon="5.44297">
        <ele>197</ele>
        <time>2014-04-23T09:27:05Z</time>
      </trkpt>
      <trkpt lat="47.0261" lon="5.443">
        <ele>197</ele>
        <time>2014-04-23T09:27:13Z</time>
      </trkpt>
      <trkpt lat="47.02619" lon="5.44303">
        <ele>197</ele>
        <time>2014-04-23T09:27:20Z</time>
      </trkpt>
      <trkpt lat="47.02624" lon="5.44305">
        <ele>197</ele>
        <time>2014-04-23T09:27:24Z</time>
      </trkpt>
      <trkpt lat="47.02628" lon="5.44306">
        <ele>197</ele>
        <time>2014-04-23T09:27:27Z</time>
      </trkpt>
      <trkpt lat="47.02634" lon="5.44307">
        <ele>197</ele>
        <time>2014-04-23T09:27:31Z</time>
      </trkpt>
      <trkpt lat="47.02639" lon="5.44309">
        <ele>198</ele>
        <time>2014-04-23T09:27:35Z</time>
      </trkpt>
      <trkpt lat="47.02644" lon="5.4431">
        <ele>198</ele>
        <time>2014-04-23T09:27:39Z</time>
      </trkpt>
      <trkpt lat="47.02649" lon="5.44312">
        <ele>198</ele>
        <time>2014-04-23T09:27:43Z</time>
      </trkpt>
      <trkpt lat="47.02654" lon="5.44313">
        <ele>198</ele>
        <time>2014-04-23T09:27:47Z</time>
      </trkpt>
      <trkpt lat="47.02659" lon="5.44315">
        <ele>198</ele>
        <time>2014-04-23T09:27:50Z</time>
      </trkpt>
      <trkpt lat="47.02663" lon="5.44317">
        <ele>198</ele>
        <time>2014-04-23T09:27:53Z</time>
      </trkpt>
      <trkpt lat="47.02669" lon="5.44318">
        <ele>198</ele>
        <time>2014-04-23T09:27:57Z</time>
      </trkpt>
      <trkpt lat="47.02674" lon="5.4432">
        <ele>198</ele>
        <time>2014-04-23T09:28:00Z</time>
      </trkpt>
      <trkpt lat="47.0268" lon="5.4432">
        <ele>198</ele>
        <time>2014-04-23T09:28:04Z</time>
      </trkpt>
      <trkpt lat="47.02685" lon="5.44321">
        <ele>198</ele>
        <time>2014-04-23T09:28:08Z</time>
      </trkpt>
      <trkpt lat="47.02691" lon="5.44324">
        <ele>198</ele>
        <time>2014-04-23T09:28:12Z</time>
      </trkpt>
      <trkpt lat="47.02697" lon="5.44327">
        <ele>199</ele>
        <time>2014-04-23T09:28:15Z</time>
      </trkpt>
      <trkpt lat="47.02701" lon="5.44328">
        <ele>199</ele>
        <time>2014-04-23T09:28:19Z</time>
      </trkpt>
      <trkpt lat="47.02709" lon="5.44329">
        <ele>199</ele>
        <time>2014-04-23T09:28:28Z</time>
      </trkpt>
      <trkpt lat="47.0272" lon="5.44333">
        <ele>199</ele>
        <time>2014-04-23T09:28:35Z</time>
      </trkpt>
      <trkpt lat="47.02731" lon="5.44334">
        <ele>198</ele>
        <time>2014-04-23T09:28:43Z</time>
      </trkpt>
      <trkpt lat="47.02741" lon="5.44337">
        <ele>197</ele>
        <time>2014-04-23T09:28:49Z</time>
      </trkpt>
      <trkpt lat="47.0275" lon="5.44334">
        <ele>196</ele>
        <time>2014-04-23T09:28:59Z</time>
      </trkpt>
      <trkpt lat="47.0276" lon="5.44334">
        <ele>196</ele>
        <time>2014-04-23T09:29:06Z</time>
      </trkpt>
      <trkpt lat="47.02769" lon="5.44334">
        <ele>197</ele>
        <time>2014-04-23T09:29:12Z</time>
      </trkpt>
      <trkpt lat="47.02779" lon="5.44332">
        <ele>197</ele>
        <time>2014-04-23T09:29:18Z</time>
      </trkpt>
      <trkpt lat="47.02788" lon="5.44331">
        <ele>197</ele>
        <time>2014-04-23T09:29:24Z</time>
      </trkpt>
      <trkpt lat="47.02797" lon="5.44329">
        <ele>196</ele>
        <time>2014-04-23T09:29:30Z</time>
      </trkpt>
      <trkpt lat="47.02801" lon="5.44327">
        <ele>196</ele>
        <time>2014-04-23T09:29:33Z</time>
      </trkpt>
      <trkpt lat="47.02806" lon="5.44325">
        <ele>197</ele>
        <time>2014-04-23T09:29:37Z</time>
      </trkpt>
      <trkpt lat="47.02811" lon="5.44322">
        <ele>197</ele>
        <time>2014-04-23T09:29:41Z</time>
      </trkpt>
      <trkpt lat="47.02816" lon="5.44319">
        <ele>196</ele>
        <time>2014-04-23T09:29:45Z</time>
      </trkpt>
      <trkpt lat="47.02821" lon="5.44317">
        <ele>196</ele>
        <time>2014-04-23T09:29:49Z</time>
      </trkpt>
      <trkpt lat="47.02827" lon="5.44315">
        <ele>196</ele>
        <time>2014-04-23T09:29:53Z</time>
      </trkpt>
      <trkpt lat="47.02832" lon="5.44314">
        <ele>196</ele>
        <time>2014-04-23T09:29:57Z</time>
      </trkpt>
      <trkpt lat="47.02837" lon="5.4431">
        <ele>196</ele>
        <time>2014-04-23T09:30:01Z</time>
      </trkpt>
      <trkpt lat="47.02842" lon="5.44307">
        <ele>196</ele>
        <time>2014-04-23T09:30:05Z</time>
      </trkpt>
      <trkpt lat="47.02847" lon="5.44306">
        <ele>196</ele>
        <time>2014-04-23T09:30:08Z</time>
      </trkpt>
      <trkpt lat="47.02851" lon="5.44305">
        <ele>196</ele>
        <time>2014-04-23T09:30:11Z</time>
      </trkpt>
      <trkpt lat="47.02857" lon="5.44304">
        <ele>196</ele>
        <time>2014-04-23T09:30:14Z</time>
      </trkpt>
      <trkpt lat="47.02861" lon="5.44303">
        <ele>197</ele>
        <time>2014-04-23T09:30:17Z</time>
      </trkpt>
      <trkpt lat="47.02866" lon="5.443">
        <ele>197</ele>
        <time>2014-04-23T09:30:21Z</time>
      </trkpt>
      <trkpt lat="47.02872" lon="5.44298">
        <ele>196</ele>
        <time>2014-04-23T09:30:25Z</time>
      </trkpt>
      <trkpt lat="47.02877" lon="5.44297">
        <ele>197</ele>
        <time>2014-04-23T09:30:29Z</time>
      </trkpt>
      <trkpt lat="47.02883" lon="5.44294">
        <ele>197</ele>
        <time>2014-04-23T09:30:33Z</time>
      </trkpt>
      <trkpt lat="47.02887" lon="5.4429">
        <ele>197</ele>
        <time>2014-04-23T09:30:37Z</time>
      </trkpt>
      <trkpt lat="47.02897" lon="5.44285">
        <ele>198</ele>
        <time>2014-04-23T09:30:45Z</time>
      </trkpt>
      <trkpt lat="47.02906" lon="5.4428">
        <ele>198</ele>
        <time>2014-04-23T09:30:52Z</time>
      </trkpt>
      <trkpt lat="47.02915" lon="5.44277">
        <ele>198</ele>
        <time>2014-04-23T09:30:58Z</time>
      </trkpt>
      <trkpt lat="47.02924" lon="5.44271">
        <ele>197</ele>
        <time>2014-04-23T09:31:05Z</time>
      </trkpt>
      <trkpt lat="47.02933" lon="5.44268">
        <ele>197</ele>
        <time>2014-04-23T09:31:11Z</time>
      </trkpt>
      <trkpt lat="47.02942" lon="5.44264">
        <ele>196</ele>
        <time>2014-04-23T09:31:18Z</time>
      </trkpt>
      <trkpt lat="47.02951" lon="5.44259">
        <ele>196</ele>
        <time>2014-04-23T09:31:25Z</time>
      </trkpt>
      <trkpt lat="47.0296" lon="5.44253">
        <ele>196</ele>
        <time>2014-04-23T09:31:32Z</time>
      </trkpt>
      <trkpt lat="47.0297" lon="5.44247">
        <ele>196</ele>
        <time>2014-04-23T09:31:39Z</time>
      </trkpt>
      <trkpt lat="47.02978" lon="5.44241">
        <ele>196</ele>
        <time>2014-04-23T09:31:46Z</time>
      </trkpt>
      <trkpt lat="47.02986" lon="5.44233">
        <ele>195</ele>
        <time>2014-04-23T09:31:53Z</time>
      </trkpt>
      <trkpt lat="47.02994" lon="5.44226">
        <ele>195</ele>
        <time>2014-04-23T09:32:00Z</time>
      </trkpt>
      <trkpt lat="47.03003" lon="5.4422">
        <ele>195</ele>
        <time>2014-04-23T09:32:07Z</time>
      </trkpt>
      <trkpt lat="47.03011" lon="5.44212">
        <ele>196</ele>
        <time>2014-04-23T09:32:14Z</time>
      </trkpt>
      <trkpt lat="47.03019" lon="5.44206">
        <ele>196</ele>
        <time>2014-04-23T09:32:21Z</time>
      </trkpt>
      <trkpt lat="47.03028" lon="5.442">
        <ele>196</ele>
        <time>2014-04-23T09:32:28Z</time>
      </trkpt>
      <trkpt lat="47.03036" lon="5.44192">
        <ele>196</ele>
        <time>2014-04-23T09:32:34Z</time>
      </trkpt>
      <trkpt lat="47.03045" lon="5.44186">
        <ele>195</ele>
        <time>2014-04-23T09:32:40Z</time>
      </trkpt>
      <trkpt lat="47.03053" lon="5.44177">
        <ele>195</ele>
        <time>2014-04-23T09:32:47Z</time>
      </trkpt>
      <trkpt lat="47.0306" lon="5.44169">
        <ele>195</ele>
        <time>2014-04-23T09:32:54Z</time>
      </trkpt>
      <trkpt lat="47.03069" lon="5.44163">
        <ele>195</ele>
        <time>2014-04-23T09:33:02Z</time>
      </trkpt>
      <trkpt lat="47.03078" lon="5.44157">
        <ele>195</ele>
        <time>2014-04-23T09:33:12Z</time>
      </trkpt>
      <trkpt lat="47.03087" lon="5.44152">
        <ele>195</ele>
        <time>2014-04-23T09:33:23Z</time>
      </trkpt>
      <trkpt lat="47.03095" lon="5.44148">
        <ele>196</ele>
        <time>2014-04-23T09:33:30Z</time>
      </trkpt>
      <trkpt lat="47.03105" lon="5.44145">
        <ele>195</ele>
        <time>2014-04-23T09:33:36Z</time>
      </trkpt>
      <trkpt lat="47.03114" lon="5.44144">
        <ele>195</ele>
        <time>2014-04-23T09:33:42Z</time>
      </trkpt>
      <trkpt lat="47.03124" lon="5.44143">
        <ele>195</ele>
        <time>2014-04-23T09:33:49Z</time>
      </trkpt>
      <trkpt lat="47.03134" lon="5.44143">
        <ele>195</ele>
        <time>2014-04-23T09:33:56Z</time>
      </trkpt>
      <trkpt lat="47.03143" lon="5.44145">
        <ele>196</ele>
        <time>2014-04-23T09:34:03Z</time>
      </trkpt>
      <trkpt lat="47.03153" lon="5.44148">
        <ele>196</ele>
        <time>2014-04-23T09:34:10Z</time>
      </trkpt>
      <trkpt lat="47.03163" lon="5.44152">
        <ele>196</ele>
        <time>2014-04-23T09:34:17Z</time>
      </trkpt>
      <trkpt lat="47.03172" lon="5.44159">
        <ele>196</ele>
        <time>2014-04-23T09:34:25Z</time>
      </trkpt>
      <trkpt lat="47.0318" lon="5.44166">
        <ele>196</ele>
        <time>2014-04-23T09:34:32Z</time>
      </trkpt>
      <trkpt lat="47.03189" lon="5.44173">
        <ele>197</ele>
        <time>2014-04-23T09:34:39Z</time>
      </trkpt>
      <trkpt lat="47.03197" lon="5.4418">
        <ele>197</ele>
        <time>2014-04-23T09:34:46Z</time>
      </trkpt>
      <trkpt lat="47.03205" lon="5.44188">
        <ele>197</ele>
        <time>2014-04-23T09:34:53Z</time>
      </trkpt>
      <trkpt lat="47.03212" lon="5.44197">
        <ele>197</ele>
        <time>2014-04-23T09:35:00Z</time>
      </trkpt>
      <trkpt lat="47.0322" lon="5.44203">
        <ele>196</ele>
        <time>2014-04-23T09:35:07Z</time>
      </trkpt>
      <trkpt lat="47.03228" lon="5.44211">
        <ele>196</ele>
        <time>2014-04-23T09:35:14Z</time>
      </trkpt>
      <trkpt lat="47.03236" lon="5.44219">
        <ele>196</ele>
        <time>2014-04-23T09:35:22Z</time>
      </trkpt>
      <trkpt lat="47.03244" lon="5.44226">
        <ele>197</ele>
        <time>2014-04-23T09:35:29Z</time>
      </trkpt>
      <trkpt lat="47.03251" lon="5.44235">
        <ele>197</ele>
        <time>2014-04-23T09:35:36Z</time>
      </trkpt>
      <trkpt lat="47.03259" lon="5.44244">
        <ele>196</ele>
        <time>2014-04-23T09:35:43Z</time>
      </trkpt>
      <trkpt lat="47.03266" lon="5.44253">
        <ele>196</ele>
        <time>2014-04-23T09:35:50Z</time>
      </trkpt>
      <trkpt lat="47.03273" lon="5.44263">
        <ele>196</ele>
        <time>2014-04-23T09:35:57Z</time>
      </trkpt>
      <trkpt lat="47.03281" lon="5.44271">
        <ele>196</ele>
        <time>2014-04-23T09:36:04Z</time>
      </trkpt>
      <trkpt lat="47.03289" lon="5.4428">
        <ele>196</ele>
        <time>2014-04-23T09:36:11Z</time>
      </trkpt>
      <trkpt lat="47.03294" lon="5.44285">
        <ele>197</ele>
        <time>2014-04-23T09:36:15Z</time>
      </trkpt>
      <trkpt lat="47.03298" lon="5.44289">
        <ele>198</ele>
        <time>2014-04-23T09:36:19Z</time>
      </trkpt>
      <trkpt lat="47.03302" lon="5.44294">
        <ele>197</ele>
        <time>2014-04-23T09:36:23Z</time>
      </trkpt>
      <trkpt lat="47.03306" lon="5.44298">
        <ele>197</ele>
        <time>2014-04-23T09:36:27Z</time>
      </trkpt>
      <trkpt lat="47.03311" lon="5.44303">
        <ele>197</ele>
        <time>2014-04-23T09:36:31Z</time>
      </trkpt>
      <trkpt lat="47.03315" lon="5.44307">
        <ele>197</ele>
        <time>2014-04-23T09:36:35Z</time>
      </trkpt>
      <trkpt lat="47.0332" lon="5.44311">
        <ele>196</ele>
        <time>2014-04-23T09:36:39Z</time>
      </trkpt>
      <trkpt lat="47.03324" lon="5.44315">
        <ele>196</ele>
        <time>2014-04-23T09:36:43Z</time>
      </trkpt>
      <trkpt lat="47.03329" lon="5.44318">
        <ele>196</ele>
        <time>2014-04-23T09:36:47Z</time>
      </trkpt>
      <trkpt lat="47.03334" lon="5.44321">
        <ele>196</ele>
        <time>2014-04-23T09:36:50Z</time>
      </trkpt>
      <trkpt lat="47.03338" lon="5.44325">
        <ele>196</ele>
        <time>2014-04-23T09:36:54Z</time>
      </trkpt>
      <trkpt lat="47.03343" lon="5.4433">
        <ele>196</ele>
        <time>2014-04-23T09:36:57Z</time>
      </trkpt>
      <trkpt lat="47.03347" lon="5.44334">
        <ele>196</ele>
        <time>2014-04-23T09:37:01Z</time>
      </trkpt>
      <trkpt lat="47.03351" lon="5.44339">
        <ele>196</ele>
        <time>2014-04-23T09:37:05Z</time>
      </trkpt>
      <trkpt lat="47.03356" lon="5.44343">
        <ele>195</ele>
        <time>2014-04-23T09:37:10Z</time>
      </trkpt>
      <trkpt lat="47.0336" lon="5.44346">
        <ele>196</ele>
        <time>2014-04-23T09:37:13Z</time>
      </trkpt>
      <trkpt lat="47.03364" lon="5.44349">
        <ele>196</ele>
        <time>2014-04-23T09:37:17Z</time>
      </trkpt>
      <trkpt lat="47.03367" lon="5.44354">
        <ele>196</ele>
        <time>2014-04-23T09:37:21Z</time>
      </trkpt>
      <trkpt lat="47.03372" lon="5.44358">
        <ele>196</ele>
        <time>2014-04-23T09:37:26Z</time>
      </trkpt>
    </trkseg>
  </trk>
</gpx>